<?xml version="1.0" encoding="UTF-8" standalone="no" ?>
<gpx xmlns="http://www.topografix.com/GPX/1/1" xmlns:xsi="http://www.w3.org/2001/XMLSchema-instance" xsi:schemaLocation="http://www.topografix.com/GPX/1/1 http://www.topografix.com/GPX/1/1/gpx.xsd" version="1.1" creator="VisuGPX - https://www.visugpx.com">
  <metadata>
    <name>Gite de Sagnebesse - Sainte Luce</name>
    <desc><![CDATA[2019-05 - Gite de sagnebesse - Sainte-Luce

[b]album[/b] : [url]https://photos.app.goo.gl/5iZSMh7Gh66EZ4v29[/url]
[img]https://blogger.googleusercontent.com/img/b/R29vZ2xl/AVvXsEjxm-OgxszzBkcNYlqgBeavfHgQ2KNJbuHUVrQFjonUZHXdmlGuGehtC01rigDZxEmy_j28wEaNgM-hZR9yiagCB3YEFeFFOGWRKsG_e8m1l2UfxbkhQUPB6smfxw89SDvUR3U6BPMmAClURGQJ9JPCiXgiIYAS4ZYA76TM1nUYXBHCoSo4kApLu4XJkVFN/s600/aubrac.JPG[/img]
[b]Idées de randonnées dans la même région[/b]
Parcours : [url]https://www.visugpx.com/membres/24856/montagne/massif-central/[/url]
Photos : [url]https://jcvertygo.blogspot.com/p/massif-central.html[/url]]]></desc>
  </metadata>
  <trk>
    <name><![CDATA[SityTrail - Gite de Sagnebesse -  loups du Gevaudan - Sainte Luce]]></name>
    <extensions>
      <line xmlns="http://www.topografix.com/GPX/gpx_style/0/2">
        <color>0000FF</color>
        <width>4</width>
      </line>
    </extensions>
    <trkseg>
      <trkpt lat="44.62211" lon="3.2544">
        <ele>1030</ele>
        <time>2019-05-30T07:38:14.152Z</time>
      </trkpt>
      <trkpt lat="44.6221" lon="3.25435">
        <ele>1030</ele>
        <time>2019-05-30T07:38:39.124Z</time>
      </trkpt>
      <trkpt lat="44.62209" lon="3.25425">
        <ele>1031</ele>
        <time>2019-05-30T07:38:44.133Z</time>
      </trkpt>
      <trkpt lat="44.62208" lon="3.25417">
        <ele>1031</ele>
        <time>2019-05-30T07:38:49.157Z</time>
      </trkpt>
      <trkpt lat="44.62209" lon="3.25417">
        <ele>1031</ele>
        <time>2019-05-30T07:38:54.135Z</time>
      </trkpt>
      <trkpt lat="44.62209" lon="3.25415">
        <ele>1031</ele>
        <time>2019-05-30T07:39:08.133Z</time>
      </trkpt>
      <trkpt lat="44.62211" lon="3.25414">
        <ele>1031</ele>
        <time>2019-05-30T07:40:01.149Z</time>
      </trkpt>
      <trkpt lat="44.62211" lon="3.25415">
        <ele>1031</ele>
        <time>2019-05-30T07:40:06.127Z</time>
      </trkpt>
      <trkpt lat="44.62211" lon="3.25417">
        <ele>1031</ele>
        <time>2019-05-30T07:40:10.135Z</time>
      </trkpt>
      <trkpt lat="44.62212" lon="3.25423">
        <ele>1031</ele>
        <time>2019-05-30T07:40:15.130Z</time>
      </trkpt>
      <trkpt lat="44.62215" lon="3.2543">
        <ele>1031</ele>
        <time>2019-05-30T07:40:20.129Z</time>
      </trkpt>
      <trkpt lat="44.62218" lon="3.25435">
        <ele>1030</ele>
        <time>2019-05-30T07:40:24.131Z</time>
      </trkpt>
      <trkpt lat="44.62222" lon="3.2544">
        <ele>1030</ele>
        <time>2019-05-30T07:40:28.191Z</time>
      </trkpt>
      <trkpt lat="44.62226" lon="3.25448">
        <ele>1030</ele>
        <time>2019-05-30T07:40:33.168Z</time>
      </trkpt>
      <trkpt lat="44.62227" lon="3.25455">
        <ele>1030</ele>
        <time>2019-05-30T07:40:38.133Z</time>
      </trkpt>
      <trkpt lat="44.62228" lon="3.25462">
        <ele>1030</ele>
        <time>2019-05-30T07:40:42.154Z</time>
      </trkpt>
      <trkpt lat="44.62226" lon="3.2547">
        <ele>1030</ele>
        <time>2019-05-30T07:40:47.138Z</time>
      </trkpt>
      <trkpt lat="44.62223" lon="3.25477">
        <ele>1030</ele>
        <time>2019-05-30T07:40:52.109Z</time>
      </trkpt>
      <trkpt lat="44.6222" lon="3.25483">
        <ele>1030</ele>
        <time>2019-05-30T07:40:56.133Z</time>
      </trkpt>
      <trkpt lat="44.62216" lon="3.25489">
        <ele>1032</ele>
        <time>2019-05-30T07:41:00.156Z</time>
      </trkpt>
      <trkpt lat="44.62208" lon="3.25495">
        <ele>1030</ele>
        <time>2019-05-30T07:41:05.133Z</time>
      </trkpt>
      <trkpt lat="44.62203" lon="3.255">
        <ele>1030</ele>
        <time>2019-05-30T07:41:10.133Z</time>
      </trkpt>
      <trkpt lat="44.62202" lon="3.25501">
        <ele>1030</ele>
        <time>2019-05-30T07:41:15.111Z</time>
      </trkpt>
      <trkpt lat="44.62203" lon="3.25501">
        <ele>1030</ele>
        <time>2019-05-30T07:41:19.113Z</time>
      </trkpt>
      <trkpt lat="44.62203" lon="3.25503">
        <ele>1030</ele>
        <time>2019-05-30T07:41:24.116Z</time>
      </trkpt>
      <trkpt lat="44.62201" lon="3.25509">
        <ele>1030</ele>
        <time>2019-05-30T07:41:28.193Z</time>
      </trkpt>
      <trkpt lat="44.62198" lon="3.25517">
        <ele>1033</ele>
        <time>2019-05-30T07:41:33.112Z</time>
      </trkpt>
      <trkpt lat="44.62193" lon="3.25523">
        <ele>1033</ele>
        <time>2019-05-30T07:41:37.130Z</time>
      </trkpt>
      <trkpt lat="44.62189" lon="3.25529">
        <ele>1033</ele>
        <time>2019-05-30T07:41:42.112Z</time>
      </trkpt>
      <trkpt lat="44.62185" lon="3.25534">
        <ele>1033</ele>
        <time>2019-05-30T07:41:46.134Z</time>
      </trkpt>
      <trkpt lat="44.6218" lon="3.25539">
        <ele>1030</ele>
        <time>2019-05-30T07:41:51.133Z</time>
      </trkpt>
      <trkpt lat="44.62174" lon="3.25544">
        <ele>1030</ele>
        <time>2019-05-30T07:41:56.138Z</time>
      </trkpt>
      <trkpt lat="44.6217" lon="3.25547">
        <ele>1030</ele>
        <time>2019-05-30T07:42:00.155Z</time>
      </trkpt>
      <trkpt lat="44.62165" lon="3.25552">
        <ele>1030</ele>
        <time>2019-05-30T07:42:05.135Z</time>
      </trkpt>
      <trkpt lat="44.6216" lon="3.25559">
        <ele>1030</ele>
        <time>2019-05-30T07:42:10.136Z</time>
      </trkpt>
      <trkpt lat="44.62156" lon="3.25565">
        <ele>1030</ele>
        <time>2019-05-30T07:42:15.140Z</time>
      </trkpt>
      <trkpt lat="44.62152" lon="3.25573">
        <ele>1028</ele>
        <time>2019-05-30T07:42:20.130Z</time>
      </trkpt>
      <trkpt lat="44.62148" lon="3.25578">
        <ele>1028</ele>
        <time>2019-05-30T07:42:24.165Z</time>
      </trkpt>
      <trkpt lat="44.62145" lon="3.25587">
        <ele>1028</ele>
        <time>2019-05-30T07:42:29.131Z</time>
      </trkpt>
      <trkpt lat="44.62143" lon="3.25594">
        <ele>1028</ele>
        <time>2019-05-30T07:42:33.155Z</time>
      </trkpt>
      <trkpt lat="44.62141" lon="3.25601">
        <ele>1030</ele>
        <time>2019-05-30T07:42:38.132Z</time>
      </trkpt>
      <trkpt lat="44.62137" lon="3.25609">
        <ele>1030</ele>
        <time>2019-05-30T07:42:43.128Z</time>
      </trkpt>
      <trkpt lat="44.62134" lon="3.25617">
        <ele>1030</ele>
        <time>2019-05-30T07:42:48.125Z</time>
      </trkpt>
      <trkpt lat="44.6213" lon="3.25625">
        <ele>1031</ele>
        <time>2019-05-30T07:42:53.133Z</time>
      </trkpt>
      <trkpt lat="44.62127" lon="3.25631">
        <ele>1031</ele>
        <time>2019-05-30T07:42:57.168Z</time>
      </trkpt>
      <trkpt lat="44.62122" lon="3.25638">
        <ele>1028</ele>
        <time>2019-05-30T07:43:02.139Z</time>
      </trkpt>
      <trkpt lat="44.62118" lon="3.25645">
        <ele>1028</ele>
        <time>2019-05-30T07:43:07.138Z</time>
      </trkpt>
      <trkpt lat="44.62115" lon="3.2565">
        <ele>1028</ele>
        <time>2019-05-30T07:43:12.139Z</time>
      </trkpt>
      <trkpt lat="44.62112" lon="3.25656">
        <ele>1029</ele>
        <time>2019-05-30T07:43:17.156Z</time>
      </trkpt>
      <trkpt lat="44.62106" lon="3.25662">
        <ele>1029</ele>
        <time>2019-05-30T07:43:22.136Z</time>
      </trkpt>
      <trkpt lat="44.62099" lon="3.25668">
        <ele>1029</ele>
        <time>2019-05-30T07:43:27.138Z</time>
      </trkpt>
      <trkpt lat="44.62094" lon="3.25672">
        <ele>1026</ele>
        <time>2019-05-30T07:43:31.183Z</time>
      </trkpt>
      <trkpt lat="44.62089" lon="3.25676">
        <ele>1026</ele>
        <time>2019-05-30T07:43:36.134Z</time>
      </trkpt>
      <trkpt lat="44.62084" lon="3.25681">
        <ele>1028</ele>
        <time>2019-05-30T07:43:41.126Z</time>
      </trkpt>
      <trkpt lat="44.62079" lon="3.25686">
        <ele>1028</ele>
        <time>2019-05-30T07:43:45.145Z</time>
      </trkpt>
      <trkpt lat="44.62074" lon="3.25693">
        <ele>1028</ele>
        <time>2019-05-30T07:43:50.141Z</time>
      </trkpt>
      <trkpt lat="44.62069" lon="3.25699">
        <ele>1027</ele>
        <time>2019-05-30T07:43:55.157Z</time>
      </trkpt>
      <trkpt lat="44.62067" lon="3.25708">
        <ele>1027</ele>
        <time>2019-05-30T07:44:00.163Z</time>
      </trkpt>
      <trkpt lat="44.62064" lon="3.25718">
        <ele>1027</ele>
        <time>2019-05-30T07:44:05.144Z</time>
      </trkpt>
      <trkpt lat="44.62063" lon="3.25726">
        <ele>1027</ele>
        <time>2019-05-30T07:44:09.135Z</time>
      </trkpt>
      <trkpt lat="44.62063" lon="3.25735">
        <ele>1027</ele>
        <time>2019-05-30T07:44:14.134Z</time>
      </trkpt>
      <trkpt lat="44.62063" lon="3.25745">
        <ele>1027</ele>
        <time>2019-05-30T07:44:19.138Z</time>
      </trkpt>
      <trkpt lat="44.62064" lon="3.25754">
        <ele>1027</ele>
        <time>2019-05-30T07:44:23.163Z</time>
      </trkpt>
      <trkpt lat="44.62064" lon="3.25762">
        <ele>1027</ele>
        <time>2019-05-30T07:44:28.119Z</time>
      </trkpt>
      <trkpt lat="44.62063" lon="3.25769">
        <ele>1028</ele>
        <time>2019-05-30T07:44:32.144Z</time>
      </trkpt>
      <trkpt lat="44.6206" lon="3.25779">
        <ele>1028</ele>
        <time>2019-05-30T07:44:37.115Z</time>
      </trkpt>
      <trkpt lat="44.62058" lon="3.25786">
        <ele>1028</ele>
        <time>2019-05-30T07:44:41.116Z</time>
      </trkpt>
      <trkpt lat="44.62057" lon="3.25795">
        <ele>1028</ele>
        <time>2019-05-30T07:44:45.151Z</time>
      </trkpt>
      <trkpt lat="44.62054" lon="3.25803">
        <ele>1028</ele>
        <time>2019-05-30T07:44:50.112Z</time>
      </trkpt>
      <trkpt lat="44.62051" lon="3.25809">
        <ele>1028</ele>
        <time>2019-05-30T07:44:54.130Z</time>
      </trkpt>
      <trkpt lat="44.62049" lon="3.25813">
        <ele>1028</ele>
        <time>2019-05-30T07:44:58.156Z</time>
      </trkpt>
      <trkpt lat="44.62046" lon="3.25818">
        <ele>1028</ele>
        <time>2019-05-30T07:45:03.140Z</time>
      </trkpt>
      <trkpt lat="44.62043" lon="3.25825">
        <ele>1029</ele>
        <time>2019-05-30T07:45:08.159Z</time>
      </trkpt>
      <trkpt lat="44.62041" lon="3.25832">
        <ele>1024</ele>
        <time>2019-05-30T07:45:12.162Z</time>
      </trkpt>
      <trkpt lat="44.62039" lon="3.2584">
        <ele>1024</ele>
        <time>2019-05-30T07:45:17.134Z</time>
      </trkpt>
      <trkpt lat="44.62036" lon="3.25846">
        <ele>1024</ele>
        <time>2019-05-30T07:45:21.151Z</time>
      </trkpt>
      <trkpt lat="44.62034" lon="3.25854">
        <ele>1024</ele>
        <time>2019-05-30T07:45:26.129Z</time>
      </trkpt>
      <trkpt lat="44.62033" lon="3.25861">
        <ele>1024</ele>
        <time>2019-05-30T07:45:31.133Z</time>
      </trkpt>
      <trkpt lat="44.6203" lon="3.2587">
        <ele>1024</ele>
        <time>2019-05-30T07:45:36.133Z</time>
      </trkpt>
      <trkpt lat="44.62028" lon="3.25878">
        <ele>1023</ele>
        <time>2019-05-30T07:45:41.130Z</time>
      </trkpt>
      <trkpt lat="44.62026" lon="3.25888">
        <ele>1023</ele>
        <time>2019-05-30T07:45:46.144Z</time>
      </trkpt>
      <trkpt lat="44.62026" lon="3.25896">
        <ele>1023</ele>
        <time>2019-05-30T07:45:51.129Z</time>
      </trkpt>
      <trkpt lat="44.62026" lon="3.25905">
        <ele>1022</ele>
        <time>2019-05-30T07:45:56.133Z</time>
      </trkpt>
      <trkpt lat="44.62026" lon="3.25914">
        <ele>1022</ele>
        <time>2019-05-30T07:46:01.149Z</time>
      </trkpt>
      <trkpt lat="44.62027" lon="3.25923">
        <ele>1022</ele>
        <time>2019-05-30T07:46:06.137Z</time>
      </trkpt>
      <trkpt lat="44.62026" lon="3.25932">
        <ele>1021</ele>
        <time>2019-05-30T07:46:11.165Z</time>
      </trkpt>
      <trkpt lat="44.62027" lon="3.25941">
        <ele>1021</ele>
        <time>2019-05-30T07:46:16.132Z</time>
      </trkpt>
      <trkpt lat="44.62027" lon="3.25948">
        <ele>1021</ele>
        <time>2019-05-30T07:46:20.135Z</time>
      </trkpt>
      <trkpt lat="44.62027" lon="3.25955">
        <ele>1021</ele>
        <time>2019-05-30T07:46:25.130Z</time>
      </trkpt>
      <trkpt lat="44.62028" lon="3.25963">
        <ele>1020</ele>
        <time>2019-05-30T07:46:29.134Z</time>
      </trkpt>
      <trkpt lat="44.62029" lon="3.25972">
        <ele>1020</ele>
        <time>2019-05-30T07:46:34.130Z</time>
      </trkpt>
      <trkpt lat="44.6203" lon="3.25981">
        <ele>1020</ele>
        <time>2019-05-30T07:46:38.151Z</time>
      </trkpt>
      <trkpt lat="44.62031" lon="3.25991">
        <ele>1018</ele>
        <time>2019-05-30T07:46:43.133Z</time>
      </trkpt>
      <trkpt lat="44.62031" lon="3.25997">
        <ele>1018</ele>
        <time>2019-05-30T07:46:47.133Z</time>
      </trkpt>
      <trkpt lat="44.62032" lon="3.26005">
        <ele>1018</ele>
        <time>2019-05-30T07:46:52.138Z</time>
      </trkpt>
      <trkpt lat="44.62032" lon="3.26014">
        <ele>1018</ele>
        <time>2019-05-30T07:46:57.136Z</time>
      </trkpt>
      <trkpt lat="44.62031" lon="3.26023">
        <ele>1018</ele>
        <time>2019-05-30T07:47:02.128Z</time>
      </trkpt>
      <trkpt lat="44.6203" lon="3.26033">
        <ele>1018</ele>
        <time>2019-05-30T07:47:07.134Z</time>
      </trkpt>
      <trkpt lat="44.62028" lon="3.26041">
        <ele>1018</ele>
        <time>2019-05-30T07:47:11.135Z</time>
      </trkpt>
      <trkpt lat="44.62027" lon="3.26047">
        <ele>1018</ele>
        <time>2019-05-30T07:47:16.132Z</time>
      </trkpt>
      <trkpt lat="44.62024" lon="3.26055">
        <ele>1018</ele>
        <time>2019-05-30T07:47:21.140Z</time>
      </trkpt>
      <trkpt lat="44.62019" lon="3.26062">
        <ele>1018</ele>
        <time>2019-05-30T07:47:26.137Z</time>
      </trkpt>
      <trkpt lat="44.62014" lon="3.26065">
        <ele>1018</ele>
        <time>2019-05-30T07:47:30.157Z</time>
      </trkpt>
      <trkpt lat="44.62008" lon="3.2607">
        <ele>1017</ele>
        <time>2019-05-30T07:47:35.138Z</time>
      </trkpt>
      <trkpt lat="44.62004" lon="3.26074">
        <ele>1017</ele>
        <time>2019-05-30T07:47:39.138Z</time>
      </trkpt>
      <trkpt lat="44.61999" lon="3.2608">
        <ele>1017</ele>
        <time>2019-05-30T07:47:44.128Z</time>
      </trkpt>
      <trkpt lat="44.61994" lon="3.26086">
        <ele>1017</ele>
        <time>2019-05-30T07:47:49.172Z</time>
      </trkpt>
      <trkpt lat="44.61989" lon="3.26093">
        <ele>1017</ele>
        <time>2019-05-30T07:47:54.130Z</time>
      </trkpt>
      <trkpt lat="44.61984" lon="3.26099">
        <ele>1018</ele>
        <time>2019-05-30T07:47:59.131Z</time>
      </trkpt>
      <trkpt lat="44.6198" lon="3.26105">
        <ele>1018</ele>
        <time>2019-05-30T07:48:04.135Z</time>
      </trkpt>
      <trkpt lat="44.61973" lon="3.26111">
        <ele>1018</ele>
        <time>2019-05-30T07:48:09.137Z</time>
      </trkpt>
      <trkpt lat="44.61969" lon="3.26115">
        <ele>1018</ele>
        <time>2019-05-30T07:48:13.156Z</time>
      </trkpt>
      <trkpt lat="44.61963" lon="3.2612">
        <ele>1018</ele>
        <time>2019-05-30T07:48:18.170Z</time>
      </trkpt>
      <trkpt lat="44.61958" lon="3.26126">
        <ele>1019</ele>
        <time>2019-05-30T07:48:23.139Z</time>
      </trkpt>
      <trkpt lat="44.61953" lon="3.26132">
        <ele>1019</ele>
        <time>2019-05-30T07:48:28.138Z</time>
      </trkpt>
      <trkpt lat="44.61949" lon="3.2614">
        <ele>1019</ele>
        <time>2019-05-30T07:48:33.126Z</time>
      </trkpt>
      <trkpt lat="44.61945" lon="3.26147">
        <ele>1019</ele>
        <time>2019-05-30T07:48:37.136Z</time>
      </trkpt>
      <trkpt lat="44.61943" lon="3.26156">
        <ele>1020</ele>
        <time>2019-05-30T07:48:42.128Z</time>
      </trkpt>
      <trkpt lat="44.6194" lon="3.26162">
        <ele>1020</ele>
        <time>2019-05-30T07:48:46.137Z</time>
      </trkpt>
      <trkpt lat="44.61938" lon="3.26171">
        <ele>1020</ele>
        <time>2019-05-30T07:48:51.125Z</time>
      </trkpt>
      <trkpt lat="44.61935" lon="3.26179">
        <ele>1020</ele>
        <time>2019-05-30T07:48:55.166Z</time>
      </trkpt>
      <trkpt lat="44.61932" lon="3.26187">
        <ele>1022</ele>
        <time>2019-05-30T07:49:00.128Z</time>
      </trkpt>
      <trkpt lat="44.6193" lon="3.26192">
        <ele>1017</ele>
        <time>2019-05-30T07:49:04.128Z</time>
      </trkpt>
      <trkpt lat="44.61927" lon="3.26197">
        <ele>1017</ele>
        <time>2019-05-30T07:49:08.166Z</time>
      </trkpt>
      <trkpt lat="44.61923" lon="3.26204">
        <ele>1017</ele>
        <time>2019-05-30T07:49:13.132Z</time>
      </trkpt>
      <trkpt lat="44.6192" lon="3.26211">
        <ele>1019</ele>
        <time>2019-05-30T07:49:17.133Z</time>
      </trkpt>
      <trkpt lat="44.61916" lon="3.26217">
        <ele>1019</ele>
        <time>2019-05-30T07:49:21.134Z</time>
      </trkpt>
      <trkpt lat="44.61914" lon="3.26225">
        <ele>1019</ele>
        <time>2019-05-30T07:49:26.133Z</time>
      </trkpt>
      <trkpt lat="44.61912" lon="3.26232">
        <ele>1019</ele>
        <time>2019-05-30T07:49:30.165Z</time>
      </trkpt>
      <trkpt lat="44.61909" lon="3.26244">
        <ele>1021</ele>
        <time>2019-05-30T07:49:35.123Z</time>
      </trkpt>
      <trkpt lat="44.61909" lon="3.26253">
        <ele>1021</ele>
        <time>2019-05-30T07:49:39.153Z</time>
      </trkpt>
      <trkpt lat="44.61906" lon="3.26262">
        <ele>1021</ele>
        <time>2019-05-30T07:49:44.113Z</time>
      </trkpt>
      <trkpt lat="44.61904" lon="3.26269">
        <ele>1021</ele>
        <time>2019-05-30T07:49:48.130Z</time>
      </trkpt>
      <trkpt lat="44.61903" lon="3.26275">
        <ele>1021</ele>
        <time>2019-05-30T07:49:52.147Z</time>
      </trkpt>
      <trkpt lat="44.61906" lon="3.26286">
        <ele>1021</ele>
        <time>2019-05-30T07:49:57.122Z</time>
      </trkpt>
      <trkpt lat="44.61907" lon="3.26299">
        <ele>1021</ele>
        <time>2019-05-30T07:50:01.155Z</time>
      </trkpt>
      <trkpt lat="44.61908" lon="3.26307">
        <ele>1021</ele>
        <time>2019-05-30T07:50:06.125Z</time>
      </trkpt>
      <trkpt lat="44.61908" lon="3.26317">
        <ele>1021</ele>
        <time>2019-05-30T07:50:11.114Z</time>
      </trkpt>
      <trkpt lat="44.61908" lon="3.26324">
        <ele>1022</ele>
        <time>2019-05-30T07:50:15.128Z</time>
      </trkpt>
      <trkpt lat="44.61909" lon="3.26331">
        <ele>1022</ele>
        <time>2019-05-30T07:50:20.136Z</time>
      </trkpt>
      <trkpt lat="44.6191" lon="3.26341">
        <ele>1022</ele>
        <time>2019-05-30T07:50:25.133Z</time>
      </trkpt>
      <trkpt lat="44.61907" lon="3.26348">
        <ele>1024</ele>
        <time>2019-05-30T07:50:30.134Z</time>
      </trkpt>
      <trkpt lat="44.61904" lon="3.26351">
        <ele>1024</ele>
        <time>2019-05-30T07:50:34.137Z</time>
      </trkpt>
      <trkpt lat="44.61897" lon="3.26351">
        <ele>1022</ele>
        <time>2019-05-30T07:50:39.136Z</time>
      </trkpt>
      <trkpt lat="44.61893" lon="3.26349">
        <ele>1022</ele>
        <time>2019-05-30T07:50:43.137Z</time>
      </trkpt>
      <trkpt lat="44.61886" lon="3.26347">
        <ele>1020</ele>
        <time>2019-05-30T07:50:48.115Z</time>
      </trkpt>
      <trkpt lat="44.61881" lon="3.26345">
        <ele>1020</ele>
        <time>2019-05-30T07:50:52.137Z</time>
      </trkpt>
      <trkpt lat="44.61876" lon="3.26345">
        <ele>1020</ele>
        <time>2019-05-30T07:50:56.144Z</time>
      </trkpt>
      <trkpt lat="44.61869" lon="3.26343">
        <ele>1018</ele>
        <time>2019-05-30T07:51:01.137Z</time>
      </trkpt>
      <trkpt lat="44.61863" lon="3.26343">
        <ele>1018</ele>
        <time>2019-05-30T07:51:05.185Z</time>
      </trkpt>
      <trkpt lat="44.61855" lon="3.26346">
        <ele>1018</ele>
        <time>2019-05-30T07:51:10.155Z</time>
      </trkpt>
      <trkpt lat="44.61849" lon="3.26349">
        <ele>1021</ele>
        <time>2019-05-30T07:51:15.187Z</time>
      </trkpt>
      <trkpt lat="44.61844" lon="3.26352">
        <ele>1019</ele>
        <time>2019-05-30T07:51:20.138Z</time>
      </trkpt>
      <trkpt lat="44.61838" lon="3.26356">
        <ele>1019</ele>
        <time>2019-05-30T07:51:25.122Z</time>
      </trkpt>
      <trkpt lat="44.61832" lon="3.2636">
        <ele>1019</ele>
        <time>2019-05-30T07:51:30.115Z</time>
      </trkpt>
      <trkpt lat="44.61827" lon="3.26362">
        <ele>1019</ele>
        <time>2019-05-30T07:51:34.123Z</time>
      </trkpt>
      <trkpt lat="44.6182" lon="3.26364">
        <ele>1019</ele>
        <time>2019-05-30T07:51:39.113Z</time>
      </trkpt>
      <trkpt lat="44.61814" lon="3.26367">
        <ele>1017</ele>
        <time>2019-05-30T07:51:43.120Z</time>
      </trkpt>
      <trkpt lat="44.61808" lon="3.26371">
        <ele>1017</ele>
        <time>2019-05-30T07:51:48.116Z</time>
      </trkpt>
      <trkpt lat="44.61807" lon="3.26372">
        <ele>1017</ele>
        <time>2019-05-30T07:51:53.112Z</time>
      </trkpt>
      <trkpt lat="44.61805" lon="3.26373">
        <ele>1017</ele>
        <time>2019-05-30T07:52:07.112Z</time>
      </trkpt>
      <trkpt lat="44.61801" lon="3.26376">
        <ele>1020</ele>
        <time>2019-05-30T07:52:11.130Z</time>
      </trkpt>
      <trkpt lat="44.61795" lon="3.26378">
        <ele>1020</ele>
        <time>2019-05-30T07:52:16.168Z</time>
      </trkpt>
      <trkpt lat="44.61788" lon="3.26382">
        <ele>1016</ele>
        <time>2019-05-30T07:52:21.148Z</time>
      </trkpt>
      <trkpt lat="44.61781" lon="3.26385">
        <ele>1016</ele>
        <time>2019-05-30T07:52:26.134Z</time>
      </trkpt>
      <trkpt lat="44.61776" lon="3.26387">
        <ele>1016</ele>
        <time>2019-05-30T07:52:30.137Z</time>
      </trkpt>
      <trkpt lat="44.6177" lon="3.2639">
        <ele>1016</ele>
        <time>2019-05-30T07:52:35.133Z</time>
      </trkpt>
      <trkpt lat="44.61764" lon="3.26393">
        <ele>1016</ele>
        <time>2019-05-30T07:52:39.142Z</time>
      </trkpt>
      <trkpt lat="44.61759" lon="3.26397">
        <ele>1015</ele>
        <time>2019-05-30T07:52:44.137Z</time>
      </trkpt>
      <trkpt lat="44.61754" lon="3.26402">
        <ele>1015</ele>
        <time>2019-05-30T07:52:48.142Z</time>
      </trkpt>
      <trkpt lat="44.61747" lon="3.26404">
        <ele>1018</ele>
        <time>2019-05-30T07:52:53.134Z</time>
      </trkpt>
      <trkpt lat="44.61742" lon="3.26407">
        <ele>1018</ele>
        <time>2019-05-30T07:52:58.134Z</time>
      </trkpt>
      <trkpt lat="44.61736" lon="3.2641">
        <ele>1018</ele>
        <time>2019-05-30T07:53:03.141Z</time>
      </trkpt>
      <trkpt lat="44.6173" lon="3.26413">
        <ele>1017</ele>
        <time>2019-05-30T07:53:08.124Z</time>
      </trkpt>
      <trkpt lat="44.61725" lon="3.26416">
        <ele>1017</ele>
        <time>2019-05-30T07:53:12.141Z</time>
      </trkpt>
      <trkpt lat="44.61719" lon="3.26419">
        <ele>1017</ele>
        <time>2019-05-30T07:53:17.163Z</time>
      </trkpt>
      <trkpt lat="44.61714" lon="3.26422">
        <ele>1017</ele>
        <time>2019-05-30T07:53:22.165Z</time>
      </trkpt>
      <trkpt lat="44.61708" lon="3.26426">
        <ele>1017</ele>
        <time>2019-05-30T07:53:27.147Z</time>
      </trkpt>
      <trkpt lat="44.61703" lon="3.26429">
        <ele>1015</ele>
        <time>2019-05-30T07:53:32.126Z</time>
      </trkpt>
      <trkpt lat="44.61698" lon="3.26433">
        <ele>1018</ele>
        <time>2019-05-30T07:53:37.144Z</time>
      </trkpt>
      <trkpt lat="44.61691" lon="3.26438">
        <ele>1018</ele>
        <time>2019-05-30T07:53:42.141Z</time>
      </trkpt>
      <trkpt lat="44.61684" lon="3.26441">
        <ele>1018</ele>
        <time>2019-05-30T07:53:47.134Z</time>
      </trkpt>
      <trkpt lat="44.61676" lon="3.26445">
        <ele>1016</ele>
        <time>2019-05-30T07:53:52.132Z</time>
      </trkpt>
      <trkpt lat="44.61669" lon="3.26449">
        <ele>1016</ele>
        <time>2019-05-30T07:53:57.168Z</time>
      </trkpt>
      <trkpt lat="44.61662" lon="3.26454">
        <ele>1016</ele>
        <time>2019-05-30T07:54:02.138Z</time>
      </trkpt>
      <trkpt lat="44.61657" lon="3.26458">
        <ele>1016</ele>
        <time>2019-05-30T07:54:06.155Z</time>
      </trkpt>
      <trkpt lat="44.6165" lon="3.26462">
        <ele>1017</ele>
        <time>2019-05-30T07:54:11.125Z</time>
      </trkpt>
      <trkpt lat="44.61644" lon="3.26465">
        <ele>1017</ele>
        <time>2019-05-30T07:54:15.135Z</time>
      </trkpt>
      <trkpt lat="44.61638" lon="3.26467">
        <ele>1017</ele>
        <time>2019-05-30T07:54:20.134Z</time>
      </trkpt>
      <trkpt lat="44.61634" lon="3.26471">
        <ele>1017</ele>
        <time>2019-05-30T07:54:24.140Z</time>
      </trkpt>
      <trkpt lat="44.61628" lon="3.26476">
        <ele>1017</ele>
        <time>2019-05-30T07:54:29.140Z</time>
      </trkpt>
      <trkpt lat="44.61623" lon="3.26477">
        <ele>1016</ele>
        <time>2019-05-30T07:54:33.148Z</time>
      </trkpt>
      <trkpt lat="44.61617" lon="3.26479">
        <ele>1016</ele>
        <time>2019-05-30T07:54:38.139Z</time>
      </trkpt>
      <trkpt lat="44.61612" lon="3.2648">
        <ele>1016</ele>
        <time>2019-05-30T07:54:43.143Z</time>
      </trkpt>
      <trkpt lat="44.61606" lon="3.26483">
        <ele>1016</ele>
        <time>2019-05-30T07:54:48.143Z</time>
      </trkpt>
      <trkpt lat="44.61599" lon="3.26488">
        <ele>1020</ele>
        <time>2019-05-30T07:54:53.126Z</time>
      </trkpt>
      <trkpt lat="44.61593" lon="3.26492">
        <ele>1018</ele>
        <time>2019-05-30T07:54:57.140Z</time>
      </trkpt>
      <trkpt lat="44.61587" lon="3.26496">
        <ele>1018</ele>
        <time>2019-05-30T07:55:02.168Z</time>
      </trkpt>
      <trkpt lat="44.61581" lon="3.26499">
        <ele>1018</ele>
        <time>2019-05-30T07:55:07.131Z</time>
      </trkpt>
      <trkpt lat="44.61576" lon="3.26503">
        <ele>1018</ele>
        <time>2019-05-30T07:55:11.134Z</time>
      </trkpt>
      <trkpt lat="44.61571" lon="3.26508">
        <ele>1018</ele>
        <time>2019-05-30T07:55:16.167Z</time>
      </trkpt>
      <trkpt lat="44.61565" lon="3.26513">
        <ele>1017</ele>
        <time>2019-05-30T07:55:21.130Z</time>
      </trkpt>
      <trkpt lat="44.6156" lon="3.26517">
        <ele>1020</ele>
        <time>2019-05-30T07:55:25.164Z</time>
      </trkpt>
      <trkpt lat="44.61554" lon="3.26521">
        <ele>1020</ele>
        <time>2019-05-30T07:55:30.129Z</time>
      </trkpt>
      <trkpt lat="44.61549" lon="3.26525">
        <ele>1020</ele>
        <time>2019-05-30T07:55:34.143Z</time>
      </trkpt>
      <trkpt lat="44.61543" lon="3.2653">
        <ele>1020</ele>
        <time>2019-05-30T07:55:39.165Z</time>
      </trkpt>
      <trkpt lat="44.61537" lon="3.26535">
        <ele>1019</ele>
        <time>2019-05-30T07:55:44.129Z</time>
      </trkpt>
      <trkpt lat="44.61534" lon="3.26539">
        <ele>1019</ele>
        <time>2019-05-30T07:55:48.137Z</time>
      </trkpt>
      <trkpt lat="44.61529" lon="3.26543">
        <ele>1022</ele>
        <time>2019-05-30T07:55:53.140Z</time>
      </trkpt>
      <trkpt lat="44.61525" lon="3.26546">
        <ele>1022</ele>
        <time>2019-05-30T07:55:57.138Z</time>
      </trkpt>
      <trkpt lat="44.61519" lon="3.26551">
        <ele>1022</ele>
        <time>2019-05-30T07:56:02.135Z</time>
      </trkpt>
      <trkpt lat="44.61514" lon="3.26555">
        <ele>1022</ele>
        <time>2019-05-30T07:56:07.133Z</time>
      </trkpt>
      <trkpt lat="44.61508" lon="3.26561">
        <ele>1022</ele>
        <time>2019-05-30T07:56:12.139Z</time>
      </trkpt>
      <trkpt lat="44.61502" lon="3.26567">
        <ele>1022</ele>
        <time>2019-05-30T07:56:17.138Z</time>
      </trkpt>
      <trkpt lat="44.61497" lon="3.26572">
        <ele>1023</ele>
        <time>2019-05-30T07:56:22.127Z</time>
      </trkpt>
      <trkpt lat="44.61492" lon="3.26578">
        <ele>1023</ele>
        <time>2019-05-30T07:56:27.132Z</time>
      </trkpt>
      <trkpt lat="44.61487" lon="3.26584">
        <ele>1023</ele>
        <time>2019-05-30T07:56:32.133Z</time>
      </trkpt>
      <trkpt lat="44.61482" lon="3.2659">
        <ele>1021</ele>
        <time>2019-05-30T07:56:37.132Z</time>
      </trkpt>
      <trkpt lat="44.61477" lon="3.26595">
        <ele>1021</ele>
        <time>2019-05-30T07:56:42.132Z</time>
      </trkpt>
      <trkpt lat="44.61473" lon="3.26601">
        <ele>1021</ele>
        <time>2019-05-30T07:56:47.140Z</time>
      </trkpt>
      <trkpt lat="44.61468" lon="3.26607">
        <ele>1021</ele>
        <time>2019-05-30T07:56:52.155Z</time>
      </trkpt>
      <trkpt lat="44.61463" lon="3.26612">
        <ele>1021</ele>
        <time>2019-05-30T07:56:57.153Z</time>
      </trkpt>
      <trkpt lat="44.61458" lon="3.2662">
        <ele>1021</ele>
        <time>2019-05-30T07:57:02.168Z</time>
      </trkpt>
      <trkpt lat="44.61454" lon="3.26626">
        <ele>1019</ele>
        <time>2019-05-30T07:57:07.137Z</time>
      </trkpt>
      <trkpt lat="44.61449" lon="3.26633">
        <ele>1019</ele>
        <time>2019-05-30T07:57:12.178Z</time>
      </trkpt>
      <trkpt lat="44.61444" lon="3.26639">
        <ele>1019</ele>
        <time>2019-05-30T07:57:17.139Z</time>
      </trkpt>
      <trkpt lat="44.6144" lon="3.26643">
        <ele>1019</ele>
        <time>2019-05-30T07:57:21.161Z</time>
      </trkpt>
      <trkpt lat="44.61435" lon="3.2665">
        <ele>1019</ele>
        <time>2019-05-30T07:57:26.142Z</time>
      </trkpt>
      <trkpt lat="44.6143" lon="3.26657">
        <ele>1018</ele>
        <time>2019-05-30T07:57:31.136Z</time>
      </trkpt>
      <trkpt lat="44.61426" lon="3.26662">
        <ele>1018</ele>
        <time>2019-05-30T07:57:35.149Z</time>
      </trkpt>
      <trkpt lat="44.61421" lon="3.26669">
        <ele>1018</ele>
        <time>2019-05-30T07:57:40.141Z</time>
      </trkpt>
      <trkpt lat="44.61417" lon="3.26676">
        <ele>1018</ele>
        <time>2019-05-30T07:57:45.136Z</time>
      </trkpt>
      <trkpt lat="44.61413" lon="3.26683">
        <ele>1019</ele>
        <time>2019-05-30T07:57:50.143Z</time>
      </trkpt>
      <trkpt lat="44.61409" lon="3.26687">
        <ele>1019</ele>
        <time>2019-05-30T07:57:54.138Z</time>
      </trkpt>
      <trkpt lat="44.61405" lon="3.26692">
        <ele>1019</ele>
        <time>2019-05-30T07:57:58.171Z</time>
      </trkpt>
      <trkpt lat="44.61401" lon="3.26699">
        <ele>1018</ele>
        <time>2019-05-30T07:58:03.139Z</time>
      </trkpt>
      <trkpt lat="44.61399" lon="3.26705">
        <ele>1018</ele>
        <time>2019-05-30T07:58:07.148Z</time>
      </trkpt>
      <trkpt lat="44.61395" lon="3.26712">
        <ele>1019</ele>
        <time>2019-05-30T07:58:12.140Z</time>
      </trkpt>
      <trkpt lat="44.61393" lon="3.2672">
        <ele>1019</ele>
        <time>2019-05-30T07:58:17.134Z</time>
      </trkpt>
      <trkpt lat="44.61388" lon="3.26726">
        <ele>1019</ele>
        <time>2019-05-30T07:58:22.143Z</time>
      </trkpt>
      <trkpt lat="44.61383" lon="3.26734">
        <ele>1019</ele>
        <time>2019-05-30T07:58:27.139Z</time>
      </trkpt>
      <trkpt lat="44.61379" lon="3.26741">
        <ele>1020</ele>
        <time>2019-05-30T07:58:32.128Z</time>
      </trkpt>
      <trkpt lat="44.61374" lon="3.26751">
        <ele>1019</ele>
        <time>2019-05-30T07:58:37.162Z</time>
      </trkpt>
      <trkpt lat="44.6137" lon="3.26758">
        <ele>1019</ele>
        <time>2019-05-30T07:58:42.139Z</time>
      </trkpt>
      <trkpt lat="44.61368" lon="3.26765">
        <ele>1021</ele>
        <time>2019-05-30T07:58:47.138Z</time>
      </trkpt>
      <trkpt lat="44.61365" lon="3.2677">
        <ele>1021</ele>
        <time>2019-05-30T07:58:51.153Z</time>
      </trkpt>
      <trkpt lat="44.6136" lon="3.26777">
        <ele>1021</ele>
        <time>2019-05-30T07:58:56.151Z</time>
      </trkpt>
      <trkpt lat="44.61356" lon="3.26784">
        <ele>1021</ele>
        <time>2019-05-30T07:59:01.136Z</time>
      </trkpt>
      <trkpt lat="44.61352" lon="3.26789">
        <ele>1021</ele>
        <time>2019-05-30T07:59:05.165Z</time>
      </trkpt>
      <trkpt lat="44.61347" lon="3.26796">
        <ele>1020</ele>
        <time>2019-05-30T07:59:10.135Z</time>
      </trkpt>
      <trkpt lat="44.61343" lon="3.26801">
        <ele>1020</ele>
        <time>2019-05-30T07:59:14.168Z</time>
      </trkpt>
      <trkpt lat="44.61339" lon="3.26808">
        <ele>1020</ele>
        <time>2019-05-30T07:59:19.129Z</time>
      </trkpt>
      <trkpt lat="44.61335" lon="3.26815">
        <ele>1020</ele>
        <time>2019-05-30T07:59:24.133Z</time>
      </trkpt>
      <trkpt lat="44.61331" lon="3.26822">
        <ele>1019</ele>
        <time>2019-05-30T07:59:29.132Z</time>
      </trkpt>
      <trkpt lat="44.61326" lon="3.2683">
        <ele>1019</ele>
        <time>2019-05-30T07:59:34.141Z</time>
      </trkpt>
      <trkpt lat="44.61323" lon="3.26836">
        <ele>1019</ele>
        <time>2019-05-30T07:59:38.136Z</time>
      </trkpt>
      <trkpt lat="44.61319" lon="3.26844">
        <ele>1018</ele>
        <time>2019-05-30T07:59:43.144Z</time>
      </trkpt>
      <trkpt lat="44.61315" lon="3.26851">
        <ele>1018</ele>
        <time>2019-05-30T07:59:48.139Z</time>
      </trkpt>
      <trkpt lat="44.61311" lon="3.26857">
        <ele>1018</ele>
        <time>2019-05-30T07:59:53.134Z</time>
      </trkpt>
      <trkpt lat="44.61308" lon="3.26862">
        <ele>1018</ele>
        <time>2019-05-30T07:59:57.144Z</time>
      </trkpt>
      <trkpt lat="44.61304" lon="3.26869">
        <ele>1018</ele>
        <time>2019-05-30T08:00:02.142Z</time>
      </trkpt>
      <trkpt lat="44.61299" lon="3.26876">
        <ele>1016</ele>
        <time>2019-05-30T08:00:07.134Z</time>
      </trkpt>
      <trkpt lat="44.61295" lon="3.26882">
        <ele>1016</ele>
        <time>2019-05-30T08:00:12.166Z</time>
      </trkpt>
      <trkpt lat="44.6129" lon="3.26888">
        <ele>1016</ele>
        <time>2019-05-30T08:00:17.134Z</time>
      </trkpt>
      <trkpt lat="44.61287" lon="3.26894">
        <ele>1016</ele>
        <time>2019-05-30T08:00:21.166Z</time>
      </trkpt>
      <trkpt lat="44.61283" lon="3.26901">
        <ele>1016</ele>
        <time>2019-05-30T08:00:26.132Z</time>
      </trkpt>
      <trkpt lat="44.61279" lon="3.26907">
        <ele>1016</ele>
        <time>2019-05-30T08:00:31.135Z</time>
      </trkpt>
      <trkpt lat="44.61275" lon="3.26911">
        <ele>1016</ele>
        <time>2019-05-30T08:00:35.155Z</time>
      </trkpt>
      <trkpt lat="44.6127" lon="3.26918">
        <ele>1016</ele>
        <time>2019-05-30T08:00:40.140Z</time>
      </trkpt>
      <trkpt lat="44.61266" lon="3.26923">
        <ele>1016</ele>
        <time>2019-05-30T08:00:44.164Z</time>
      </trkpt>
      <trkpt lat="44.61262" lon="3.26932">
        <ele>1013</ele>
        <time>2019-05-30T08:00:49.134Z</time>
      </trkpt>
      <trkpt lat="44.61258" lon="3.26939">
        <ele>1013</ele>
        <time>2019-05-30T08:00:54.154Z</time>
      </trkpt>
      <trkpt lat="44.61254" lon="3.26945">
        <ele>1013</ele>
        <time>2019-05-30T08:00:59.137Z</time>
      </trkpt>
      <trkpt lat="44.61251" lon="3.26954">
        <ele>1013</ele>
        <time>2019-05-30T08:01:04.134Z</time>
      </trkpt>
      <trkpt lat="44.61249" lon="3.26963">
        <ele>1013</ele>
        <time>2019-05-30T08:01:09.141Z</time>
      </trkpt>
      <trkpt lat="44.61247" lon="3.26971">
        <ele>1013</ele>
        <time>2019-05-30T08:01:13.155Z</time>
      </trkpt>
      <trkpt lat="44.61245" lon="3.26977">
        <ele>1013</ele>
        <time>2019-05-30T08:01:17.170Z</time>
      </trkpt>
      <trkpt lat="44.61242" lon="3.26985">
        <ele>1013</ele>
        <time>2019-05-30T08:01:22.166Z</time>
      </trkpt>
      <trkpt lat="44.61241" lon="3.26994">
        <ele>1012</ele>
        <time>2019-05-30T08:01:27.165Z</time>
      </trkpt>
      <trkpt lat="44.61237" lon="3.27001">
        <ele>1012</ele>
        <time>2019-05-30T08:01:32.111Z</time>
      </trkpt>
      <trkpt lat="44.61235" lon="3.27008">
        <ele>1010</ele>
        <time>2019-05-30T08:01:36.160Z</time>
      </trkpt>
      <trkpt lat="44.61232" lon="3.27016">
        <ele>1009</ele>
        <time>2019-05-30T08:01:41.135Z</time>
      </trkpt>
      <trkpt lat="44.61229" lon="3.27024">
        <ele>1009</ele>
        <time>2019-05-30T08:01:46.137Z</time>
      </trkpt>
      <trkpt lat="44.61225" lon="3.2703">
        <ele>1009</ele>
        <time>2019-05-30T08:01:50.159Z</time>
      </trkpt>
      <trkpt lat="44.61221" lon="3.27037">
        <ele>1009</ele>
        <time>2019-05-30T08:01:55.132Z</time>
      </trkpt>
      <trkpt lat="44.61217" lon="3.27044">
        <ele>1009</ele>
        <time>2019-05-30T08:02:00.144Z</time>
      </trkpt>
      <trkpt lat="44.61212" lon="3.2705">
        <ele>1009</ele>
        <time>2019-05-30T08:02:05.139Z</time>
      </trkpt>
      <trkpt lat="44.61208" lon="3.27055">
        <ele>1011</ele>
        <time>2019-05-30T08:02:09.188Z</time>
      </trkpt>
      <trkpt lat="44.61202" lon="3.2706">
        <ele>1011</ele>
        <time>2019-05-30T08:02:14.134Z</time>
      </trkpt>
      <trkpt lat="44.61197" lon="3.27067">
        <ele>1011</ele>
        <time>2019-05-30T08:02:19.127Z</time>
      </trkpt>
      <trkpt lat="44.61192" lon="3.27073">
        <ele>1011</ele>
        <time>2019-05-30T08:02:24.133Z</time>
      </trkpt>
      <trkpt lat="44.61187" lon="3.27079">
        <ele>1011</ele>
        <time>2019-05-30T08:02:29.131Z</time>
      </trkpt>
      <trkpt lat="44.61183" lon="3.27084">
        <ele>1011</ele>
        <time>2019-05-30T08:02:33.163Z</time>
      </trkpt>
      <trkpt lat="44.61178" lon="3.2709">
        <ele>1011</ele>
        <time>2019-05-30T08:02:38.136Z</time>
      </trkpt>
      <trkpt lat="44.61174" lon="3.27093">
        <ele>1011</ele>
        <time>2019-05-30T08:02:42.139Z</time>
      </trkpt>
      <trkpt lat="44.61168" lon="3.27098">
        <ele>1013</ele>
        <time>2019-05-30T08:02:47.133Z</time>
      </trkpt>
      <trkpt lat="44.61164" lon="3.27105">
        <ele>1013</ele>
        <time>2019-05-30T08:02:52.133Z</time>
      </trkpt>
      <trkpt lat="44.61161" lon="3.27111">
        <ele>1013</ele>
        <time>2019-05-30T08:02:57.135Z</time>
      </trkpt>
      <trkpt lat="44.61157" lon="3.27116">
        <ele>1013</ele>
        <time>2019-05-30T08:03:02.134Z</time>
      </trkpt>
      <trkpt lat="44.61153" lon="3.27122">
        <ele>1014</ele>
        <time>2019-05-30T08:03:07.125Z</time>
      </trkpt>
      <trkpt lat="44.61149" lon="3.27125">
        <ele>1016</ele>
        <time>2019-05-30T08:03:12.116Z</time>
      </trkpt>
      <trkpt lat="44.61143" lon="3.27129">
        <ele>1016</ele>
        <time>2019-05-30T08:03:16.159Z</time>
      </trkpt>
      <trkpt lat="44.61137" lon="3.27132">
        <ele>1016</ele>
        <time>2019-05-30T08:03:21.128Z</time>
      </trkpt>
      <trkpt lat="44.6113" lon="3.27133">
        <ele>1016</ele>
        <time>2019-05-30T08:03:26.138Z</time>
      </trkpt>
      <trkpt lat="44.61123" lon="3.27133">
        <ele>1017</ele>
        <time>2019-05-30T08:03:31.129Z</time>
      </trkpt>
      <trkpt lat="44.61116" lon="3.2713">
        <ele>1017</ele>
        <time>2019-05-30T08:03:36.126Z</time>
      </trkpt>
      <trkpt lat="44.61109" lon="3.27128">
        <ele>1017</ele>
        <time>2019-05-30T08:03:41.116Z</time>
      </trkpt>
      <trkpt lat="44.61105" lon="3.27128">
        <ele>1017</ele>
        <time>2019-05-30T08:03:45.133Z</time>
      </trkpt>
      <trkpt lat="44.611" lon="3.27127">
        <ele>1017</ele>
        <time>2019-05-30T08:03:50.160Z</time>
      </trkpt>
      <trkpt lat="44.61094" lon="3.27128">
        <ele>1017</ele>
        <time>2019-05-30T08:03:55.139Z</time>
      </trkpt>
      <trkpt lat="44.61087" lon="3.27129">
        <ele>1017</ele>
        <time>2019-05-30T08:04:00.139Z</time>
      </trkpt>
      <trkpt lat="44.61081" lon="3.27133">
        <ele>1017</ele>
        <time>2019-05-30T08:04:05.135Z</time>
      </trkpt>
      <trkpt lat="44.61076" lon="3.27135">
        <ele>1017</ele>
        <time>2019-05-30T08:04:09.143Z</time>
      </trkpt>
      <trkpt lat="44.6107" lon="3.27138">
        <ele>1017</ele>
        <time>2019-05-30T08:04:14.136Z</time>
      </trkpt>
      <trkpt lat="44.61063" lon="3.27142">
        <ele>1016</ele>
        <time>2019-05-30T08:04:19.133Z</time>
      </trkpt>
      <trkpt lat="44.61057" lon="3.27145">
        <ele>1016</ele>
        <time>2019-05-30T08:04:24.136Z</time>
      </trkpt>
      <trkpt lat="44.61053" lon="3.27149">
        <ele>1016</ele>
        <time>2019-05-30T08:04:28.146Z</time>
      </trkpt>
      <trkpt lat="44.61047" lon="3.27153">
        <ele>1018</ele>
        <time>2019-05-30T08:04:33.134Z</time>
      </trkpt>
      <trkpt lat="44.61042" lon="3.27157">
        <ele>1018</ele>
        <time>2019-05-30T08:04:37.150Z</time>
      </trkpt>
      <trkpt lat="44.61037" lon="3.27163">
        <ele>1017</ele>
        <time>2019-05-30T08:04:42.132Z</time>
      </trkpt>
      <trkpt lat="44.61032" lon="3.27168">
        <ele>1017</ele>
        <time>2019-05-30T08:04:47.135Z</time>
      </trkpt>
      <trkpt lat="44.61027" lon="3.27173">
        <ele>1017</ele>
        <time>2019-05-30T08:04:52.145Z</time>
      </trkpt>
      <trkpt lat="44.61022" lon="3.27179">
        <ele>1017</ele>
        <time>2019-05-30T08:04:57.138Z</time>
      </trkpt>
      <trkpt lat="44.61017" lon="3.27184">
        <ele>1019</ele>
        <time>2019-05-30T08:05:01.166Z</time>
      </trkpt>
      <trkpt lat="44.61012" lon="3.27189">
        <ele>1016</ele>
        <time>2019-05-30T08:05:06.159Z</time>
      </trkpt>
      <trkpt lat="44.61008" lon="3.27196">
        <ele>1016</ele>
        <time>2019-05-30T08:05:11.163Z</time>
      </trkpt>
      <trkpt lat="44.61003" lon="3.27204">
        <ele>1016</ele>
        <time>2019-05-30T08:05:16.169Z</time>
      </trkpt>
      <trkpt lat="44.61" lon="3.27213">
        <ele>1018</ele>
        <time>2019-05-30T08:05:21.161Z</time>
      </trkpt>
      <trkpt lat="44.60996" lon="3.27221">
        <ele>1018</ele>
        <time>2019-05-30T08:05:26.151Z</time>
      </trkpt>
      <trkpt lat="44.60993" lon="3.27227">
        <ele>1018</ele>
        <time>2019-05-30T08:05:30.175Z</time>
      </trkpt>
      <trkpt lat="44.6099" lon="3.27235">
        <ele>1018</ele>
        <time>2019-05-30T08:05:35.135Z</time>
      </trkpt>
      <trkpt lat="44.60987" lon="3.27244">
        <ele>1021</ele>
        <time>2019-05-30T08:05:40.164Z</time>
      </trkpt>
      <trkpt lat="44.60985" lon="3.27253">
        <ele>1018</ele>
        <time>2019-05-30T08:05:45.137Z</time>
      </trkpt>
      <trkpt lat="44.60982" lon="3.27261">
        <ele>1018</ele>
        <time>2019-05-30T08:05:50.141Z</time>
      </trkpt>
      <trkpt lat="44.6098" lon="3.2727">
        <ele>1019</ele>
        <time>2019-05-30T08:05:55.155Z</time>
      </trkpt>
      <trkpt lat="44.60977" lon="3.27279">
        <ele>1019</ele>
        <time>2019-05-30T08:06:00.139Z</time>
      </trkpt>
      <trkpt lat="44.60976" lon="3.27287">
        <ele>1019</ele>
        <time>2019-05-30T08:06:04.139Z</time>
      </trkpt>
      <trkpt lat="44.60975" lon="3.27296">
        <ele>1020</ele>
        <time>2019-05-30T08:06:09.134Z</time>
      </trkpt>
      <trkpt lat="44.60974" lon="3.27306">
        <ele>1020</ele>
        <time>2019-05-30T08:06:14.135Z</time>
      </trkpt>
      <trkpt lat="44.60973" lon="3.27315">
        <ele>1020</ele>
        <time>2019-05-30T08:06:19.134Z</time>
      </trkpt>
      <trkpt lat="44.60971" lon="3.27322">
        <ele>1021</ele>
        <time>2019-05-30T08:06:24.136Z</time>
      </trkpt>
      <trkpt lat="44.60971" lon="3.27322">
        <ele>1021</ele>
        <time>2019-05-30T08:06:28.139Z</time>
      </trkpt>
      <trkpt lat="44.60971" lon="3.27323">
        <ele>1021</ele>
        <time>2019-05-30T08:07:38.149Z</time>
      </trkpt>
      <trkpt lat="44.6097" lon="3.27329">
        <ele>1021</ele>
        <time>2019-05-30T08:07:42.183Z</time>
      </trkpt>
      <trkpt lat="44.60968" lon="3.27337">
        <ele>1021</ele>
        <time>2019-05-30T08:07:47.134Z</time>
      </trkpt>
      <trkpt lat="44.60967" lon="3.27345">
        <ele>1021</ele>
        <time>2019-05-30T08:07:52.140Z</time>
      </trkpt>
      <trkpt lat="44.60965" lon="3.2735">
        <ele>1024</ele>
        <time>2019-05-30T08:07:56.148Z</time>
      </trkpt>
      <trkpt lat="44.60963" lon="3.27358">
        <ele>1024</ele>
        <time>2019-05-30T08:08:01.139Z</time>
      </trkpt>
      <trkpt lat="44.60962" lon="3.27365">
        <ele>1024</ele>
        <time>2019-05-30T08:08:05.180Z</time>
      </trkpt>
      <trkpt lat="44.60959" lon="3.27373">
        <ele>1024</ele>
        <time>2019-05-30T08:08:10.141Z</time>
      </trkpt>
      <trkpt lat="44.60957" lon="3.2738">
        <ele>1019</ele>
        <time>2019-05-30T08:08:14.143Z</time>
      </trkpt>
      <trkpt lat="44.60955" lon="3.27386">
        <ele>1019</ele>
        <time>2019-05-30T08:08:18.152Z</time>
      </trkpt>
      <trkpt lat="44.60953" lon="3.27394">
        <ele>1019</ele>
        <time>2019-05-30T08:08:23.168Z</time>
      </trkpt>
      <trkpt lat="44.6095" lon="3.27402">
        <ele>1019</ele>
        <time>2019-05-30T08:08:28.140Z</time>
      </trkpt>
      <trkpt lat="44.60948" lon="3.27411">
        <ele>1020</ele>
        <time>2019-05-30T08:08:33.139Z</time>
      </trkpt>
      <trkpt lat="44.60946" lon="3.27418">
        <ele>1020</ele>
        <time>2019-05-30T08:08:38.151Z</time>
      </trkpt>
      <trkpt lat="44.60943" lon="3.27427">
        <ele>1020</ele>
        <time>2019-05-30T08:08:43.139Z</time>
      </trkpt>
      <trkpt lat="44.60941" lon="3.27436">
        <ele>1023</ele>
        <time>2019-05-30T08:08:48.138Z</time>
      </trkpt>
      <trkpt lat="44.60938" lon="3.27443">
        <ele>1023</ele>
        <time>2019-05-30T08:08:53.145Z</time>
      </trkpt>
      <trkpt lat="44.60934" lon="3.27451">
        <ele>1023</ele>
        <time>2019-05-30T08:08:58.138Z</time>
      </trkpt>
      <trkpt lat="44.60931" lon="3.27458">
        <ele>1026</ele>
        <time>2019-05-30T08:09:03.140Z</time>
      </trkpt>
      <trkpt lat="44.60926" lon="3.27465">
        <ele>1022</ele>
        <time>2019-05-30T08:09:08.140Z</time>
      </trkpt>
      <trkpt lat="44.60923" lon="3.2747">
        <ele>1022</ele>
        <time>2019-05-30T08:09:12.168Z</time>
      </trkpt>
      <trkpt lat="44.60918" lon="3.27475">
        <ele>1022</ele>
        <time>2019-05-30T08:09:17.139Z</time>
      </trkpt>
      <trkpt lat="44.60914" lon="3.27479">
        <ele>1022</ele>
        <time>2019-05-30T08:09:22.142Z</time>
      </trkpt>
      <trkpt lat="44.6091" lon="3.27487">
        <ele>1025</ele>
        <time>2019-05-30T08:09:27.141Z</time>
      </trkpt>
      <trkpt lat="44.60907" lon="3.27492">
        <ele>1025</ele>
        <time>2019-05-30T08:09:31.164Z</time>
      </trkpt>
      <trkpt lat="44.60903" lon="3.275">
        <ele>1022</ele>
        <time>2019-05-30T08:09:36.130Z</time>
      </trkpt>
      <trkpt lat="44.60899" lon="3.27506">
        <ele>1022</ele>
        <time>2019-05-30T08:09:40.138Z</time>
      </trkpt>
      <trkpt lat="44.60896" lon="3.27511">
        <ele>1022</ele>
        <time>2019-05-30T08:09:44.148Z</time>
      </trkpt>
      <trkpt lat="44.60891" lon="3.27518">
        <ele>1024</ele>
        <time>2019-05-30T08:09:49.138Z</time>
      </trkpt>
      <trkpt lat="44.60886" lon="3.27524">
        <ele>1024</ele>
        <time>2019-05-30T08:09:54.138Z</time>
      </trkpt>
      <trkpt lat="44.6088" lon="3.2753">
        <ele>1024</ele>
        <time>2019-05-30T08:09:59.134Z</time>
      </trkpt>
      <trkpt lat="44.60877" lon="3.27534">
        <ele>1024</ele>
        <time>2019-05-30T08:10:03.144Z</time>
      </trkpt>
      <trkpt lat="44.60872" lon="3.27539">
        <ele>1020</ele>
        <time>2019-05-30T08:10:08.139Z</time>
      </trkpt>
      <trkpt lat="44.60867" lon="3.27545">
        <ele>1023</ele>
        <time>2019-05-30T08:10:13.165Z</time>
      </trkpt>
      <trkpt lat="44.60861" lon="3.27551">
        <ele>1023</ele>
        <time>2019-05-30T08:10:18.134Z</time>
      </trkpt>
      <trkpt lat="44.60856" lon="3.27555">
        <ele>1023</ele>
        <time>2019-05-30T08:10:22.140Z</time>
      </trkpt>
      <trkpt lat="44.60849" lon="3.2756">
        <ele>1023</ele>
        <time>2019-05-30T08:10:27.139Z</time>
      </trkpt>
      <trkpt lat="44.60843" lon="3.27566">
        <ele>1020</ele>
        <time>2019-05-30T08:10:32.140Z</time>
      </trkpt>
      <trkpt lat="44.60839" lon="3.27577">
        <ele>1025</ele>
        <time>2019-05-30T08:11:24.135Z</time>
      </trkpt>
      <trkpt lat="44.60835" lon="3.27579">
        <ele>1025</ele>
        <time>2019-05-30T08:11:29.140Z</time>
      </trkpt>
      <trkpt lat="44.60829" lon="3.27582">
        <ele>1025</ele>
        <time>2019-05-30T08:11:34.139Z</time>
      </trkpt>
      <trkpt lat="44.60825" lon="3.27586">
        <ele>1025</ele>
        <time>2019-05-30T08:11:39.144Z</time>
      </trkpt>
      <trkpt lat="44.60823" lon="3.27591">
        <ele>1025</ele>
        <time>2019-05-30T08:11:43.155Z</time>
      </trkpt>
      <trkpt lat="44.60818" lon="3.27598">
        <ele>1028</ele>
        <time>2019-05-30T08:11:48.139Z</time>
      </trkpt>
      <trkpt lat="44.60813" lon="3.27604">
        <ele>1028</ele>
        <time>2019-05-30T08:11:53.144Z</time>
      </trkpt>
      <trkpt lat="44.60809" lon="3.2761">
        <ele>1028</ele>
        <time>2019-05-30T08:11:58.140Z</time>
      </trkpt>
      <trkpt lat="44.60805" lon="3.27616">
        <ele>1028</ele>
        <time>2019-05-30T08:12:03.139Z</time>
      </trkpt>
      <trkpt lat="44.60801" lon="3.27622">
        <ele>1028</ele>
        <time>2019-05-30T08:12:08.137Z</time>
      </trkpt>
      <trkpt lat="44.60798" lon="3.27628">
        <ele>1033</ele>
        <time>2019-05-30T08:12:13.144Z</time>
      </trkpt>
      <trkpt lat="44.60792" lon="3.27633">
        <ele>1033</ele>
        <time>2019-05-30T08:12:18.138Z</time>
      </trkpt>
      <trkpt lat="44.60786" lon="3.27637">
        <ele>1029</ele>
        <time>2019-05-30T08:12:23.165Z</time>
      </trkpt>
      <trkpt lat="44.60781" lon="3.27642">
        <ele>1029</ele>
        <time>2019-05-30T08:12:28.150Z</time>
      </trkpt>
      <trkpt lat="44.60777" lon="3.27646">
        <ele>1029</ele>
        <time>2019-05-30T08:12:32.142Z</time>
      </trkpt>
      <trkpt lat="44.60773" lon="3.27651">
        <ele>1029</ele>
        <time>2019-05-30T08:12:37.142Z</time>
      </trkpt>
      <trkpt lat="44.60769" lon="3.27655">
        <ele>1033</ele>
        <time>2019-05-30T08:12:41.147Z</time>
      </trkpt>
      <trkpt lat="44.60766" lon="3.27663">
        <ele>1033</ele>
        <time>2019-05-30T08:12:46.140Z</time>
      </trkpt>
      <trkpt lat="44.60763" lon="3.27671">
        <ele>1027</ele>
        <time>2019-05-30T08:12:51.116Z</time>
      </trkpt>
      <trkpt lat="44.60761" lon="3.27676">
        <ele>1027</ele>
        <time>2019-05-30T08:12:55.135Z</time>
      </trkpt>
      <trkpt lat="44.6076" lon="3.27681">
        <ele>1031</ele>
        <time>2019-05-30T08:12:59.144Z</time>
      </trkpt>
      <trkpt lat="44.60759" lon="3.27688">
        <ele>1031</ele>
        <time>2019-05-30T08:13:04.138Z</time>
      </trkpt>
      <trkpt lat="44.60758" lon="3.27693">
        <ele>1031</ele>
        <time>2019-05-30T08:13:08.149Z</time>
      </trkpt>
      <trkpt lat="44.60759" lon="3.27694">
        <ele>1031</ele>
        <time>2019-05-30T08:13:13.132Z</time>
      </trkpt>
      <trkpt lat="44.6076" lon="3.27703">
        <ele>1031</ele>
        <time>2019-05-30T08:13:17.135Z</time>
      </trkpt>
      <trkpt lat="44.60761" lon="3.27711">
        <ele>1035</ele>
        <time>2019-05-30T08:13:22.136Z</time>
      </trkpt>
      <trkpt lat="44.60765" lon="3.27716">
        <ele>1041</ele>
        <time>2019-05-30T08:13:26.165Z</time>
      </trkpt>
      <trkpt lat="44.60769" lon="3.2772">
        <ele>1041</ele>
        <time>2019-05-30T08:13:31.115Z</time>
      </trkpt>
      <trkpt lat="44.60772" lon="3.27724">
        <ele>1041</ele>
        <time>2019-05-30T08:13:35.131Z</time>
      </trkpt>
      <trkpt lat="44.60774" lon="3.27727">
        <ele>1041</ele>
        <time>2019-05-30T08:13:39.151Z</time>
      </trkpt>
      <trkpt lat="44.60777" lon="3.27732">
        <ele>1041</ele>
        <time>2019-05-30T08:13:44.139Z</time>
      </trkpt>
      <trkpt lat="44.6078" lon="3.27735">
        <ele>1041</ele>
        <time>2019-05-30T08:13:49.139Z</time>
      </trkpt>
      <trkpt lat="44.60781" lon="3.27739">
        <ele>1046</ele>
        <time>2019-05-30T08:13:54.147Z</time>
      </trkpt>
      <trkpt lat="44.6078" lon="3.27744">
        <ele>1046</ele>
        <time>2019-05-30T08:13:58.167Z</time>
      </trkpt>
      <trkpt lat="44.60781" lon="3.27751">
        <ele>1046</ele>
        <time>2019-05-30T08:14:03.170Z</time>
      </trkpt>
      <trkpt lat="44.60782" lon="3.27757">
        <ele>1046</ele>
        <time>2019-05-30T08:14:08.138Z</time>
      </trkpt>
      <trkpt lat="44.60783" lon="3.27761">
        <ele>1046</ele>
        <time>2019-05-30T08:14:12.138Z</time>
      </trkpt>
      <trkpt lat="44.60784" lon="3.27767">
        <ele>1051</ele>
        <time>2019-05-30T08:14:17.141Z</time>
      </trkpt>
      <trkpt lat="44.60783" lon="3.27776">
        <ele>1051</ele>
        <time>2019-05-30T08:14:22.141Z</time>
      </trkpt>
      <trkpt lat="44.60783" lon="3.27782">
        <ele>1051</ele>
        <time>2019-05-30T08:14:26.147Z</time>
      </trkpt>
      <trkpt lat="44.60783" lon="3.27788">
        <ele>1051</ele>
        <time>2019-05-30T08:14:31.131Z</time>
      </trkpt>
      <trkpt lat="44.60782" lon="3.27793">
        <ele>1055</ele>
        <time>2019-05-30T08:14:35.134Z</time>
      </trkpt>
      <trkpt lat="44.6078" lon="3.27798">
        <ele>1055</ele>
        <time>2019-05-30T08:14:40.132Z</time>
      </trkpt>
      <trkpt lat="44.60779" lon="3.27802">
        <ele>1055</ele>
        <time>2019-05-30T08:14:44.145Z</time>
      </trkpt>
      <trkpt lat="44.60777" lon="3.27808">
        <ele>1055</ele>
        <time>2019-05-30T08:14:49.141Z</time>
      </trkpt>
      <trkpt lat="44.60774" lon="3.27813">
        <ele>1055</ele>
        <time>2019-05-30T08:14:54.168Z</time>
      </trkpt>
      <trkpt lat="44.60772" lon="3.27819">
        <ele>1055</ele>
        <time>2019-05-30T08:14:59.138Z</time>
      </trkpt>
      <trkpt lat="44.60768" lon="3.27825">
        <ele>1059</ele>
        <time>2019-05-30T08:15:04.142Z</time>
      </trkpt>
      <trkpt lat="44.60765" lon="3.27832">
        <ele>1059</ele>
        <time>2019-05-30T08:15:09.140Z</time>
      </trkpt>
      <trkpt lat="44.60763" lon="3.27838">
        <ele>1055</ele>
        <time>2019-05-30T08:15:13.146Z</time>
      </trkpt>
      <trkpt lat="44.6076" lon="3.27847">
        <ele>1055</ele>
        <time>2019-05-30T08:15:18.133Z</time>
      </trkpt>
      <trkpt lat="44.60758" lon="3.27853">
        <ele>1059</ele>
        <time>2019-05-30T08:15:23.140Z</time>
      </trkpt>
      <trkpt lat="44.60756" lon="3.27859">
        <ele>1059</ele>
        <time>2019-05-30T08:15:28.154Z</time>
      </trkpt>
      <trkpt lat="44.60757" lon="3.27865">
        <ele>1059</ele>
        <time>2019-05-30T08:15:33.151Z</time>
      </trkpt>
      <trkpt lat="44.60755" lon="3.27872">
        <ele>1059</ele>
        <time>2019-05-30T08:15:38.140Z</time>
      </trkpt>
      <trkpt lat="44.60752" lon="3.2788">
        <ele>1063</ele>
        <time>2019-05-30T08:15:43.140Z</time>
      </trkpt>
      <trkpt lat="44.60751" lon="3.27887">
        <ele>1063</ele>
        <time>2019-05-30T08:15:47.173Z</time>
      </trkpt>
      <trkpt lat="44.60749" lon="3.27894">
        <ele>1063</ele>
        <time>2019-05-30T08:15:52.137Z</time>
      </trkpt>
      <trkpt lat="44.60748" lon="3.27895">
        <ele>1063</ele>
        <time>2019-05-30T08:15:57.145Z</time>
      </trkpt>
      <trkpt lat="44.60747" lon="3.27901">
        <ele>1063</ele>
        <time>2019-05-30T08:16:02.133Z</time>
      </trkpt>
      <trkpt lat="44.60746" lon="3.27908">
        <ele>1066</ele>
        <time>2019-05-30T08:16:07.133Z</time>
      </trkpt>
      <trkpt lat="44.60744" lon="3.27913">
        <ele>1066</ele>
        <time>2019-05-30T08:16:12.136Z</time>
      </trkpt>
      <trkpt lat="44.60743" lon="3.27919">
        <ele>1066</ele>
        <time>2019-05-30T08:16:16.140Z</time>
      </trkpt>
      <trkpt lat="44.60741" lon="3.27926">
        <ele>1066</ele>
        <time>2019-05-30T08:16:21.137Z</time>
      </trkpt>
      <trkpt lat="44.6074" lon="3.27932">
        <ele>1070</ele>
        <time>2019-05-30T08:16:25.133Z</time>
      </trkpt>
      <trkpt lat="44.60739" lon="3.2794">
        <ele>1070</ele>
        <time>2019-05-30T08:16:30.135Z</time>
      </trkpt>
      <trkpt lat="44.60739" lon="3.2795">
        <ele>1070</ele>
        <time>2019-05-30T08:16:35.139Z</time>
      </trkpt>
      <trkpt lat="44.60738" lon="3.27955">
        <ele>1070</ele>
        <time>2019-05-30T08:16:39.144Z</time>
      </trkpt>
      <trkpt lat="44.60736" lon="3.27962">
        <ele>1066</ele>
        <time>2019-05-30T08:16:44.142Z</time>
      </trkpt>
      <trkpt lat="44.60734" lon="3.2797">
        <ele>1066</ele>
        <time>2019-05-30T08:16:49.140Z</time>
      </trkpt>
      <trkpt lat="44.60733" lon="3.27979">
        <ele>1066</ele>
        <time>2019-05-30T08:16:54.141Z</time>
      </trkpt>
      <trkpt lat="44.6073" lon="3.27988">
        <ele>1070</ele>
        <time>2019-05-30T08:16:59.135Z</time>
      </trkpt>
      <trkpt lat="44.60728" lon="3.27996">
        <ele>1070</ele>
        <time>2019-05-30T08:17:04.138Z</time>
      </trkpt>
      <trkpt lat="44.60726" lon="3.28005">
        <ele>1070</ele>
        <time>2019-05-30T08:17:09.154Z</time>
      </trkpt>
      <trkpt lat="44.60724" lon="3.28014">
        <ele>1073</ele>
        <time>2019-05-30T08:17:14.138Z</time>
      </trkpt>
      <trkpt lat="44.60723" lon="3.28021">
        <ele>1073</ele>
        <time>2019-05-30T08:17:19.139Z</time>
      </trkpt>
      <trkpt lat="44.60722" lon="3.2803">
        <ele>1073</ele>
        <time>2019-05-30T08:17:24.141Z</time>
      </trkpt>
      <trkpt lat="44.6072" lon="3.28038">
        <ele>1073</ele>
        <time>2019-05-30T08:17:29.140Z</time>
      </trkpt>
      <trkpt lat="44.60721" lon="3.28049">
        <ele>1079</ele>
        <time>2019-05-30T08:17:34.132Z</time>
      </trkpt>
      <trkpt lat="44.6072" lon="3.28057">
        <ele>1079</ele>
        <time>2019-05-30T08:17:38.144Z</time>
      </trkpt>
      <trkpt lat="44.60719" lon="3.28064">
        <ele>1079</ele>
        <time>2019-05-30T08:17:42.165Z</time>
      </trkpt>
      <trkpt lat="44.60719" lon="3.28072">
        <ele>1083</ele>
        <time>2019-05-30T08:17:47.136Z</time>
      </trkpt>
      <trkpt lat="44.60721" lon="3.28078">
        <ele>1083</ele>
        <time>2019-05-30T08:17:52.115Z</time>
      </trkpt>
      <trkpt lat="44.60721" lon="3.28084">
        <ele>1083</ele>
        <time>2019-05-30T08:17:56.148Z</time>
      </trkpt>
      <trkpt lat="44.6072" lon="3.28091">
        <ele>1083</ele>
        <time>2019-05-30T08:18:01.133Z</time>
      </trkpt>
      <trkpt lat="44.6072" lon="3.28096">
        <ele>1083</ele>
        <time>2019-05-30T08:18:05.137Z</time>
      </trkpt>
      <trkpt lat="44.60719" lon="3.28102">
        <ele>1087</ele>
        <time>2019-05-30T08:18:10.171Z</time>
      </trkpt>
      <trkpt lat="44.60719" lon="3.28109">
        <ele>1087</ele>
        <time>2019-05-30T08:18:15.153Z</time>
      </trkpt>
      <trkpt lat="44.60719" lon="3.28115">
        <ele>1087</ele>
        <time>2019-05-30T08:18:20.138Z</time>
      </trkpt>
      <trkpt lat="44.60718" lon="3.28122">
        <ele>1087</ele>
        <time>2019-05-30T08:18:25.138Z</time>
      </trkpt>
      <trkpt lat="44.60718" lon="3.2813">
        <ele>1090</ele>
        <time>2019-05-30T08:18:30.140Z</time>
      </trkpt>
      <trkpt lat="44.60719" lon="3.28136">
        <ele>1090</ele>
        <time>2019-05-30T08:18:35.150Z</time>
      </trkpt>
      <trkpt lat="44.60718" lon="3.28142">
        <ele>1090</ele>
        <time>2019-05-30T08:18:40.142Z</time>
      </trkpt>
      <trkpt lat="44.60717" lon="3.28148">
        <ele>1090</ele>
        <time>2019-05-30T08:18:45.139Z</time>
      </trkpt>
      <trkpt lat="44.60716" lon="3.28152">
        <ele>1090</ele>
        <time>2019-05-30T08:18:50.135Z</time>
      </trkpt>
      <trkpt lat="44.60715" lon="3.28158">
        <ele>1093</ele>
        <time>2019-05-30T08:18:54.144Z</time>
      </trkpt>
      <trkpt lat="44.60713" lon="3.28163">
        <ele>1093</ele>
        <time>2019-05-30T08:18:58.177Z</time>
      </trkpt>
      <trkpt lat="44.6071" lon="3.28168">
        <ele>1093</ele>
        <time>2019-05-30T08:19:03.176Z</time>
      </trkpt>
      <trkpt lat="44.60707" lon="3.28173">
        <ele>1086</ele>
        <time>2019-05-30T08:19:08.165Z</time>
      </trkpt>
      <trkpt lat="44.60704" lon="3.28178">
        <ele>1086</ele>
        <time>2019-05-30T08:19:13.141Z</time>
      </trkpt>
      <trkpt lat="44.60701" lon="3.28184">
        <ele>1090</ele>
        <time>2019-05-30T08:19:18.134Z</time>
      </trkpt>
      <trkpt lat="44.60698" lon="3.28188">
        <ele>1090</ele>
        <time>2019-05-30T08:19:22.166Z</time>
      </trkpt>
      <trkpt lat="44.60695" lon="3.28197">
        <ele>1090</ele>
        <time>2019-05-30T08:19:27.133Z</time>
      </trkpt>
      <trkpt lat="44.60696" lon="3.28206">
        <ele>1090</ele>
        <time>2019-05-30T08:19:31.139Z</time>
      </trkpt>
      <trkpt lat="44.60696" lon="3.28214">
        <ele>1092</ele>
        <time>2019-05-30T08:19:35.164Z</time>
      </trkpt>
      <trkpt lat="44.60697" lon="3.28224">
        <ele>1092</ele>
        <time>2019-05-30T08:19:40.166Z</time>
      </trkpt>
      <trkpt lat="44.60699" lon="3.28232">
        <ele>1092</ele>
        <time>2019-05-30T08:19:45.141Z</time>
      </trkpt>
      <trkpt lat="44.60701" lon="3.28238">
        <ele>1095</ele>
        <time>2019-05-30T08:19:49.164Z</time>
      </trkpt>
      <trkpt lat="44.60703" lon="3.28242">
        <ele>1095</ele>
        <time>2019-05-30T08:19:54.136Z</time>
      </trkpt>
      <trkpt lat="44.60706" lon="3.28246">
        <ele>1095</ele>
        <time>2019-05-30T08:19:58.152Z</time>
      </trkpt>
      <trkpt lat="44.60708" lon="3.28247">
        <ele>1099</ele>
        <time>2019-05-30T08:20:03.154Z</time>
      </trkpt>
      <trkpt lat="44.60714" lon="3.28249">
        <ele>1099</ele>
        <time>2019-05-30T08:20:18.133Z</time>
      </trkpt>
      <trkpt lat="44.60718" lon="3.28249">
        <ele>1099</ele>
        <time>2019-05-30T08:20:23.132Z</time>
      </trkpt>
      <trkpt lat="44.60718" lon="3.2825">
        <ele>1099</ele>
        <time>2019-05-30T08:20:27.155Z</time>
      </trkpt>
      <trkpt lat="44.6072" lon="3.28255">
        <ele>1099</ele>
        <time>2019-05-30T08:20:32.134Z</time>
      </trkpt>
      <trkpt lat="44.60721" lon="3.28261">
        <ele>1099</ele>
        <time>2019-05-30T08:20:37.135Z</time>
      </trkpt>
      <trkpt lat="44.60722" lon="3.28268">
        <ele>1101</ele>
        <time>2019-05-30T08:20:41.157Z</time>
      </trkpt>
      <trkpt lat="44.60724" lon="3.28274">
        <ele>1101</ele>
        <time>2019-05-30T08:20:46.132Z</time>
      </trkpt>
      <trkpt lat="44.60725" lon="3.28278">
        <ele>1101</ele>
        <time>2019-05-30T08:20:50.165Z</time>
      </trkpt>
      <trkpt lat="44.60727" lon="3.28282">
        <ele>1101</ele>
        <time>2019-05-30T08:20:54.162Z</time>
      </trkpt>
      <trkpt lat="44.60731" lon="3.28286">
        <ele>1101</ele>
        <time>2019-05-30T08:20:59.165Z</time>
      </trkpt>
      <trkpt lat="44.60734" lon="3.28292">
        <ele>1100</ele>
        <time>2019-05-30T08:21:28.130Z</time>
      </trkpt>
      <trkpt lat="44.60732" lon="3.28297">
        <ele>1100</ele>
        <time>2019-05-30T08:21:33.119Z</time>
      </trkpt>
      <trkpt lat="44.6073" lon="3.28301">
        <ele>1100</ele>
        <time>2019-05-30T08:21:37.132Z</time>
      </trkpt>
      <trkpt lat="44.60726" lon="3.28309">
        <ele>1100</ele>
        <time>2019-05-30T08:21:42.131Z</time>
      </trkpt>
      <trkpt lat="44.60723" lon="3.28317">
        <ele>1100</ele>
        <time>2019-05-30T08:21:47.133Z</time>
      </trkpt>
      <trkpt lat="44.60719" lon="3.28324">
        <ele>1099</ele>
        <time>2019-05-30T08:21:52.136Z</time>
      </trkpt>
      <trkpt lat="44.60715" lon="3.28332">
        <ele>1099</ele>
        <time>2019-05-30T08:21:57.129Z</time>
      </trkpt>
      <trkpt lat="44.6071" lon="3.28336">
        <ele>1099</ele>
        <time>2019-05-30T08:22:01.154Z</time>
      </trkpt>
      <trkpt lat="44.60707" lon="3.2834">
        <ele>1095</ele>
        <time>2019-05-30T08:22:06.123Z</time>
      </trkpt>
      <trkpt lat="44.60705" lon="3.28335">
        <ele>1095</ele>
        <time>2019-05-30T08:22:10.131Z</time>
      </trkpt>
      <trkpt lat="44.60704" lon="3.2833">
        <ele>1095</ele>
        <time>2019-05-30T08:22:15.132Z</time>
      </trkpt>
      <trkpt lat="44.60701" lon="3.28327">
        <ele>1095</ele>
        <time>2019-05-30T08:22:19.167Z</time>
      </trkpt>
      <trkpt lat="44.60696" lon="3.28324">
        <ele>1095</ele>
        <time>2019-05-30T08:22:24.135Z</time>
      </trkpt>
      <trkpt lat="44.60694" lon="3.2832">
        <ele>1095</ele>
        <time>2019-05-30T08:22:28.160Z</time>
      </trkpt>
      <trkpt lat="44.60693" lon="3.28318">
        <ele>1096</ele>
        <time>2019-05-30T08:22:33.165Z</time>
      </trkpt>
      <trkpt lat="44.60693" lon="3.28315">
        <ele>1096</ele>
        <time>2019-05-30T08:22:38.132Z</time>
      </trkpt>
      <trkpt lat="44.60689" lon="3.28309">
        <ele>1096</ele>
        <time>2019-05-30T08:22:43.133Z</time>
      </trkpt>
      <trkpt lat="44.60686" lon="3.28308">
        <ele>1096</ele>
        <time>2019-05-30T08:22:48.157Z</time>
      </trkpt>
      <trkpt lat="44.60684" lon="3.28308">
        <ele>1096</ele>
        <time>2019-05-30T08:23:02.170Z</time>
      </trkpt>
      <trkpt lat="44.60675" lon="3.28316">
        <ele>1090</ele>
        <time>2019-05-30T08:23:07.133Z</time>
      </trkpt>
      <trkpt lat="44.6067" lon="3.28323">
        <ele>1090</ele>
        <time>2019-05-30T08:23:12.127Z</time>
      </trkpt>
      <trkpt lat="44.60666" lon="3.28327">
        <ele>1090</ele>
        <time>2019-05-30T08:23:17.160Z</time>
      </trkpt>
      <trkpt lat="44.60662" lon="3.28332">
        <ele>1090</ele>
        <time>2019-05-30T08:23:22.130Z</time>
      </trkpt>
      <trkpt lat="44.60659" lon="3.28337">
        <ele>1090</ele>
        <time>2019-05-30T08:23:27.131Z</time>
      </trkpt>
      <trkpt lat="44.60655" lon="3.28339">
        <ele>1090</ele>
        <time>2019-05-30T08:23:32.136Z</time>
      </trkpt>
      <trkpt lat="44.60651" lon="3.2834">
        <ele>1087</ele>
        <time>2019-05-30T08:23:36.159Z</time>
      </trkpt>
      <trkpt lat="44.60647" lon="3.28342">
        <ele>1087</ele>
        <time>2019-05-30T08:23:41.162Z</time>
      </trkpt>
      <trkpt lat="44.60644" lon="3.28343">
        <ele>1087</ele>
        <time>2019-05-30T08:23:46.163Z</time>
      </trkpt>
      <trkpt lat="44.6064" lon="3.28341">
        <ele>1087</ele>
        <time>2019-05-30T08:23:51.133Z</time>
      </trkpt>
      <trkpt lat="44.60638" lon="3.28338">
        <ele>1087</ele>
        <time>2019-05-30T08:23:56.142Z</time>
      </trkpt>
      <trkpt lat="44.60635" lon="3.28335">
        <ele>1087</ele>
        <time>2019-05-30T08:24:01.134Z</time>
      </trkpt>
      <trkpt lat="44.60632" lon="3.28335">
        <ele>1087</ele>
        <time>2019-05-30T08:24:06.132Z</time>
      </trkpt>
      <trkpt lat="44.60628" lon="3.28334">
        <ele>1087</ele>
        <time>2019-05-30T08:24:16.130Z</time>
      </trkpt>
      <trkpt lat="44.60622" lon="3.28334">
        <ele>1084</ele>
        <time>2019-05-30T08:24:21.132Z</time>
      </trkpt>
      <trkpt lat="44.60619" lon="3.28336">
        <ele>1084</ele>
        <time>2019-05-30T08:24:25.159Z</time>
      </trkpt>
      <trkpt lat="44.60614" lon="3.28338">
        <ele>1084</ele>
        <time>2019-05-30T08:24:30.163Z</time>
      </trkpt>
      <trkpt lat="44.60611" lon="3.28345">
        <ele>1084</ele>
        <time>2019-05-30T08:24:35.134Z</time>
      </trkpt>
      <trkpt lat="44.60611" lon="3.28351">
        <ele>1084</ele>
        <time>2019-05-30T08:24:39.162Z</time>
      </trkpt>
      <trkpt lat="44.6061" lon="3.28357">
        <ele>1084</ele>
        <time>2019-05-30T08:24:44.162Z</time>
      </trkpt>
      <trkpt lat="44.6061" lon="3.28364">
        <ele>1084</ele>
        <time>2019-05-30T08:24:49.154Z</time>
      </trkpt>
      <trkpt lat="44.60609" lon="3.28368">
        <ele>1084</ele>
        <time>2019-05-30T08:24:53.158Z</time>
      </trkpt>
      <trkpt lat="44.60609" lon="3.28371">
        <ele>1084</ele>
        <time>2019-05-30T08:26:32.149Z</time>
      </trkpt>
      <trkpt lat="44.6061" lon="3.28367">
        <ele>1084</ele>
        <time>2019-05-30T08:26:36.119Z</time>
      </trkpt>
      <trkpt lat="44.60611" lon="3.28361">
        <ele>1084</ele>
        <time>2019-05-30T08:26:41.112Z</time>
      </trkpt>
      <trkpt lat="44.60613" lon="3.28354">
        <ele>1084</ele>
        <time>2019-05-30T08:26:45.137Z</time>
      </trkpt>
      <trkpt lat="44.60614" lon="3.28347">
        <ele>1084</ele>
        <time>2019-05-30T08:26:49.141Z</time>
      </trkpt>
      <trkpt lat="44.60616" lon="3.28342">
        <ele>1084</ele>
        <time>2019-05-30T08:26:54.136Z</time>
      </trkpt>
      <trkpt lat="44.6062" lon="3.2834">
        <ele>1084</ele>
        <time>2019-05-30T08:26:58.144Z</time>
      </trkpt>
      <trkpt lat="44.60623" lon="3.28335">
        <ele>1084</ele>
        <time>2019-05-30T08:27:03.138Z</time>
      </trkpt>
      <trkpt lat="44.60627" lon="3.28334">
        <ele>1087</ele>
        <time>2019-05-30T08:27:08.125Z</time>
      </trkpt>
      <trkpt lat="44.60631" lon="3.28332">
        <ele>1087</ele>
        <time>2019-05-30T08:27:12.138Z</time>
      </trkpt>
      <trkpt lat="44.60632" lon="3.28329">
        <ele>1087</ele>
        <time>2019-05-30T08:27:16.159Z</time>
      </trkpt>
      <trkpt lat="44.60635" lon="3.28324">
        <ele>1087</ele>
        <time>2019-05-30T08:27:21.116Z</time>
      </trkpt>
      <trkpt lat="44.60634" lon="3.2832">
        <ele>1087</ele>
        <time>2019-05-30T08:27:25.157Z</time>
      </trkpt>
      <trkpt lat="44.60636" lon="3.28311">
        <ele>1087</ele>
        <time>2019-05-30T08:27:45.113Z</time>
      </trkpt>
      <trkpt lat="44.60639" lon="3.28317">
        <ele>1087</ele>
        <time>2019-05-30T08:27:49.162Z</time>
      </trkpt>
      <trkpt lat="44.60641" lon="3.28324">
        <ele>1087</ele>
        <time>2019-05-30T08:27:54.158Z</time>
      </trkpt>
      <trkpt lat="44.6064" lon="3.28332">
        <ele>1087</ele>
        <time>2019-05-30T08:27:59.133Z</time>
      </trkpt>
      <trkpt lat="44.6064" lon="3.28338">
        <ele>1087</ele>
        <time>2019-05-30T08:28:03.162Z</time>
      </trkpt>
      <trkpt lat="44.60642" lon="3.28346">
        <ele>1087</ele>
        <time>2019-05-30T08:28:08.163Z</time>
      </trkpt>
      <trkpt lat="44.60645" lon="3.28353">
        <ele>1088</ele>
        <time>2019-05-30T08:28:13.139Z</time>
      </trkpt>
      <trkpt lat="44.60645" lon="3.28359">
        <ele>1088</ele>
        <time>2019-05-30T08:28:18.132Z</time>
      </trkpt>
      <trkpt lat="44.60646" lon="3.28364">
        <ele>1088</ele>
        <time>2019-05-30T08:28:22.135Z</time>
      </trkpt>
      <trkpt lat="44.60648" lon="3.28369">
        <ele>1088</ele>
        <time>2019-05-30T08:28:27.140Z</time>
      </trkpt>
      <trkpt lat="44.60653" lon="3.2837">
        <ele>1091</ele>
        <time>2019-05-30T08:28:32.140Z</time>
      </trkpt>
      <trkpt lat="44.60657" lon="3.28367">
        <ele>1091</ele>
        <time>2019-05-30T08:28:36.151Z</time>
      </trkpt>
      <trkpt lat="44.60663" lon="3.28363">
        <ele>1091</ele>
        <time>2019-05-30T08:28:41.127Z</time>
      </trkpt>
      <trkpt lat="44.60664" lon="3.28364">
        <ele>1091</ele>
        <time>2019-05-30T08:28:46.119Z</time>
      </trkpt>
      <trkpt lat="44.60665" lon="3.28366">
        <ele>1091</ele>
        <time>2019-05-30T08:28:50.155Z</time>
      </trkpt>
      <trkpt lat="44.60665" lon="3.28374">
        <ele>1091</ele>
        <time>2019-05-30T08:28:55.162Z</time>
      </trkpt>
      <trkpt lat="44.60665" lon="3.2838">
        <ele>1092</ele>
        <time>2019-05-30T08:29:00.145Z</time>
      </trkpt>
      <trkpt lat="44.60661" lon="3.28384">
        <ele>1092</ele>
        <time>2019-05-30T08:29:05.139Z</time>
      </trkpt>
      <trkpt lat="44.60657" lon="3.2839">
        <ele>1092</ele>
        <time>2019-05-30T08:29:10.134Z</time>
      </trkpt>
      <trkpt lat="44.60652" lon="3.28396">
        <ele>1087</ele>
        <time>2019-05-30T08:29:15.138Z</time>
      </trkpt>
      <trkpt lat="44.60649" lon="3.28401">
        <ele>1087</ele>
        <time>2019-05-30T08:29:20.134Z</time>
      </trkpt>
      <trkpt lat="44.60646" lon="3.28406">
        <ele>1085</ele>
        <time>2019-05-30T08:29:25.135Z</time>
      </trkpt>
      <trkpt lat="44.60644" lon="3.28409">
        <ele>1085</ele>
        <time>2019-05-30T08:29:29.164Z</time>
      </trkpt>
      <trkpt lat="44.60639" lon="3.28412">
        <ele>1085</ele>
        <time>2019-05-30T08:29:34.171Z</time>
      </trkpt>
      <trkpt lat="44.60635" lon="3.28415">
        <ele>1085</ele>
        <time>2019-05-30T08:29:39.142Z</time>
      </trkpt>
      <trkpt lat="44.60631" lon="3.28416">
        <ele>1085</ele>
        <time>2019-05-30T08:29:44.138Z</time>
      </trkpt>
      <trkpt lat="44.60624" lon="3.28414">
        <ele>1083</ele>
        <time>2019-05-30T08:29:49.116Z</time>
      </trkpt>
      <trkpt lat="44.60619" lon="3.28416">
        <ele>1083</ele>
        <time>2019-05-30T08:29:53.129Z</time>
      </trkpt>
      <trkpt lat="44.60614" lon="3.28415">
        <ele>1083</ele>
        <time>2019-05-30T08:29:58.138Z</time>
      </trkpt>
      <trkpt lat="44.60608" lon="3.28415">
        <ele>1083</ele>
        <time>2019-05-30T08:30:03.111Z</time>
      </trkpt>
      <trkpt lat="44.60604" lon="3.28419">
        <ele>1083</ele>
        <time>2019-05-30T08:30:07.130Z</time>
      </trkpt>
      <trkpt lat="44.60601" lon="3.28428">
        <ele>1083</ele>
        <time>2019-05-30T08:30:12.127Z</time>
      </trkpt>
      <trkpt lat="44.60599" lon="3.28435">
        <ele>1080</ele>
        <time>2019-05-30T08:30:16.135Z</time>
      </trkpt>
      <trkpt lat="44.60598" lon="3.28443">
        <ele>1080</ele>
        <time>2019-05-30T08:30:21.139Z</time>
      </trkpt>
      <trkpt lat="44.60596" lon="3.28449">
        <ele>1078</ele>
        <time>2019-05-30T08:30:26.169Z</time>
      </trkpt>
      <trkpt lat="44.60597" lon="3.28457">
        <ele>1078</ele>
        <time>2019-05-30T08:30:31.116Z</time>
      </trkpt>
      <trkpt lat="44.60599" lon="3.28462">
        <ele>1077</ele>
        <time>2019-05-30T08:30:35.144Z</time>
      </trkpt>
      <trkpt lat="44.60603" lon="3.28469">
        <ele>1077</ele>
        <time>2019-05-30T08:30:40.140Z</time>
      </trkpt>
      <trkpt lat="44.60605" lon="3.28473">
        <ele>1077</ele>
        <time>2019-05-30T08:30:44.163Z</time>
      </trkpt>
      <trkpt lat="44.60608" lon="3.28477">
        <ele>1077</ele>
        <time>2019-05-30T08:30:49.145Z</time>
      </trkpt>
      <trkpt lat="44.60611" lon="3.28483">
        <ele>1077</ele>
        <time>2019-05-30T08:30:53.138Z</time>
      </trkpt>
      <trkpt lat="44.60612" lon="3.28489">
        <ele>1074</ele>
        <time>2019-05-30T08:31:13.132Z</time>
      </trkpt>
      <trkpt lat="44.60607" lon="3.28484">
        <ele>1077</ele>
        <time>2019-05-30T08:31:18.156Z</time>
      </trkpt>
      <trkpt lat="44.60602" lon="3.2848">
        <ele>1077</ele>
        <time>2019-05-30T08:31:23.129Z</time>
      </trkpt>
      <trkpt lat="44.60596" lon="3.28477">
        <ele>1075</ele>
        <time>2019-05-30T08:31:28.160Z</time>
      </trkpt>
      <trkpt lat="44.60594" lon="3.28477">
        <ele>1075</ele>
        <time>2019-05-30T08:31:33.126Z</time>
      </trkpt>
      <trkpt lat="44.60586" lon="3.28476">
        <ele>1075</ele>
        <time>2019-05-30T08:31:38.155Z</time>
      </trkpt>
      <trkpt lat="44.60584" lon="3.28476">
        <ele>1075</ele>
        <time>2019-05-30T08:31:43.129Z</time>
      </trkpt>
      <trkpt lat="44.60584" lon="3.28476">
        <ele>1075</ele>
        <time>2019-05-30T08:32:03.112Z</time>
      </trkpt>
      <trkpt lat="44.6058" lon="3.28474">
        <ele>1075</ele>
        <time>2019-05-30T08:32:08.114Z</time>
      </trkpt>
      <trkpt lat="44.60576" lon="3.28474">
        <ele>1075</ele>
        <time>2019-05-30T08:32:12.134Z</time>
      </trkpt>
      <trkpt lat="44.6057" lon="3.28472">
        <ele>1075</ele>
        <time>2019-05-30T08:32:17.146Z</time>
      </trkpt>
      <trkpt lat="44.60566" lon="3.28471">
        <ele>1071</ele>
        <time>2019-05-30T08:32:22.135Z</time>
      </trkpt>
      <trkpt lat="44.6056" lon="3.28471">
        <ele>1071</ele>
        <time>2019-05-30T08:32:27.138Z</time>
      </trkpt>
      <trkpt lat="44.60555" lon="3.28472">
        <ele>1071</ele>
        <time>2019-05-30T08:32:32.136Z</time>
      </trkpt>
      <trkpt lat="44.60554" lon="3.28471">
        <ele>1071</ele>
        <time>2019-05-30T08:32:36.170Z</time>
      </trkpt>
      <trkpt lat="44.60548" lon="3.2847">
        <ele>1071</ele>
        <time>2019-05-30T08:32:41.139Z</time>
      </trkpt>
      <trkpt lat="44.60543" lon="3.2847">
        <ele>1071</ele>
        <time>2019-05-30T08:32:46.164Z</time>
      </trkpt>
      <trkpt lat="44.60537" lon="3.28469">
        <ele>1067</ele>
        <time>2019-05-30T08:32:51.144Z</time>
      </trkpt>
      <trkpt lat="44.60532" lon="3.28469">
        <ele>1067</ele>
        <time>2019-05-30T08:32:56.138Z</time>
      </trkpt>
      <trkpt lat="44.60528" lon="3.28469">
        <ele>1067</ele>
        <time>2019-05-30T08:33:01.137Z</time>
      </trkpt>
      <trkpt lat="44.60528" lon="3.28476">
        <ele>1067</ele>
        <time>2019-05-30T08:33:06.137Z</time>
      </trkpt>
      <trkpt lat="44.60527" lon="3.28486">
        <ele>1067</ele>
        <time>2019-05-30T08:33:11.130Z</time>
      </trkpt>
      <trkpt lat="44.60526" lon="3.28494">
        <ele>1064</ele>
        <time>2019-05-30T08:33:16.129Z</time>
      </trkpt>
      <trkpt lat="44.60525" lon="3.285">
        <ele>1064</ele>
        <time>2019-05-30T08:33:21.175Z</time>
      </trkpt>
      <trkpt lat="44.60524" lon="3.28504">
        <ele>1064</ele>
        <time>2019-05-30T08:33:26.141Z</time>
      </trkpt>
      <trkpt lat="44.60524" lon="3.28505">
        <ele>1064</ele>
        <time>2019-05-30T08:34:59.131Z</time>
      </trkpt>
      <trkpt lat="44.60523" lon="3.2851">
        <ele>1064</ele>
        <time>2019-05-30T08:35:04.140Z</time>
      </trkpt>
      <trkpt lat="44.60526" lon="3.28514">
        <ele>1059</ele>
        <time>2019-05-30T08:41:02.137Z</time>
      </trkpt>
      <trkpt lat="44.60524" lon="3.28517">
        <ele>1059</ele>
        <time>2019-05-30T08:41:06.139Z</time>
      </trkpt>
      <trkpt lat="44.60522" lon="3.28519">
        <ele>1059</ele>
        <time>2019-05-30T08:41:11.170Z</time>
      </trkpt>
      <trkpt lat="44.60521" lon="3.28525">
        <ele>1059</ele>
        <time>2019-05-30T08:41:54.148Z</time>
      </trkpt>
      <trkpt lat="44.6052" lon="3.28527">
        <ele>1059</ele>
        <time>2019-05-30T08:41:59.118Z</time>
      </trkpt>
      <trkpt lat="44.60517" lon="3.2853">
        <ele>1059</ele>
        <time>2019-05-30T08:44:05.137Z</time>
      </trkpt>
      <trkpt lat="44.60519" lon="3.28527">
        <ele>1059</ele>
        <time>2019-05-30T08:44:09.139Z</time>
      </trkpt>
      <trkpt lat="44.6052" lon="3.28523">
        <ele>1059</ele>
        <time>2019-05-30T08:44:14.144Z</time>
      </trkpt>
      <trkpt lat="44.60521" lon="3.28519">
        <ele>1059</ele>
        <time>2019-05-30T08:44:19.138Z</time>
      </trkpt>
      <trkpt lat="44.60523" lon="3.28514">
        <ele>1059</ele>
        <time>2019-05-30T08:44:23.146Z</time>
      </trkpt>
      <trkpt lat="44.60525" lon="3.28505">
        <ele>1064</ele>
        <time>2019-05-30T08:44:32.140Z</time>
      </trkpt>
      <trkpt lat="44.60524" lon="3.28501">
        <ele>1064</ele>
        <time>2019-05-30T08:44:37.137Z</time>
      </trkpt>
      <trkpt lat="44.60523" lon="3.28501">
        <ele>1064</ele>
        <time>2019-05-30T08:44:41.170Z</time>
      </trkpt>
      <trkpt lat="44.60522" lon="3.285">
        <ele>1064</ele>
        <time>2019-05-30T08:44:46.135Z</time>
      </trkpt>
      <trkpt lat="44.60519" lon="3.28497">
        <ele>1064</ele>
        <time>2019-05-30T08:44:51.136Z</time>
      </trkpt>
      <trkpt lat="44.60516" lon="3.28493">
        <ele>1064</ele>
        <time>2019-05-30T08:45:06.155Z</time>
      </trkpt>
      <trkpt lat="44.6051" lon="3.28491">
        <ele>1060</ele>
        <time>2019-05-30T08:45:11.136Z</time>
      </trkpt>
      <trkpt lat="44.60505" lon="3.28491">
        <ele>1060</ele>
        <time>2019-05-30T08:45:15.134Z</time>
      </trkpt>
      <trkpt lat="44.60502" lon="3.28492">
        <ele>1060</ele>
        <time>2019-05-30T08:45:19.143Z</time>
      </trkpt>
      <trkpt lat="44.605" lon="3.28493">
        <ele>1060</ele>
        <time>2019-05-30T08:45:24.147Z</time>
      </trkpt>
      <trkpt lat="44.60497" lon="3.28495">
        <ele>1060</ele>
        <time>2019-05-30T08:45:29.146Z</time>
      </trkpt>
      <trkpt lat="44.60494" lon="3.28497">
        <ele>1060</ele>
        <time>2019-05-30T08:45:34.118Z</time>
      </trkpt>
      <trkpt lat="44.60492" lon="3.28498">
        <ele>1060</ele>
        <time>2019-05-30T08:45:38.140Z</time>
      </trkpt>
      <trkpt lat="44.60487" lon="3.28498">
        <ele>1060</ele>
        <time>2019-05-30T08:45:43.137Z</time>
      </trkpt>
      <trkpt lat="44.60484" lon="3.28498">
        <ele>1057</ele>
        <time>2019-05-30T08:45:47.174Z</time>
      </trkpt>
      <trkpt lat="44.6048" lon="3.28495">
        <ele>1057</ele>
        <time>2019-05-30T08:45:52.144Z</time>
      </trkpt>
      <trkpt lat="44.60476" lon="3.28493">
        <ele>1057</ele>
        <time>2019-05-30T08:45:56.164Z</time>
      </trkpt>
      <trkpt lat="44.60472" lon="3.2849">
        <ele>1057</ele>
        <time>2019-05-30T08:46:01.143Z</time>
      </trkpt>
      <trkpt lat="44.6047" lon="3.28488">
        <ele>1057</ele>
        <time>2019-05-30T08:46:05.151Z</time>
      </trkpt>
      <trkpt lat="44.60466" lon="3.28483">
        <ele>1058</ele>
        <time>2019-05-30T08:46:10.140Z</time>
      </trkpt>
      <trkpt lat="44.60463" lon="3.28478">
        <ele>1058</ele>
        <time>2019-05-30T08:46:15.140Z</time>
      </trkpt>
      <trkpt lat="44.60461" lon="3.28476">
        <ele>1058</ele>
        <time>2019-05-30T08:46:19.140Z</time>
      </trkpt>
      <trkpt lat="44.60458" lon="3.28469">
        <ele>1055</ele>
        <time>2019-05-30T08:46:24.164Z</time>
      </trkpt>
      <trkpt lat="44.60454" lon="3.28465">
        <ele>1055</ele>
        <time>2019-05-30T08:46:29.141Z</time>
      </trkpt>
      <trkpt lat="44.60451" lon="3.28459">
        <ele>1055</ele>
        <time>2019-05-30T08:46:34.144Z</time>
      </trkpt>
      <trkpt lat="44.60449" lon="3.28455">
        <ele>1054</ele>
        <time>2019-05-30T08:46:39.150Z</time>
      </trkpt>
      <trkpt lat="44.60447" lon="3.28449">
        <ele>1054</ele>
        <time>2019-05-30T08:46:44.144Z</time>
      </trkpt>
      <trkpt lat="44.60443" lon="3.28445">
        <ele>1054</ele>
        <time>2019-05-30T08:46:49.139Z</time>
      </trkpt>
      <trkpt lat="44.60441" lon="3.28441">
        <ele>1054</ele>
        <time>2019-05-30T08:46:54.167Z</time>
      </trkpt>
      <trkpt lat="44.60437" lon="3.28433">
        <ele>1054</ele>
        <time>2019-05-30T08:46:59.142Z</time>
      </trkpt>
      <trkpt lat="44.60435" lon="3.28429">
        <ele>1053</ele>
        <time>2019-05-30T08:47:03.139Z</time>
      </trkpt>
      <trkpt lat="44.60432" lon="3.28424">
        <ele>1053</ele>
        <time>2019-05-30T08:47:08.135Z</time>
      </trkpt>
      <trkpt lat="44.60431" lon="3.28418">
        <ele>1053</ele>
        <time>2019-05-30T08:47:13.145Z</time>
      </trkpt>
      <trkpt lat="44.6043" lon="3.2841">
        <ele>1048</ele>
        <time>2019-05-30T08:47:18.143Z</time>
      </trkpt>
      <trkpt lat="44.6043" lon="3.28403">
        <ele>1048</ele>
        <time>2019-05-30T08:47:22.144Z</time>
      </trkpt>
      <trkpt lat="44.6043" lon="3.28396">
        <ele>1047</ele>
        <time>2019-05-30T08:47:27.135Z</time>
      </trkpt>
      <trkpt lat="44.6043" lon="3.28391">
        <ele>1047</ele>
        <time>2019-05-30T08:47:32.156Z</time>
      </trkpt>
      <trkpt lat="44.60424" lon="3.28383">
        <ele>1047</ele>
        <time>2019-05-30T08:47:46.122Z</time>
      </trkpt>
      <trkpt lat="44.60423" lon="3.28384">
        <ele>1047</ele>
        <time>2019-05-30T08:47:50.162Z</time>
      </trkpt>
      <trkpt lat="44.60422" lon="3.28384">
        <ele>1047</ele>
        <time>2019-05-30T08:47:55.119Z</time>
      </trkpt>
      <trkpt lat="44.60421" lon="3.28385">
        <ele>1047</ele>
        <time>2019-05-30T08:48:00.116Z</time>
      </trkpt>
      <trkpt lat="44.60416" lon="3.2839">
        <ele>1047</ele>
        <time>2019-05-30T08:48:04.131Z</time>
      </trkpt>
      <trkpt lat="44.60413" lon="3.28393">
        <ele>1047</ele>
        <time>2019-05-30T08:48:08.145Z</time>
      </trkpt>
      <trkpt lat="44.60407" lon="3.28395">
        <ele>1047</ele>
        <time>2019-05-30T08:48:18.136Z</time>
      </trkpt>
      <trkpt lat="44.604" lon="3.28395">
        <ele>1043</ele>
        <time>2019-05-30T08:48:23.144Z</time>
      </trkpt>
      <trkpt lat="44.60394" lon="3.28396">
        <ele>1043</ele>
        <time>2019-05-30T08:48:28.117Z</time>
      </trkpt>
      <trkpt lat="44.6039" lon="3.28399">
        <ele>1043</ele>
        <time>2019-05-30T08:48:32.138Z</time>
      </trkpt>
      <trkpt lat="44.60386" lon="3.28404">
        <ele>1045</ele>
        <time>2019-05-30T08:48:37.132Z</time>
      </trkpt>
      <trkpt lat="44.60384" lon="3.2841">
        <ele>1045</ele>
        <time>2019-05-30T08:48:42.133Z</time>
      </trkpt>
      <trkpt lat="44.6038" lon="3.28416">
        <ele>1045</ele>
        <time>2019-05-30T08:48:47.133Z</time>
      </trkpt>
      <trkpt lat="44.60378" lon="3.28422">
        <ele>1045</ele>
        <time>2019-05-30T08:48:52.140Z</time>
      </trkpt>
      <trkpt lat="44.60376" lon="3.28428">
        <ele>1045</ele>
        <time>2019-05-30T08:48:57.134Z</time>
      </trkpt>
      <trkpt lat="44.60374" lon="3.28429">
        <ele>1041</ele>
        <time>2019-05-30T08:49:26.141Z</time>
      </trkpt>
      <trkpt lat="44.60371" lon="3.28431">
        <ele>1044</ele>
        <time>2019-05-30T08:49:30.154Z</time>
      </trkpt>
      <trkpt lat="44.6037" lon="3.28436">
        <ele>1044</ele>
        <time>2019-05-30T08:49:35.142Z</time>
      </trkpt>
      <trkpt lat="44.60368" lon="3.28439">
        <ele>1044</ele>
        <time>2019-05-30T08:49:40.141Z</time>
      </trkpt>
      <trkpt lat="44.60363" lon="3.28444">
        <ele>1044</ele>
        <time>2019-05-30T08:49:45.142Z</time>
      </trkpt>
      <trkpt lat="44.60359" lon="3.28448">
        <ele>1044</ele>
        <time>2019-05-30T08:49:49.141Z</time>
      </trkpt>
      <trkpt lat="44.60356" lon="3.28453">
        <ele>1044</ele>
        <time>2019-05-30T08:49:53.171Z</time>
      </trkpt>
      <trkpt lat="44.60354" lon="3.28456">
        <ele>1044</ele>
        <time>2019-05-30T08:49:58.133Z</time>
      </trkpt>
      <trkpt lat="44.60353" lon="3.28459">
        <ele>1046</ele>
        <time>2019-05-30T08:50:31.135Z</time>
      </trkpt>
      <trkpt lat="44.6035" lon="3.28464">
        <ele>1046</ele>
        <time>2019-05-30T08:50:36.143Z</time>
      </trkpt>
      <trkpt lat="44.60346" lon="3.2847">
        <ele>1043</ele>
        <time>2019-05-30T08:50:41.151Z</time>
      </trkpt>
      <trkpt lat="44.60342" lon="3.28477">
        <ele>1043</ele>
        <time>2019-05-30T08:50:46.154Z</time>
      </trkpt>
      <trkpt lat="44.60338" lon="3.28482">
        <ele>1043</ele>
        <time>2019-05-30T08:50:51.133Z</time>
      </trkpt>
      <trkpt lat="44.60335" lon="3.28488">
        <ele>1043</ele>
        <time>2019-05-30T08:50:56.140Z</time>
      </trkpt>
      <trkpt lat="44.6033" lon="3.28493">
        <ele>1043</ele>
        <time>2019-05-30T08:51:01.134Z</time>
      </trkpt>
      <trkpt lat="44.60328" lon="3.28497">
        <ele>1043</ele>
        <time>2019-05-30T08:51:05.134Z</time>
      </trkpt>
      <trkpt lat="44.60324" lon="3.28499">
        <ele>1043</ele>
        <time>2019-05-30T08:51:09.147Z</time>
      </trkpt>
      <trkpt lat="44.60321" lon="3.28504">
        <ele>1043</ele>
        <time>2019-05-30T08:51:14.134Z</time>
      </trkpt>
      <trkpt lat="44.60318" lon="3.28508">
        <ele>1039</ele>
        <time>2019-05-30T08:51:19.147Z</time>
      </trkpt>
      <trkpt lat="44.60317" lon="3.2851">
        <ele>1039</ele>
        <time>2019-05-30T08:51:24.135Z</time>
      </trkpt>
      <trkpt lat="44.60313" lon="3.28513">
        <ele>1039</ele>
        <time>2019-05-30T08:53:02.162Z</time>
      </trkpt>
      <trkpt lat="44.60312" lon="3.28514">
        <ele>1039</ele>
        <time>2019-05-30T08:53:07.148Z</time>
      </trkpt>
      <trkpt lat="44.60308" lon="3.28517">
        <ele>1039</ele>
        <time>2019-05-30T08:53:22.134Z</time>
      </trkpt>
      <trkpt lat="44.60306" lon="3.28517">
        <ele>1039</ele>
        <time>2019-05-30T08:53:26.166Z</time>
      </trkpt>
      <trkpt lat="44.60302" lon="3.28518">
        <ele>1039</ele>
        <time>2019-05-30T08:53:31.131Z</time>
      </trkpt>
      <trkpt lat="44.60298" lon="3.2852">
        <ele>1039</ele>
        <time>2019-05-30T08:53:54.178Z</time>
      </trkpt>
      <trkpt lat="44.60293" lon="3.28524">
        <ele>1039</ele>
        <time>2019-05-30T08:53:59.134Z</time>
      </trkpt>
      <trkpt lat="44.60289" lon="3.28528">
        <ele>1035</ele>
        <time>2019-05-30T08:54:03.168Z</time>
      </trkpt>
      <trkpt lat="44.60284" lon="3.2853">
        <ele>1035</ele>
        <time>2019-05-30T08:54:08.139Z</time>
      </trkpt>
      <trkpt lat="44.60281" lon="3.28532">
        <ele>1035</ele>
        <time>2019-05-30T08:54:12.174Z</time>
      </trkpt>
      <trkpt lat="44.60279" lon="3.28537">
        <ele>1035</ele>
        <time>2019-05-30T08:54:17.173Z</time>
      </trkpt>
      <trkpt lat="44.60274" lon="3.28537">
        <ele>1035</ele>
        <time>2019-05-30T08:54:41.141Z</time>
      </trkpt>
      <trkpt lat="44.60274" lon="3.2854">
        <ele>1035</ele>
        <time>2019-05-30T08:54:46.144Z</time>
      </trkpt>
      <trkpt lat="44.60274" lon="3.2854">
        <ele>1035</ele>
        <time>2019-05-30T09:00:01.138Z</time>
      </trkpt>
      <trkpt lat="44.60272" lon="3.28543">
        <ele>1034</ele>
        <time>2019-05-30T09:00:05.146Z</time>
      </trkpt>
      <trkpt lat="44.60268" lon="3.28544">
        <ele>1034</ele>
        <time>2019-05-30T09:00:10.141Z</time>
      </trkpt>
      <trkpt lat="44.60263" lon="3.28545">
        <ele>1031</ele>
        <time>2019-05-30T09:00:15.143Z</time>
      </trkpt>
      <trkpt lat="44.6026" lon="3.28547">
        <ele>1031</ele>
        <time>2019-05-30T09:00:19.144Z</time>
      </trkpt>
      <trkpt lat="44.60257" lon="3.2855">
        <ele>1031</ele>
        <time>2019-05-30T09:00:24.166Z</time>
      </trkpt>
      <trkpt lat="44.60254" lon="3.28551">
        <ele>1031</ele>
        <time>2019-05-30T09:00:29.141Z</time>
      </trkpt>
      <trkpt lat="44.6025" lon="3.28554">
        <ele>1031</ele>
        <time>2019-05-30T09:00:34.162Z</time>
      </trkpt>
      <trkpt lat="44.60247" lon="3.28555">
        <ele>1031</ele>
        <time>2019-05-30T09:00:38.174Z</time>
      </trkpt>
      <trkpt lat="44.60243" lon="3.28557">
        <ele>1031</ele>
        <time>2019-05-30T09:00:43.143Z</time>
      </trkpt>
      <trkpt lat="44.60238" lon="3.28559">
        <ele>1031</ele>
        <time>2019-05-30T09:00:48.177Z</time>
      </trkpt>
      <trkpt lat="44.60235" lon="3.28561">
        <ele>1028</ele>
        <time>2019-05-30T09:00:53.168Z</time>
      </trkpt>
      <trkpt lat="44.60231" lon="3.28564">
        <ele>1028</ele>
        <time>2019-05-30T09:00:58.140Z</time>
      </trkpt>
      <trkpt lat="44.60228" lon="3.28568">
        <ele>1028</ele>
        <time>2019-05-30T09:01:02.169Z</time>
      </trkpt>
      <trkpt lat="44.60225" lon="3.28573">
        <ele>1024</ele>
        <time>2019-05-30T09:01:07.144Z</time>
      </trkpt>
      <trkpt lat="44.60221" lon="3.28573">
        <ele>1024</ele>
        <time>2019-05-30T09:01:12.140Z</time>
      </trkpt>
      <trkpt lat="44.60215" lon="3.28571">
        <ele>1024</ele>
        <time>2019-05-30T09:01:17.127Z</time>
      </trkpt>
      <trkpt lat="44.60211" lon="3.28571">
        <ele>1024</ele>
        <time>2019-05-30T09:01:21.137Z</time>
      </trkpt>
      <trkpt lat="44.60206" lon="3.28569">
        <ele>1027</ele>
        <time>2019-05-30T09:01:26.142Z</time>
      </trkpt>
      <trkpt lat="44.60201" lon="3.28568">
        <ele>1027</ele>
        <time>2019-05-30T09:01:31.139Z</time>
      </trkpt>
      <trkpt lat="44.60197" lon="3.28566">
        <ele>1027</ele>
        <time>2019-05-30T09:01:35.175Z</time>
      </trkpt>
      <trkpt lat="44.60194" lon="3.28566">
        <ele>1027</ele>
        <time>2019-05-30T09:01:40.138Z</time>
      </trkpt>
      <trkpt lat="44.60186" lon="3.28564">
        <ele>1027</ele>
        <time>2019-05-30T09:01:45.141Z</time>
      </trkpt>
      <trkpt lat="44.60182" lon="3.28563">
        <ele>1027</ele>
        <time>2019-05-30T09:01:49.141Z</time>
      </trkpt>
      <trkpt lat="44.60178" lon="3.28562">
        <ele>1026</ele>
        <time>2019-05-30T09:01:54.141Z</time>
      </trkpt>
      <trkpt lat="44.60174" lon="3.28562">
        <ele>1026</ele>
        <time>2019-05-30T09:01:58.146Z</time>
      </trkpt>
      <trkpt lat="44.60171" lon="3.28562">
        <ele>1026</ele>
        <time>2019-05-30T09:02:03.133Z</time>
      </trkpt>
      <trkpt lat="44.60169" lon="3.28563">
        <ele>1026</ele>
        <time>2019-05-30T09:02:07.144Z</time>
      </trkpt>
      <trkpt lat="44.60167" lon="3.28563">
        <ele>1026</ele>
        <time>2019-05-30T09:02:12.141Z</time>
      </trkpt>
      <trkpt lat="44.60163" lon="3.28563">
        <ele>1026</ele>
        <time>2019-05-30T09:02:16.152Z</time>
      </trkpt>
      <trkpt lat="44.6016" lon="3.28564">
        <ele>1026</ele>
        <time>2019-05-30T09:02:21.165Z</time>
      </trkpt>
      <trkpt lat="44.60155" lon="3.28562">
        <ele>1026</ele>
        <time>2019-05-30T09:02:26.173Z</time>
      </trkpt>
      <trkpt lat="44.60148" lon="3.2856">
        <ele>1023</ele>
        <time>2019-05-30T09:02:31.134Z</time>
      </trkpt>
      <trkpt lat="44.60146" lon="3.28557">
        <ele>1023</ele>
        <time>2019-05-30T09:02:35.170Z</time>
      </trkpt>
      <trkpt lat="44.60145" lon="3.28555">
        <ele>1023</ele>
        <time>2019-05-30T09:02:40.140Z</time>
      </trkpt>
      <trkpt lat="44.60145" lon="3.28556">
        <ele>1023</ele>
        <time>2019-05-30T09:07:54.138Z</time>
      </trkpt>
      <trkpt lat="44.60143" lon="3.28556">
        <ele>1023</ele>
        <time>2019-05-30T09:07:58.143Z</time>
      </trkpt>
      <trkpt lat="44.60142" lon="3.28555">
        <ele>1023</ele>
        <time>2019-05-30T09:08:03.149Z</time>
      </trkpt>
      <trkpt lat="44.60139" lon="3.28559">
        <ele>1023</ele>
        <time>2019-05-30T09:08:23.173Z</time>
      </trkpt>
      <trkpt lat="44.60134" lon="3.28556">
        <ele>1023</ele>
        <time>2019-05-30T09:08:28.162Z</time>
      </trkpt>
      <trkpt lat="44.6013" lon="3.28552">
        <ele>1023</ele>
        <time>2019-05-30T09:08:33.138Z</time>
      </trkpt>
      <trkpt lat="44.60128" lon="3.2855">
        <ele>1023</ele>
        <time>2019-05-30T09:08:37.142Z</time>
      </trkpt>
      <trkpt lat="44.60126" lon="3.28548">
        <ele>1023</ele>
        <time>2019-05-30T09:08:42.144Z</time>
      </trkpt>
      <trkpt lat="44.60125" lon="3.28546">
        <ele>1018</ele>
        <time>2019-05-30T09:08:46.143Z</time>
      </trkpt>
      <trkpt lat="44.60122" lon="3.28543">
        <ele>1018</ele>
        <time>2019-05-30T09:08:51.141Z</time>
      </trkpt>
      <trkpt lat="44.6012" lon="3.28541">
        <ele>1019</ele>
        <time>2019-05-30T09:08:55.159Z</time>
      </trkpt>
      <trkpt lat="44.60115" lon="3.28537">
        <ele>1019</ele>
        <time>2019-05-30T09:09:00.137Z</time>
      </trkpt>
      <trkpt lat="44.60112" lon="3.28534">
        <ele>1019</ele>
        <time>2019-05-30T09:09:05.143Z</time>
      </trkpt>
      <trkpt lat="44.60112" lon="3.28533">
        <ele>1019</ele>
        <time>2019-05-30T09:09:10.140Z</time>
      </trkpt>
      <trkpt lat="44.60108" lon="3.28533">
        <ele>1019</ele>
        <time>2019-05-30T09:17:04.144Z</time>
      </trkpt>
      <trkpt lat="44.60106" lon="3.28531">
        <ele>1019</ele>
        <time>2019-05-30T09:17:47.142Z</time>
      </trkpt>
      <trkpt lat="44.60102" lon="3.28527">
        <ele>1019</ele>
        <time>2019-05-30T09:17:51.145Z</time>
      </trkpt>
      <trkpt lat="44.60098" lon="3.28523">
        <ele>1019</ele>
        <time>2019-05-30T09:17:56.115Z</time>
      </trkpt>
      <trkpt lat="44.60094" lon="3.28522">
        <ele>1014</ele>
        <time>2019-05-30T09:18:00.150Z</time>
      </trkpt>
      <trkpt lat="44.60089" lon="3.28521">
        <ele>1014</ele>
        <time>2019-05-30T09:18:04.161Z</time>
      </trkpt>
      <trkpt lat="44.60088" lon="3.28521">
        <ele>1014</ele>
        <time>2019-05-30T09:18:09.141Z</time>
      </trkpt>
      <trkpt lat="44.60082" lon="3.2852">
        <ele>1014</ele>
        <time>2019-05-30T09:18:19.137Z</time>
      </trkpt>
      <trkpt lat="44.60078" lon="3.2852">
        <ele>1014</ele>
        <time>2019-05-30T09:18:23.142Z</time>
      </trkpt>
      <trkpt lat="44.60074" lon="3.28518">
        <ele>1014</ele>
        <time>2019-05-30T09:18:28.143Z</time>
      </trkpt>
      <trkpt lat="44.60071" lon="3.28516">
        <ele>1014</ele>
        <time>2019-05-30T09:18:33.142Z</time>
      </trkpt>
      <trkpt lat="44.60066" lon="3.28513">
        <ele>1008</ele>
        <time>2019-05-30T09:18:38.133Z</time>
      </trkpt>
      <trkpt lat="44.60064" lon="3.28511">
        <ele>1008</ele>
        <time>2019-05-30T09:18:42.164Z</time>
      </trkpt>
      <trkpt lat="44.60062" lon="3.28509">
        <ele>1008</ele>
        <time>2019-05-30T09:18:47.163Z</time>
      </trkpt>
      <trkpt lat="44.60061" lon="3.28509">
        <ele>1008</ele>
        <time>2019-05-30T09:18:52.144Z</time>
      </trkpt>
      <trkpt lat="44.60058" lon="3.28507">
        <ele>1008</ele>
        <time>2019-05-30T09:18:57.143Z</time>
      </trkpt>
      <trkpt lat="44.60054" lon="3.28506">
        <ele>1008</ele>
        <time>2019-05-30T09:19:01.173Z</time>
      </trkpt>
      <trkpt lat="44.6005" lon="3.28503">
        <ele>1008</ele>
        <time>2019-05-30T09:19:06.144Z</time>
      </trkpt>
      <trkpt lat="44.60046" lon="3.28502">
        <ele>1008</ele>
        <time>2019-05-30T09:19:10.172Z</time>
      </trkpt>
      <trkpt lat="44.60042" lon="3.28501">
        <ele>1008</ele>
        <time>2019-05-30T09:19:15.135Z</time>
      </trkpt>
      <trkpt lat="44.60038" lon="3.28497">
        <ele>1003</ele>
        <time>2019-05-30T09:19:20.138Z</time>
      </trkpt>
      <trkpt lat="44.60037" lon="3.28493">
        <ele>1003</ele>
        <time>2019-05-30T09:19:24.146Z</time>
      </trkpt>
      <trkpt lat="44.60035" lon="3.28488">
        <ele>1003</ele>
        <time>2019-05-30T09:19:29.141Z</time>
      </trkpt>
      <trkpt lat="44.60034" lon="3.28483">
        <ele>1000</ele>
        <time>2019-05-30T09:19:34.155Z</time>
      </trkpt>
      <trkpt lat="44.60034" lon="3.28478">
        <ele>1000</ele>
        <time>2019-05-30T09:19:39.140Z</time>
      </trkpt>
      <trkpt lat="44.60033" lon="3.28474">
        <ele>1000</ele>
        <time>2019-05-30T09:19:44.118Z</time>
      </trkpt>
      <trkpt lat="44.60032" lon="3.28474">
        <ele>1000</ele>
        <time>2019-05-30T09:19:49.131Z</time>
      </trkpt>
      <trkpt lat="44.60032" lon="3.28472">
        <ele>1000</ele>
        <time>2019-05-30T09:20:02.133Z</time>
      </trkpt>
      <trkpt lat="44.60032" lon="3.28467">
        <ele>1000</ele>
        <time>2019-05-30T09:20:06.161Z</time>
      </trkpt>
      <trkpt lat="44.60033" lon="3.2846">
        <ele>1000</ele>
        <time>2019-05-30T09:20:11.119Z</time>
      </trkpt>
      <trkpt lat="44.60035" lon="3.28456">
        <ele>998</ele>
        <time>2019-05-30T09:20:15.130Z</time>
      </trkpt>
      <trkpt lat="44.60036" lon="3.28451">
        <ele>998</ele>
        <time>2019-05-30T09:20:19.133Z</time>
      </trkpt>
      <trkpt lat="44.60037" lon="3.28446">
        <ele>998</ele>
        <time>2019-05-30T09:20:24.143Z</time>
      </trkpt>
      <trkpt lat="44.60037" lon="3.28441">
        <ele>998</ele>
        <time>2019-05-30T09:20:28.167Z</time>
      </trkpt>
      <trkpt lat="44.60039" lon="3.28437">
        <ele>998</ele>
        <time>2019-05-30T09:20:32.166Z</time>
      </trkpt>
      <trkpt lat="44.6004" lon="3.28431">
        <ele>998</ele>
        <time>2019-05-30T09:20:37.140Z</time>
      </trkpt>
      <trkpt lat="44.60042" lon="3.28425">
        <ele>1000</ele>
        <time>2019-05-30T09:20:42.142Z</time>
      </trkpt>
      <trkpt lat="44.60045" lon="3.28419">
        <ele>1000</ele>
        <time>2019-05-30T09:20:47.131Z</time>
      </trkpt>
      <trkpt lat="44.60046" lon="3.28418">
        <ele>1000</ele>
        <time>2019-05-30T09:20:52.118Z</time>
      </trkpt>
      <trkpt lat="44.60046" lon="3.28418">
        <ele>1000</ele>
        <time>2019-05-30T09:21:19.129Z</time>
      </trkpt>
      <trkpt lat="44.60042" lon="3.28418">
        <ele>1000</ele>
        <time>2019-05-30T09:21:24.153Z</time>
      </trkpt>
      <trkpt lat="44.60039" lon="3.28424">
        <ele>994</ele>
        <time>2019-05-30T09:21:28.157Z</time>
      </trkpt>
      <trkpt lat="44.60037" lon="3.2843">
        <ele>994</ele>
        <time>2019-05-30T09:21:33.136Z</time>
      </trkpt>
      <trkpt lat="44.60034" lon="3.28435">
        <ele>998</ele>
        <time>2019-05-30T09:21:38.138Z</time>
      </trkpt>
      <trkpt lat="44.60033" lon="3.28442">
        <ele>998</ele>
        <time>2019-05-30T09:21:43.159Z</time>
      </trkpt>
      <trkpt lat="44.60031" lon="3.28449">
        <ele>998</ele>
        <time>2019-05-30T09:21:48.145Z</time>
      </trkpt>
      <trkpt lat="44.6003" lon="3.28456">
        <ele>998</ele>
        <time>2019-05-30T09:21:53.140Z</time>
      </trkpt>
      <trkpt lat="44.6003" lon="3.28461">
        <ele>1000</ele>
        <time>2019-05-30T09:21:58.139Z</time>
      </trkpt>
      <trkpt lat="44.60028" lon="3.28467">
        <ele>1000</ele>
        <time>2019-05-30T09:22:03.143Z</time>
      </trkpt>
      <trkpt lat="44.60026" lon="3.28472">
        <ele>1000</ele>
        <time>2019-05-30T09:22:08.116Z</time>
      </trkpt>
      <trkpt lat="44.60024" lon="3.28475">
        <ele>1000</ele>
        <time>2019-05-30T09:22:12.119Z</time>
      </trkpt>
      <trkpt lat="44.60024" lon="3.28476">
        <ele>1000</ele>
        <time>2019-05-30T09:22:16.127Z</time>
      </trkpt>
      <trkpt lat="44.60023" lon="3.28477">
        <ele>1000</ele>
        <time>2019-05-30T09:22:30.146Z</time>
      </trkpt>
      <trkpt lat="44.6002" lon="3.28481">
        <ele>1000</ele>
        <time>2019-05-30T09:22:35.115Z</time>
      </trkpt>
      <trkpt lat="44.60018" lon="3.28485">
        <ele>1000</ele>
        <time>2019-05-30T09:22:39.175Z</time>
      </trkpt>
      <trkpt lat="44.60015" lon="3.28489">
        <ele>1003</ele>
        <time>2019-05-30T09:22:44.140Z</time>
      </trkpt>
      <trkpt lat="44.60011" lon="3.28492">
        <ele>1000</ele>
        <time>2019-05-30T09:22:49.143Z</time>
      </trkpt>
      <trkpt lat="44.60009" lon="3.28495">
        <ele>1000</ele>
        <time>2019-05-30T09:22:53.145Z</time>
      </trkpt>
      <trkpt lat="44.60008" lon="3.28498">
        <ele>1000</ele>
        <time>2019-05-30T09:22:57.174Z</time>
      </trkpt>
      <trkpt lat="44.60004" lon="3.28502">
        <ele>1000</ele>
        <time>2019-05-30T09:23:02.151Z</time>
      </trkpt>
      <trkpt lat="44.6" lon="3.28505">
        <ele>1000</ele>
        <time>2019-05-30T09:23:07.140Z</time>
      </trkpt>
      <trkpt lat="44.59994" lon="3.2851">
        <ele>1000</ele>
        <time>2019-05-30T09:23:12.141Z</time>
      </trkpt>
      <trkpt lat="44.5999" lon="3.28512">
        <ele>1000</ele>
        <time>2019-05-30T09:23:17.134Z</time>
      </trkpt>
      <trkpt lat="44.59986" lon="3.28514">
        <ele>997</ele>
        <time>2019-05-30T09:23:21.147Z</time>
      </trkpt>
      <trkpt lat="44.5998" lon="3.28517">
        <ele>997</ele>
        <time>2019-05-30T09:23:26.134Z</time>
      </trkpt>
      <trkpt lat="44.59976" lon="3.2852">
        <ele>997</ele>
        <time>2019-05-30T09:23:30.134Z</time>
      </trkpt>
      <trkpt lat="44.59972" lon="3.28523">
        <ele>997</ele>
        <time>2019-05-30T09:23:35.116Z</time>
      </trkpt>
      <trkpt lat="44.59971" lon="3.28524">
        <ele>997</ele>
        <time>2019-05-30T09:23:39.154Z</time>
      </trkpt>
      <trkpt lat="44.59965" lon="3.28526">
        <ele>997</ele>
        <time>2019-05-30T09:23:44.160Z</time>
      </trkpt>
      <trkpt lat="44.59961" lon="3.28529">
        <ele>997</ele>
        <time>2019-05-30T09:23:49.129Z</time>
      </trkpt>
      <trkpt lat="44.59955" lon="3.28531">
        <ele>999</ele>
        <time>2019-05-30T09:23:54.134Z</time>
      </trkpt>
      <trkpt lat="44.59949" lon="3.28531">
        <ele>999</ele>
        <time>2019-05-30T09:23:59.134Z</time>
      </trkpt>
      <trkpt lat="44.59945" lon="3.28532">
        <ele>999</ele>
        <time>2019-05-30T09:24:03.137Z</time>
      </trkpt>
      <trkpt lat="44.59941" lon="3.28537">
        <ele>999</ele>
        <time>2019-05-30T09:24:08.153Z</time>
      </trkpt>
      <trkpt lat="44.59937" lon="3.28541">
        <ele>999</ele>
        <time>2019-05-30T09:24:13.163Z</time>
      </trkpt>
      <trkpt lat="44.59934" lon="3.28546">
        <ele>997</ele>
        <time>2019-05-30T09:24:18.140Z</time>
      </trkpt>
      <trkpt lat="44.59929" lon="3.28551">
        <ele>1004</ele>
        <time>2019-05-30T09:24:23.132Z</time>
      </trkpt>
      <trkpt lat="44.59927" lon="3.28554">
        <ele>1004</ele>
        <time>2019-05-30T09:24:27.139Z</time>
      </trkpt>
      <trkpt lat="44.59923" lon="3.28559">
        <ele>1004</ele>
        <time>2019-05-30T09:24:31.151Z</time>
      </trkpt>
      <trkpt lat="44.5992" lon="3.28563">
        <ele>1004</ele>
        <time>2019-05-30T09:24:36.173Z</time>
      </trkpt>
      <trkpt lat="44.59918" lon="3.2857">
        <ele>1000</ele>
        <time>2019-05-30T09:24:41.149Z</time>
      </trkpt>
      <trkpt lat="44.59914" lon="3.28575">
        <ele>1000</ele>
        <time>2019-05-30T09:24:46.136Z</time>
      </trkpt>
      <trkpt lat="44.59912" lon="3.28579">
        <ele>1000</ele>
        <time>2019-05-30T09:24:50.155Z</time>
      </trkpt>
      <trkpt lat="44.59909" lon="3.28585">
        <ele>1000</ele>
        <time>2019-05-30T09:24:55.139Z</time>
      </trkpt>
      <trkpt lat="44.59905" lon="3.28592">
        <ele>1000</ele>
        <time>2019-05-30T09:25:00.152Z</time>
      </trkpt>
      <trkpt lat="44.59902" lon="3.286">
        <ele>1001</ele>
        <time>2019-05-30T09:25:05.162Z</time>
      </trkpt>
      <trkpt lat="44.599" lon="3.28606">
        <ele>1001</ele>
        <time>2019-05-30T09:25:10.139Z</time>
      </trkpt>
      <trkpt lat="44.59896" lon="3.28612">
        <ele>1001</ele>
        <time>2019-05-30T09:25:14.156Z</time>
      </trkpt>
      <trkpt lat="44.59893" lon="3.2862">
        <ele>1001</ele>
        <time>2019-05-30T09:25:19.176Z</time>
      </trkpt>
      <trkpt lat="44.59891" lon="3.28627">
        <ele>999</ele>
        <time>2019-05-30T09:25:24.151Z</time>
      </trkpt>
      <trkpt lat="44.59887" lon="3.28634">
        <ele>999</ele>
        <time>2019-05-30T09:25:29.135Z</time>
      </trkpt>
      <trkpt lat="44.59885" lon="3.28638">
        <ele>999</ele>
        <time>2019-05-30T09:25:34.165Z</time>
      </trkpt>
      <trkpt lat="44.59882" lon="3.28644">
        <ele>999</ele>
        <time>2019-05-30T09:25:39.174Z</time>
      </trkpt>
      <trkpt lat="44.59881" lon="3.28648">
        <ele>999</ele>
        <time>2019-05-30T09:25:44.143Z</time>
      </trkpt>
      <trkpt lat="44.59877" lon="3.28651">
        <ele>999</ele>
        <time>2019-05-30T09:25:49.154Z</time>
      </trkpt>
      <trkpt lat="44.59876" lon="3.28654">
        <ele>997</ele>
        <time>2019-05-30T09:25:54.140Z</time>
      </trkpt>
      <trkpt lat="44.59874" lon="3.2866">
        <ele>1002</ele>
        <time>2019-05-30T09:25:59.137Z</time>
      </trkpt>
      <trkpt lat="44.59868" lon="3.28664">
        <ele>1002</ele>
        <time>2019-05-30T09:26:04.140Z</time>
      </trkpt>
      <trkpt lat="44.59863" lon="3.28669">
        <ele>1002</ele>
        <time>2019-05-30T09:26:09.140Z</time>
      </trkpt>
      <trkpt lat="44.59858" lon="3.28675">
        <ele>1002</ele>
        <time>2019-05-30T09:26:14.141Z</time>
      </trkpt>
      <trkpt lat="44.59853" lon="3.2868">
        <ele>1002</ele>
        <time>2019-05-30T09:26:18.167Z</time>
      </trkpt>
      <trkpt lat="44.59849" lon="3.28685">
        <ele>999</ele>
        <time>2019-05-30T09:26:23.119Z</time>
      </trkpt>
      <trkpt lat="44.59846" lon="3.28689">
        <ele>1006</ele>
        <time>2019-05-30T09:26:27.163Z</time>
      </trkpt>
      <trkpt lat="44.5984" lon="3.28693">
        <ele>1006</ele>
        <time>2019-05-30T09:26:32.154Z</time>
      </trkpt>
      <trkpt lat="44.59835" lon="3.28698">
        <ele>1006</ele>
        <time>2019-05-30T09:26:37.145Z</time>
      </trkpt>
      <trkpt lat="44.59829" lon="3.28702">
        <ele>1006</ele>
        <time>2019-05-30T09:26:42.133Z</time>
      </trkpt>
      <trkpt lat="44.59825" lon="3.28706">
        <ele>1006</ele>
        <time>2019-05-30T09:26:46.184Z</time>
      </trkpt>
      <trkpt lat="44.59821" lon="3.2871">
        <ele>999</ele>
        <time>2019-05-30T09:26:51.136Z</time>
      </trkpt>
      <trkpt lat="44.59817" lon="3.28714">
        <ele>1005</ele>
        <time>2019-05-30T09:26:55.142Z</time>
      </trkpt>
      <trkpt lat="44.59814" lon="3.28719">
        <ele>1005</ele>
        <time>2019-05-30T09:27:00.154Z</time>
      </trkpt>
      <trkpt lat="44.5981" lon="3.28722">
        <ele>1005</ele>
        <time>2019-05-30T09:27:04.177Z</time>
      </trkpt>
      <trkpt lat="44.59807" lon="3.28726">
        <ele>1005</ele>
        <time>2019-05-30T09:27:09.138Z</time>
      </trkpt>
      <trkpt lat="44.59802" lon="3.2873">
        <ele>1005</ele>
        <time>2019-05-30T09:27:14.144Z</time>
      </trkpt>
      <trkpt lat="44.59798" lon="3.28734">
        <ele>1005</ele>
        <time>2019-05-30T09:27:18.172Z</time>
      </trkpt>
      <trkpt lat="44.59795" lon="3.28737">
        <ele>998</ele>
        <time>2019-05-30T09:27:23.161Z</time>
      </trkpt>
      <trkpt lat="44.59791" lon="3.28743">
        <ele>1000</ele>
        <time>2019-05-30T09:27:28.166Z</time>
      </trkpt>
      <trkpt lat="44.59787" lon="3.28746">
        <ele>1000</ele>
        <time>2019-05-30T09:27:33.146Z</time>
      </trkpt>
      <trkpt lat="44.59783" lon="3.28749">
        <ele>1000</ele>
        <time>2019-05-30T09:27:38.143Z</time>
      </trkpt>
      <trkpt lat="44.59778" lon="3.28753">
        <ele>1000</ele>
        <time>2019-05-30T09:27:43.118Z</time>
      </trkpt>
      <trkpt lat="44.59773" lon="3.28755">
        <ele>1000</ele>
        <time>2019-05-30T09:27:47.140Z</time>
      </trkpt>
      <trkpt lat="44.59767" lon="3.28759">
        <ele>1000</ele>
        <time>2019-05-30T09:27:52.140Z</time>
      </trkpt>
      <trkpt lat="44.59763" lon="3.28763">
        <ele>1005</ele>
        <time>2019-05-30T09:27:56.170Z</time>
      </trkpt>
      <trkpt lat="44.59759" lon="3.28768">
        <ele>1002</ele>
        <time>2019-05-30T09:28:01.134Z</time>
      </trkpt>
      <trkpt lat="44.59755" lon="3.28771">
        <ele>1002</ele>
        <time>2019-05-30T09:28:05.145Z</time>
      </trkpt>
      <trkpt lat="44.5975" lon="3.28774">
        <ele>1002</ele>
        <time>2019-05-30T09:28:10.144Z</time>
      </trkpt>
      <trkpt lat="44.59745" lon="3.28778">
        <ele>1002</ele>
        <time>2019-05-30T09:28:15.154Z</time>
      </trkpt>
      <trkpt lat="44.59741" lon="3.28782">
        <ele>1002</ele>
        <time>2019-05-30T09:28:20.139Z</time>
      </trkpt>
      <trkpt lat="44.59737" lon="3.28785">
        <ele>1002</ele>
        <time>2019-05-30T09:28:24.154Z</time>
      </trkpt>
      <trkpt lat="44.59733" lon="3.28788">
        <ele>1007</ele>
        <time>2019-05-30T09:28:29.139Z</time>
      </trkpt>
      <trkpt lat="44.59729" lon="3.28792">
        <ele>1002</ele>
        <time>2019-05-30T09:28:34.129Z</time>
      </trkpt>
      <trkpt lat="44.59724" lon="3.28794">
        <ele>1002</ele>
        <time>2019-05-30T09:28:38.140Z</time>
      </trkpt>
      <trkpt lat="44.59723" lon="3.28793">
        <ele>1002</ele>
        <time>2019-05-30T09:28:43.140Z</time>
      </trkpt>
      <trkpt lat="44.59724" lon="3.28793">
        <ele>1002</ele>
        <time>2019-05-30T09:28:48.138Z</time>
      </trkpt>
      <trkpt lat="44.59723" lon="3.28794">
        <ele>1002</ele>
        <time>2019-05-30T09:28:57.144Z</time>
      </trkpt>
      <trkpt lat="44.59719" lon="3.28797">
        <ele>1002</ele>
        <time>2019-05-30T09:29:01.193Z</time>
      </trkpt>
      <trkpt lat="44.59715" lon="3.28798">
        <ele>1002</ele>
        <time>2019-05-30T09:29:06.132Z</time>
      </trkpt>
      <trkpt lat="44.59711" lon="3.28801">
        <ele>1002</ele>
        <time>2019-05-30T09:29:11.133Z</time>
      </trkpt>
      <trkpt lat="44.59707" lon="3.28803">
        <ele>1005</ele>
        <time>2019-05-30T09:29:15.169Z</time>
      </trkpt>
      <trkpt lat="44.59701" lon="3.28804">
        <ele>1005</ele>
        <time>2019-05-30T09:29:20.150Z</time>
      </trkpt>
      <trkpt lat="44.59698" lon="3.28805">
        <ele>1005</ele>
        <time>2019-05-30T09:29:25.188Z</time>
      </trkpt>
      <trkpt lat="44.59697" lon="3.28806">
        <ele>1005</ele>
        <time>2019-05-30T09:29:30.141Z</time>
      </trkpt>
      <trkpt lat="44.59692" lon="3.28806">
        <ele>1005</ele>
        <time>2019-05-30T09:29:35.150Z</time>
      </trkpt>
      <trkpt lat="44.59688" lon="3.28805">
        <ele>1005</ele>
        <time>2019-05-30T09:29:40.172Z</time>
      </trkpt>
      <trkpt lat="44.59685" lon="3.28806">
        <ele>1005</ele>
        <time>2019-05-30T09:29:45.174Z</time>
      </trkpt>
      <trkpt lat="44.59682" lon="3.28808">
        <ele>1005</ele>
        <time>2019-05-30T09:29:50.140Z</time>
      </trkpt>
      <trkpt lat="44.59682" lon="3.28808">
        <ele>1005</ele>
        <time>2019-05-30T09:29:59.164Z</time>
      </trkpt>
      <trkpt lat="44.59677" lon="3.28807">
        <ele>1004</ele>
        <time>2019-05-30T09:30:04.144Z</time>
      </trkpt>
      <trkpt lat="44.59675" lon="3.28806">
        <ele>1004</ele>
        <time>2019-05-30T09:30:09.146Z</time>
      </trkpt>
      <trkpt lat="44.59673" lon="3.28801">
        <ele>1004</ele>
        <time>2019-05-30T09:30:27.174Z</time>
      </trkpt>
      <trkpt lat="44.59671" lon="3.28794">
        <ele>1004</ele>
        <time>2019-05-30T09:30:32.143Z</time>
      </trkpt>
      <trkpt lat="44.5967" lon="3.28789">
        <ele>1006</ele>
        <time>2019-05-30T09:30:36.163Z</time>
      </trkpt>
      <trkpt lat="44.59668" lon="3.28785">
        <ele>1006</ele>
        <time>2019-05-30T09:30:40.177Z</time>
      </trkpt>
      <trkpt lat="44.59667" lon="3.2878">
        <ele>1006</ele>
        <time>2019-05-30T09:30:45.166Z</time>
      </trkpt>
      <trkpt lat="44.59665" lon="3.28775">
        <ele>1006</ele>
        <time>2019-05-30T09:30:50.165Z</time>
      </trkpt>
      <trkpt lat="44.59664" lon="3.28769">
        <ele>1006</ele>
        <time>2019-05-30T09:30:55.133Z</time>
      </trkpt>
      <trkpt lat="44.59663" lon="3.28765">
        <ele>1006</ele>
        <time>2019-05-30T09:30:59.140Z</time>
      </trkpt>
      <trkpt lat="44.59661" lon="3.2876">
        <ele>1009</ele>
        <time>2019-05-30T09:31:04.172Z</time>
      </trkpt>
      <trkpt lat="44.5966" lon="3.28754">
        <ele>1009</ele>
        <time>2019-05-30T09:31:09.164Z</time>
      </trkpt>
      <trkpt lat="44.59659" lon="3.28751">
        <ele>1009</ele>
        <time>2019-05-30T09:31:14.152Z</time>
      </trkpt>
      <trkpt lat="44.59658" lon="3.28751">
        <ele>1009</ele>
        <time>2019-05-30T09:31:33.122Z</time>
      </trkpt>
      <trkpt lat="44.59657" lon="3.28745">
        <ele>1009</ele>
        <time>2019-05-30T09:31:37.171Z</time>
      </trkpt>
      <trkpt lat="44.59656" lon="3.2874">
        <ele>1009</ele>
        <time>2019-05-30T09:31:42.164Z</time>
      </trkpt>
      <trkpt lat="44.59654" lon="3.28738">
        <ele>1009</ele>
        <time>2019-05-30T09:31:47.132Z</time>
      </trkpt>
      <trkpt lat="44.59654" lon="3.28734">
        <ele>1010</ele>
        <time>2019-05-30T09:32:33.135Z</time>
      </trkpt>
      <trkpt lat="44.59653" lon="3.28732">
        <ele>1010</ele>
        <time>2019-05-30T09:32:38.132Z</time>
      </trkpt>
      <trkpt lat="44.59654" lon="3.28727">
        <ele>1010</ele>
        <time>2019-05-30T09:32:42.166Z</time>
      </trkpt>
      <trkpt lat="44.59655" lon="3.28722">
        <ele>1010</ele>
        <time>2019-05-30T09:32:47.133Z</time>
      </trkpt>
      <trkpt lat="44.59657" lon="3.28718">
        <ele>1010</ele>
        <time>2019-05-30T09:32:51.171Z</time>
      </trkpt>
      <trkpt lat="44.59658" lon="3.28717">
        <ele>1010</ele>
        <time>2019-05-30T09:32:56.163Z</time>
      </trkpt>
      <trkpt lat="44.5966" lon="3.28711">
        <ele>1010</ele>
        <time>2019-05-30T09:33:01.137Z</time>
      </trkpt>
      <trkpt lat="44.59662" lon="3.28706">
        <ele>1011</ele>
        <time>2019-05-30T09:33:06.118Z</time>
      </trkpt>
      <trkpt lat="44.59662" lon="3.28701">
        <ele>1011</ele>
        <time>2019-05-30T09:33:10.134Z</time>
      </trkpt>
      <trkpt lat="44.59662" lon="3.28695">
        <ele>1011</ele>
        <time>2019-05-30T09:33:15.146Z</time>
      </trkpt>
      <trkpt lat="44.59662" lon="3.2869">
        <ele>1011</ele>
        <time>2019-05-30T09:33:20.135Z</time>
      </trkpt>
      <trkpt lat="44.59663" lon="3.28685">
        <ele>1011</ele>
        <time>2019-05-30T09:33:24.142Z</time>
      </trkpt>
      <trkpt lat="44.59664" lon="3.28679">
        <ele>1012</ele>
        <time>2019-05-30T09:33:29.137Z</time>
      </trkpt>
      <trkpt lat="44.59666" lon="3.28672">
        <ele>1012</ele>
        <time>2019-05-30T09:33:34.147Z</time>
      </trkpt>
      <trkpt lat="44.59669" lon="3.28667">
        <ele>1012</ele>
        <time>2019-05-30T09:33:39.139Z</time>
      </trkpt>
      <trkpt lat="44.59669" lon="3.28666">
        <ele>1012</ele>
        <time>2019-05-30T09:33:43.168Z</time>
      </trkpt>
      <trkpt lat="44.59669" lon="3.28664">
        <ele>1012</ele>
        <time>2019-05-30T09:33:53.142Z</time>
      </trkpt>
      <trkpt lat="44.59668" lon="3.28658">
        <ele>1012</ele>
        <time>2019-05-30T09:33:58.143Z</time>
      </trkpt>
      <trkpt lat="44.59669" lon="3.28653">
        <ele>1012</ele>
        <time>2019-05-30T09:34:02.142Z</time>
      </trkpt>
      <trkpt lat="44.59669" lon="3.28648">
        <ele>1010</ele>
        <time>2019-05-30T09:34:06.151Z</time>
      </trkpt>
      <trkpt lat="44.59669" lon="3.28641">
        <ele>1010</ele>
        <time>2019-05-30T09:34:11.139Z</time>
      </trkpt>
      <trkpt lat="44.5967" lon="3.28636">
        <ele>1010</ele>
        <time>2019-05-30T09:34:15.163Z</time>
      </trkpt>
      <trkpt lat="44.5967" lon="3.28632">
        <ele>1010</ele>
        <time>2019-05-30T09:34:20.141Z</time>
      </trkpt>
      <trkpt lat="44.59671" lon="3.28628">
        <ele>1010</ele>
        <time>2019-05-30T09:34:25.119Z</time>
      </trkpt>
      <trkpt lat="44.59671" lon="3.28623">
        <ele>1008</ele>
        <time>2019-05-30T09:34:57.143Z</time>
      </trkpt>
      <trkpt lat="44.59668" lon="3.28628">
        <ele>1010</ele>
        <time>2019-05-30T09:35:01.187Z</time>
      </trkpt>
      <trkpt lat="44.59665" lon="3.28635">
        <ele>1010</ele>
        <time>2019-05-30T09:35:06.180Z</time>
      </trkpt>
      <trkpt lat="44.59664" lon="3.28642">
        <ele>1010</ele>
        <time>2019-05-30T09:35:11.158Z</time>
      </trkpt>
      <trkpt lat="44.59663" lon="3.28647">
        <ele>1010</ele>
        <time>2019-05-30T09:35:16.119Z</time>
      </trkpt>
      <trkpt lat="44.59663" lon="3.28652">
        <ele>1010</ele>
        <time>2019-05-30T09:35:20.143Z</time>
      </trkpt>
      <trkpt lat="44.59663" lon="3.28657">
        <ele>1012</ele>
        <time>2019-05-30T09:35:25.133Z</time>
      </trkpt>
      <trkpt lat="44.59661" lon="3.28661">
        <ele>1012</ele>
        <time>2019-05-30T09:35:30.165Z</time>
      </trkpt>
      <trkpt lat="44.59663" lon="3.28663">
        <ele>1012</ele>
        <time>2019-05-30T09:35:50.171Z</time>
      </trkpt>
      <trkpt lat="44.59664" lon="3.28669">
        <ele>1012</ele>
        <time>2019-05-30T09:35:55.164Z</time>
      </trkpt>
      <trkpt lat="44.59663" lon="3.28676">
        <ele>1012</ele>
        <time>2019-05-30T09:36:00.157Z</time>
      </trkpt>
      <trkpt lat="44.59663" lon="3.28683">
        <ele>1011</ele>
        <time>2019-05-30T09:36:05.134Z</time>
      </trkpt>
      <trkpt lat="44.59663" lon="3.28689">
        <ele>1011</ele>
        <time>2019-05-30T09:36:09.132Z</time>
      </trkpt>
      <trkpt lat="44.59661" lon="3.28696">
        <ele>1011</ele>
        <time>2019-05-30T09:36:13.160Z</time>
      </trkpt>
      <trkpt lat="44.59662" lon="3.28703">
        <ele>1011</ele>
        <time>2019-05-30T09:36:18.163Z</time>
      </trkpt>
      <trkpt lat="44.59661" lon="3.2871">
        <ele>1010</ele>
        <time>2019-05-30T09:36:23.132Z</time>
      </trkpt>
      <trkpt lat="44.5966" lon="3.28716">
        <ele>1010</ele>
        <time>2019-05-30T09:36:27.141Z</time>
      </trkpt>
      <trkpt lat="44.59656" lon="3.2872">
        <ele>1010</ele>
        <time>2019-05-30T09:36:32.147Z</time>
      </trkpt>
      <trkpt lat="44.59654" lon="3.28727">
        <ele>1010</ele>
        <time>2019-05-30T09:36:37.163Z</time>
      </trkpt>
      <trkpt lat="44.59652" lon="3.28734">
        <ele>1007</ele>
        <time>2019-05-30T09:36:42.136Z</time>
      </trkpt>
      <trkpt lat="44.59651" lon="3.28741">
        <ele>1007</ele>
        <time>2019-05-30T09:36:46.141Z</time>
      </trkpt>
      <trkpt lat="44.59652" lon="3.28749">
        <ele>1007</ele>
        <time>2019-05-30T09:36:51.142Z</time>
      </trkpt>
      <trkpt lat="44.59654" lon="3.28757">
        <ele>1009</ele>
        <time>2019-05-30T09:36:56.143Z</time>
      </trkpt>
      <trkpt lat="44.59654" lon="3.28764">
        <ele>1006</ele>
        <time>2019-05-30T09:37:01.133Z</time>
      </trkpt>
      <trkpt lat="44.59655" lon="3.28769">
        <ele>1006</ele>
        <time>2019-05-30T09:37:05.143Z</time>
      </trkpt>
      <trkpt lat="44.59656" lon="3.28776">
        <ele>1006</ele>
        <time>2019-05-30T09:37:10.166Z</time>
      </trkpt>
      <trkpt lat="44.59657" lon="3.28782">
        <ele>1006</ele>
        <time>2019-05-30T09:37:14.170Z</time>
      </trkpt>
      <trkpt lat="44.5966" lon="3.28789">
        <ele>1006</ele>
        <time>2019-05-30T09:37:19.162Z</time>
      </trkpt>
      <trkpt lat="44.59661" lon="3.28795">
        <ele>1004</ele>
        <time>2019-05-30T09:37:24.140Z</time>
      </trkpt>
      <trkpt lat="44.59663" lon="3.28803">
        <ele>1004</ele>
        <time>2019-05-30T09:37:29.143Z</time>
      </trkpt>
      <trkpt lat="44.59667" lon="3.28808">
        <ele>1004</ele>
        <time>2019-05-30T09:37:34.138Z</time>
      </trkpt>
      <trkpt lat="44.59669" lon="3.28811">
        <ele>1004</ele>
        <time>2019-05-30T09:37:39.139Z</time>
      </trkpt>
      <trkpt lat="44.59671" lon="3.28813">
        <ele>1004</ele>
        <time>2019-05-30T09:37:43.143Z</time>
      </trkpt>
      <trkpt lat="44.59675" lon="3.28815">
        <ele>1004</ele>
        <time>2019-05-30T09:37:48.139Z</time>
      </trkpt>
      <trkpt lat="44.59681" lon="3.28813">
        <ele>1005</ele>
        <time>2019-05-30T09:37:53.148Z</time>
      </trkpt>
      <trkpt lat="44.59688" lon="3.2881">
        <ele>1005</ele>
        <time>2019-05-30T09:37:58.138Z</time>
      </trkpt>
      <trkpt lat="44.59696" lon="3.2881">
        <ele>1005</ele>
        <time>2019-05-30T09:38:03.145Z</time>
      </trkpt>
      <trkpt lat="44.59703" lon="3.28807">
        <ele>1005</ele>
        <time>2019-05-30T09:38:08.143Z</time>
      </trkpt>
      <trkpt lat="44.59709" lon="3.28805">
        <ele>1002</ele>
        <time>2019-05-30T09:38:13.164Z</time>
      </trkpt>
      <trkpt lat="44.59717" lon="3.28804">
        <ele>1002</ele>
        <time>2019-05-30T09:38:18.152Z</time>
      </trkpt>
      <trkpt lat="44.59722" lon="3.28802">
        <ele>1002</ele>
        <time>2019-05-30T09:38:23.144Z</time>
      </trkpt>
      <trkpt lat="44.59727" lon="3.28798">
        <ele>1002</ele>
        <time>2019-05-30T09:38:28.139Z</time>
      </trkpt>
      <trkpt lat="44.59734" lon="3.28795">
        <ele>1002</ele>
        <time>2019-05-30T09:38:33.136Z</time>
      </trkpt>
      <trkpt lat="44.59738" lon="3.28792">
        <ele>997</ele>
        <time>2019-05-30T09:38:37.143Z</time>
      </trkpt>
      <trkpt lat="44.59744" lon="3.28788">
        <ele>1002</ele>
        <time>2019-05-30T09:38:42.138Z</time>
      </trkpt>
      <trkpt lat="44.5975" lon="3.28784">
        <ele>1002</ele>
        <time>2019-05-30T09:38:47.142Z</time>
      </trkpt>
      <trkpt lat="44.59756" lon="3.28781">
        <ele>1002</ele>
        <time>2019-05-30T09:38:52.143Z</time>
      </trkpt>
      <trkpt lat="44.59761" lon="3.28775">
        <ele>1002</ele>
        <time>2019-05-30T09:38:57.137Z</time>
      </trkpt>
      <trkpt lat="44.59765" lon="3.28771">
        <ele>995</ele>
        <time>2019-05-30T09:39:01.142Z</time>
      </trkpt>
      <trkpt lat="44.59771" lon="3.28767">
        <ele>995</ele>
        <time>2019-05-30T09:39:06.164Z</time>
      </trkpt>
      <trkpt lat="44.59776" lon="3.28762">
        <ele>1000</ele>
        <time>2019-05-30T09:39:11.147Z</time>
      </trkpt>
      <trkpt lat="44.5978" lon="3.28759">
        <ele>1000</ele>
        <time>2019-05-30T09:39:15.171Z</time>
      </trkpt>
      <trkpt lat="44.59785" lon="3.28756">
        <ele>1000</ele>
        <time>2019-05-30T09:39:20.133Z</time>
      </trkpt>
      <trkpt lat="44.59789" lon="3.28754">
        <ele>1000</ele>
        <time>2019-05-30T09:39:24.174Z</time>
      </trkpt>
      <trkpt lat="44.59795" lon="3.2875">
        <ele>998</ele>
        <time>2019-05-30T09:39:29.143Z</time>
      </trkpt>
      <trkpt lat="44.598" lon="3.28746">
        <ele>998</ele>
        <time>2019-05-30T09:39:34.143Z</time>
      </trkpt>
      <trkpt lat="44.59804" lon="3.28743">
        <ele>998</ele>
        <time>2019-05-30T09:39:39.131Z</time>
      </trkpt>
      <trkpt lat="44.59807" lon="3.28741">
        <ele>998</ele>
        <time>2019-05-30T09:39:44.132Z</time>
      </trkpt>
      <trkpt lat="44.59811" lon="3.28736">
        <ele>998</ele>
        <time>2019-05-30T09:39:48.146Z</time>
      </trkpt>
      <trkpt lat="44.59815" lon="3.28733">
        <ele>1005</ele>
        <time>2019-05-30T09:39:52.180Z</time>
      </trkpt>
      <trkpt lat="44.59821" lon="3.28728">
        <ele>999</ele>
        <time>2019-05-30T09:39:57.144Z</time>
      </trkpt>
      <trkpt lat="44.59825" lon="3.28723">
        <ele>999</ele>
        <time>2019-05-30T09:40:02.134Z</time>
      </trkpt>
      <trkpt lat="44.59828" lon="3.28717">
        <ele>999</ele>
        <time>2019-05-30T09:40:06.148Z</time>
      </trkpt>
      <trkpt lat="44.59833" lon="3.28713">
        <ele>999</ele>
        <time>2019-05-30T09:40:11.139Z</time>
      </trkpt>
      <trkpt lat="44.59836" lon="3.28709">
        <ele>999</ele>
        <time>2019-05-30T09:40:15.143Z</time>
      </trkpt>
      <trkpt lat="44.5984" lon="3.28704">
        <ele>1006</ele>
        <time>2019-05-30T09:40:20.172Z</time>
      </trkpt>
      <trkpt lat="44.59843" lon="3.28701">
        <ele>1006</ele>
        <time>2019-05-30T09:40:25.145Z</time>
      </trkpt>
      <trkpt lat="44.59848" lon="3.28697">
        <ele>999</ele>
        <time>2019-05-30T09:40:30.144Z</time>
      </trkpt>
      <trkpt lat="44.59853" lon="3.28692">
        <ele>999</ele>
        <time>2019-05-30T09:40:35.152Z</time>
      </trkpt>
      <trkpt lat="44.59858" lon="3.28687">
        <ele>999</ele>
        <time>2019-05-30T09:40:40.137Z</time>
      </trkpt>
      <trkpt lat="44.59862" lon="3.28682">
        <ele>999</ele>
        <time>2019-05-30T09:40:44.140Z</time>
      </trkpt>
      <trkpt lat="44.59865" lon="3.28679">
        <ele>1002</ele>
        <time>2019-05-30T09:40:49.137Z</time>
      </trkpt>
      <trkpt lat="44.59867" lon="3.28676">
        <ele>1002</ele>
        <time>2019-05-30T09:40:53.142Z</time>
      </trkpt>
      <trkpt lat="44.59868" lon="3.28674">
        <ele>1002</ele>
        <time>2019-05-30T09:40:58.117Z</time>
      </trkpt>
      <trkpt lat="44.5987" lon="3.28672">
        <ele>1002</ele>
        <time>2019-05-30T09:41:02.135Z</time>
      </trkpt>
      <trkpt lat="44.59874" lon="3.28668">
        <ele>1002</ele>
        <time>2019-05-30T09:41:07.118Z</time>
      </trkpt>
      <trkpt lat="44.59874" lon="3.28667">
        <ele>1002</ele>
        <time>2019-05-30T09:41:12.123Z</time>
      </trkpt>
      <trkpt lat="44.59879" lon="3.28662">
        <ele>997</ele>
        <time>2019-05-30T09:41:22.119Z</time>
      </trkpt>
      <trkpt lat="44.59881" lon="3.28657">
        <ele>997</ele>
        <time>2019-05-30T09:41:27.117Z</time>
      </trkpt>
      <trkpt lat="44.59884" lon="3.28653">
        <ele>997</ele>
        <time>2019-05-30T09:42:03.166Z</time>
      </trkpt>
      <trkpt lat="44.59887" lon="3.2865">
        <ele>999</ele>
        <time>2019-05-30T09:42:08.138Z</time>
      </trkpt>
      <trkpt lat="44.59889" lon="3.28646">
        <ele>999</ele>
        <time>2019-05-30T09:42:12.171Z</time>
      </trkpt>
      <trkpt lat="44.59891" lon="3.2864">
        <ele>999</ele>
        <time>2019-05-30T09:42:17.139Z</time>
      </trkpt>
      <trkpt lat="44.59894" lon="3.28632">
        <ele>999</ele>
        <time>2019-05-30T09:42:22.139Z</time>
      </trkpt>
      <trkpt lat="44.59898" lon="3.28625">
        <ele>1001</ele>
        <time>2019-05-30T09:42:27.135Z</time>
      </trkpt>
      <trkpt lat="44.59901" lon="3.28616">
        <ele>1001</ele>
        <time>2019-05-30T09:42:32.141Z</time>
      </trkpt>
      <trkpt lat="44.59905" lon="3.28611">
        <ele>996</ele>
        <time>2019-05-30T09:42:37.153Z</time>
      </trkpt>
      <trkpt lat="44.59909" lon="3.28603">
        <ele>996</ele>
        <time>2019-05-30T09:42:42.170Z</time>
      </trkpt>
      <trkpt lat="44.59914" lon="3.28596">
        <ele>1000</ele>
        <time>2019-05-30T09:42:47.170Z</time>
      </trkpt>
      <trkpt lat="44.59917" lon="3.28588">
        <ele>1000</ele>
        <time>2019-05-30T09:42:52.141Z</time>
      </trkpt>
      <trkpt lat="44.5992" lon="3.2858">
        <ele>1000</ele>
        <time>2019-05-30T09:42:57.140Z</time>
      </trkpt>
      <trkpt lat="44.59924" lon="3.28571">
        <ele>1000</ele>
        <time>2019-05-30T09:43:02.139Z</time>
      </trkpt>
      <trkpt lat="44.59927" lon="3.28564">
        <ele>1004</ele>
        <time>2019-05-30T09:43:07.134Z</time>
      </trkpt>
      <trkpt lat="44.5993" lon="3.28559">
        <ele>1004</ele>
        <time>2019-05-30T09:43:11.140Z</time>
      </trkpt>
      <trkpt lat="44.59934" lon="3.28553">
        <ele>997</ele>
        <time>2019-05-30T09:43:16.150Z</time>
      </trkpt>
      <trkpt lat="44.59936" lon="3.28551">
        <ele>997</ele>
        <time>2019-05-30T09:43:21.165Z</time>
      </trkpt>
      <trkpt lat="44.59942" lon="3.28545">
        <ele>997</ele>
        <time>2019-05-30T09:43:26.147Z</time>
      </trkpt>
      <trkpt lat="44.59949" lon="3.28539">
        <ele>999</ele>
        <time>2019-05-30T09:43:31.144Z</time>
      </trkpt>
      <trkpt lat="44.59954" lon="3.28536">
        <ele>999</ele>
        <time>2019-05-30T09:43:35.173Z</time>
      </trkpt>
      <trkpt lat="44.5996" lon="3.28532">
        <ele>997</ele>
        <time>2019-05-30T09:43:40.141Z</time>
      </trkpt>
      <trkpt lat="44.59965" lon="3.28528">
        <ele>997</ele>
        <time>2019-05-30T09:43:45.138Z</time>
      </trkpt>
      <trkpt lat="44.59968" lon="3.28529">
        <ele>997</ele>
        <time>2019-05-30T09:43:49.167Z</time>
      </trkpt>
      <trkpt lat="44.59973" lon="3.28528">
        <ele>997</ele>
        <time>2019-05-30T09:43:54.140Z</time>
      </trkpt>
      <trkpt lat="44.59979" lon="3.28527">
        <ele>997</ele>
        <time>2019-05-30T09:43:59.140Z</time>
      </trkpt>
      <trkpt lat="44.59984" lon="3.28524">
        <ele>997</ele>
        <time>2019-05-30T09:44:03.146Z</time>
      </trkpt>
      <trkpt lat="44.59988" lon="3.28521">
        <ele>999</ele>
        <time>2019-05-30T09:44:08.139Z</time>
      </trkpt>
      <trkpt lat="44.59992" lon="3.28518">
        <ele>999</ele>
        <time>2019-05-30T09:44:12.143Z</time>
      </trkpt>
      <trkpt lat="44.59993" lon="3.28516">
        <ele>999</ele>
        <time>2019-05-30T09:44:17.140Z</time>
      </trkpt>
      <trkpt lat="44.59996" lon="3.28516">
        <ele>999</ele>
        <time>2019-05-30T09:44:21.169Z</time>
      </trkpt>
      <trkpt lat="44.59999" lon="3.28515">
        <ele>999</ele>
        <time>2019-05-30T09:44:26.118Z</time>
      </trkpt>
      <trkpt lat="44.59999" lon="3.28515">
        <ele>999</ele>
        <time>2019-05-30T09:44:30.159Z</time>
      </trkpt>
      <trkpt lat="44.60006" lon="3.28511">
        <ele>1000</ele>
        <time>2019-05-30T09:44:40.135Z</time>
      </trkpt>
      <trkpt lat="44.60012" lon="3.28506">
        <ele>1000</ele>
        <time>2019-05-30T09:44:45.144Z</time>
      </trkpt>
      <trkpt lat="44.60014" lon="3.28504">
        <ele>1003</ele>
        <time>2019-05-30T09:44:49.167Z</time>
      </trkpt>
      <trkpt lat="44.60017" lon="3.28504">
        <ele>1003</ele>
        <time>2019-05-30T09:44:54.140Z</time>
      </trkpt>
      <trkpt lat="44.60019" lon="3.28503">
        <ele>1003</ele>
        <time>2019-05-30T09:44:58.155Z</time>
      </trkpt>
      <trkpt lat="44.60022" lon="3.28504">
        <ele>1003</ele>
        <time>2019-05-30T09:45:03.120Z</time>
      </trkpt>
      <trkpt lat="44.60023" lon="3.28504">
        <ele>1003</ele>
        <time>2019-05-30T09:45:07.153Z</time>
      </trkpt>
      <trkpt lat="44.60026" lon="3.28505">
        <ele>1003</ele>
        <time>2019-05-30T09:45:12.140Z</time>
      </trkpt>
      <trkpt lat="44.60026" lon="3.28506">
        <ele>1003</ele>
        <time>2019-05-30T09:45:16.145Z</time>
      </trkpt>
      <trkpt lat="44.6003" lon="3.28509">
        <ele>1003</ele>
        <time>2019-05-30T09:45:21.141Z</time>
      </trkpt>
      <trkpt lat="44.60032" lon="3.28511">
        <ele>1003</ele>
        <time>2019-05-30T09:45:26.149Z</time>
      </trkpt>
      <trkpt lat="44.60034" lon="3.28513">
        <ele>1003</ele>
        <time>2019-05-30T09:45:31.149Z</time>
      </trkpt>
      <trkpt lat="44.60038" lon="3.28515">
        <ele>1004</ele>
        <time>2019-05-30T09:45:35.142Z</time>
      </trkpt>
      <trkpt lat="44.60045" lon="3.28519">
        <ele>1009</ele>
        <time>2019-05-30T09:45:40.139Z</time>
      </trkpt>
      <trkpt lat="44.6005" lon="3.28521">
        <ele>1009</ele>
        <time>2019-05-30T09:45:44.147Z</time>
      </trkpt>
      <trkpt lat="44.60054" lon="3.28522">
        <ele>1009</ele>
        <time>2019-05-30T09:45:49.143Z</time>
      </trkpt>
      <trkpt lat="44.60059" lon="3.28524">
        <ele>1009</ele>
        <time>2019-05-30T09:45:54.137Z</time>
      </trkpt>
      <trkpt lat="44.60063" lon="3.28525">
        <ele>1009</ele>
        <time>2019-05-30T09:45:58.148Z</time>
      </trkpt>
      <trkpt lat="44.60067" lon="3.28526">
        <ele>1009</ele>
        <time>2019-05-30T09:46:03.140Z</time>
      </trkpt>
      <trkpt lat="44.60072" lon="3.28528">
        <ele>1014</ele>
        <time>2019-05-30T09:46:08.143Z</time>
      </trkpt>
      <trkpt lat="44.60076" lon="3.28529">
        <ele>1014</ele>
        <time>2019-05-30T09:46:13.143Z</time>
      </trkpt>
      <trkpt lat="44.60083" lon="3.28528">
        <ele>1014</ele>
        <time>2019-05-30T09:46:18.170Z</time>
      </trkpt>
      <trkpt lat="44.60089" lon="3.28532">
        <ele>1014</ele>
        <time>2019-05-30T09:46:23.142Z</time>
      </trkpt>
      <trkpt lat="44.60094" lon="3.28533">
        <ele>1014</ele>
        <time>2019-05-30T09:46:27.150Z</time>
      </trkpt>
      <trkpt lat="44.60097" lon="3.28536">
        <ele>1019</ele>
        <time>2019-05-30T09:46:32.138Z</time>
      </trkpt>
      <trkpt lat="44.601" lon="3.28539">
        <ele>1019</ele>
        <time>2019-05-30T09:46:37.140Z</time>
      </trkpt>
      <trkpt lat="44.60105" lon="3.28541">
        <ele>1019</ele>
        <time>2019-05-30T09:46:42.141Z</time>
      </trkpt>
      <trkpt lat="44.60108" lon="3.28543">
        <ele>1018</ele>
        <time>2019-05-30T09:46:47.137Z</time>
      </trkpt>
      <trkpt lat="44.60112" lon="3.28546">
        <ele>1018</ele>
        <time>2019-05-30T09:46:52.165Z</time>
      </trkpt>
      <trkpt lat="44.60115" lon="3.28548">
        <ele>1018</ele>
        <time>2019-05-30T09:46:57.142Z</time>
      </trkpt>
      <trkpt lat="44.60117" lon="3.28552">
        <ele>1018</ele>
        <time>2019-05-30T09:47:02.131Z</time>
      </trkpt>
      <trkpt lat="44.60123" lon="3.28556">
        <ele>1018</ele>
        <time>2019-05-30T09:47:06.139Z</time>
      </trkpt>
      <trkpt lat="44.60129" lon="3.28559">
        <ele>1023</ele>
        <time>2019-05-30T09:47:11.135Z</time>
      </trkpt>
      <trkpt lat="44.60133" lon="3.28564">
        <ele>1023</ele>
        <time>2019-05-30T09:47:15.140Z</time>
      </trkpt>
      <trkpt lat="44.60139" lon="3.28569">
        <ele>1023</ele>
        <time>2019-05-30T09:47:20.140Z</time>
      </trkpt>
      <trkpt lat="44.60144" lon="3.28572">
        <ele>1019</ele>
        <time>2019-05-30T09:47:25.140Z</time>
      </trkpt>
      <trkpt lat="44.60151" lon="3.28575">
        <ele>1019</ele>
        <time>2019-05-30T09:47:29.155Z</time>
      </trkpt>
      <trkpt lat="44.60159" lon="3.28578">
        <ele>1022</ele>
        <time>2019-05-30T09:47:34.147Z</time>
      </trkpt>
      <trkpt lat="44.60167" lon="3.2858">
        <ele>1022</ele>
        <time>2019-05-30T09:47:39.170Z</time>
      </trkpt>
      <trkpt lat="44.60175" lon="3.28581">
        <ele>1022</ele>
        <time>2019-05-30T09:47:44.142Z</time>
      </trkpt>
      <trkpt lat="44.60179" lon="3.28583">
        <ele>1022</ele>
        <time>2019-05-30T09:47:49.142Z</time>
      </trkpt>
      <trkpt lat="44.60183" lon="3.28583">
        <ele>1022</ele>
        <time>2019-05-30T09:47:53.141Z</time>
      </trkpt>
      <trkpt lat="44.60188" lon="3.28583">
        <ele>1022</ele>
        <time>2019-05-30T09:47:58.140Z</time>
      </trkpt>
      <trkpt lat="44.60193" lon="3.28584">
        <ele>1022</ele>
        <time>2019-05-30T09:48:03.149Z</time>
      </trkpt>
      <trkpt lat="44.60197" lon="3.28585">
        <ele>1022</ele>
        <time>2019-05-30T09:48:08.138Z</time>
      </trkpt>
      <trkpt lat="44.60201" lon="3.28583">
        <ele>1022</ele>
        <time>2019-05-30T09:48:13.129Z</time>
      </trkpt>
      <trkpt lat="44.60206" lon="3.28582">
        <ele>1022</ele>
        <time>2019-05-30T09:48:17.159Z</time>
      </trkpt>
      <trkpt lat="44.60211" lon="3.28582">
        <ele>1024</ele>
        <time>2019-05-30T09:48:21.152Z</time>
      </trkpt>
      <trkpt lat="44.60218" lon="3.2858">
        <ele>1024</ele>
        <time>2019-05-30T09:48:26.173Z</time>
      </trkpt>
      <trkpt lat="44.60225" lon="3.28574">
        <ele>1024</ele>
        <time>2019-05-30T09:48:31.140Z</time>
      </trkpt>
      <trkpt lat="44.60231" lon="3.28569">
        <ele>1028</ele>
        <time>2019-05-30T09:48:36.144Z</time>
      </trkpt>
      <trkpt lat="44.60236" lon="3.28564">
        <ele>1031</ele>
        <time>2019-05-30T09:48:41.180Z</time>
      </trkpt>
      <trkpt lat="44.60242" lon="3.28559">
        <ele>1031</ele>
        <time>2019-05-30T09:48:46.142Z</time>
      </trkpt>
      <trkpt lat="44.60248" lon="3.28557">
        <ele>1031</ele>
        <time>2019-05-30T09:48:51.139Z</time>
      </trkpt>
      <trkpt lat="44.60254" lon="3.28554">
        <ele>1031</ele>
        <time>2019-05-30T09:48:56.139Z</time>
      </trkpt>
      <trkpt lat="44.60259" lon="3.28551">
        <ele>1031</ele>
        <time>2019-05-30T09:49:01.142Z</time>
      </trkpt>
      <trkpt lat="44.60266" lon="3.28549">
        <ele>1034</ele>
        <time>2019-05-30T09:49:06.150Z</time>
      </trkpt>
      <trkpt lat="44.60271" lon="3.28547">
        <ele>1034</ele>
        <time>2019-05-30T09:49:10.143Z</time>
      </trkpt>
      <trkpt lat="44.60276" lon="3.28544">
        <ele>1034</ele>
        <time>2019-05-30T09:49:15.142Z</time>
      </trkpt>
      <trkpt lat="44.60281" lon="3.28541">
        <ele>1035</ele>
        <time>2019-05-30T09:49:20.122Z</time>
      </trkpt>
      <trkpt lat="44.60285" lon="3.28539">
        <ele>1035</ele>
        <time>2019-05-30T09:49:24.141Z</time>
      </trkpt>
      <trkpt lat="44.60289" lon="3.28537">
        <ele>1035</ele>
        <time>2019-05-30T09:49:28.164Z</time>
      </trkpt>
      <trkpt lat="44.60294" lon="3.28533">
        <ele>1039</ele>
        <time>2019-05-30T09:49:33.144Z</time>
      </trkpt>
      <trkpt lat="44.60299" lon="3.2853">
        <ele>1039</ele>
        <time>2019-05-30T09:49:38.162Z</time>
      </trkpt>
      <trkpt lat="44.60304" lon="3.28525">
        <ele>1039</ele>
        <time>2019-05-30T09:49:43.180Z</time>
      </trkpt>
      <trkpt lat="44.60309" lon="3.2852">
        <ele>1039</ele>
        <time>2019-05-30T09:49:48.147Z</time>
      </trkpt>
      <trkpt lat="44.60314" lon="3.28517">
        <ele>1039</ele>
        <time>2019-05-30T09:49:53.135Z</time>
      </trkpt>
      <trkpt lat="44.60318" lon="3.28512">
        <ele>1039</ele>
        <time>2019-05-30T09:49:58.134Z</time>
      </trkpt>
      <trkpt lat="44.60322" lon="3.28508">
        <ele>1043</ele>
        <time>2019-05-30T09:50:02.164Z</time>
      </trkpt>
      <trkpt lat="44.60325" lon="3.28502">
        <ele>1043</ele>
        <time>2019-05-30T09:50:07.140Z</time>
      </trkpt>
      <trkpt lat="44.6033" lon="3.28496">
        <ele>1043</ele>
        <time>2019-05-30T09:50:12.140Z</time>
      </trkpt>
      <trkpt lat="44.60333" lon="3.28492">
        <ele>1043</ele>
        <time>2019-05-30T09:50:16.157Z</time>
      </trkpt>
      <trkpt lat="44.60338" lon="3.28486">
        <ele>1043</ele>
        <time>2019-05-30T09:50:21.140Z</time>
      </trkpt>
      <trkpt lat="44.60342" lon="3.28481">
        <ele>1043</ele>
        <time>2019-05-30T09:50:25.157Z</time>
      </trkpt>
      <trkpt lat="44.60346" lon="3.28477">
        <ele>1043</ele>
        <time>2019-05-30T09:50:30.141Z</time>
      </trkpt>
      <trkpt lat="44.60351" lon="3.28473">
        <ele>1046</ele>
        <time>2019-05-30T09:50:34.141Z</time>
      </trkpt>
      <trkpt lat="44.60356" lon="3.28468">
        <ele>1046</ele>
        <time>2019-05-30T09:50:39.152Z</time>
      </trkpt>
      <trkpt lat="44.6036" lon="3.28464">
        <ele>1046</ele>
        <time>2019-05-30T09:50:44.151Z</time>
      </trkpt>
      <trkpt lat="44.60364" lon="3.28459">
        <ele>1046</ele>
        <time>2019-05-30T09:50:49.139Z</time>
      </trkpt>
      <trkpt lat="44.60366" lon="3.28454">
        <ele>1044</ele>
        <time>2019-05-30T09:50:53.143Z</time>
      </trkpt>
      <trkpt lat="44.6037" lon="3.28447">
        <ele>1044</ele>
        <time>2019-05-30T09:50:58.138Z</time>
      </trkpt>
      <trkpt lat="44.60373" lon="3.28441">
        <ele>1044</ele>
        <time>2019-05-30T09:51:02.141Z</time>
      </trkpt>
      <trkpt lat="44.60378" lon="3.28435">
        <ele>1046</ele>
        <time>2019-05-30T09:51:07.149Z</time>
      </trkpt>
      <trkpt lat="44.60381" lon="3.2843">
        <ele>1045</ele>
        <time>2019-05-30T09:51:11.172Z</time>
      </trkpt>
      <trkpt lat="44.60384" lon="3.28424">
        <ele>1045</ele>
        <time>2019-05-30T09:51:16.140Z</time>
      </trkpt>
      <trkpt lat="44.60389" lon="3.28418">
        <ele>1045</ele>
        <time>2019-05-30T09:51:21.143Z</time>
      </trkpt>
      <trkpt lat="44.60392" lon="3.28415">
        <ele>1045</ele>
        <time>2019-05-30T09:51:25.171Z</time>
      </trkpt>
      <trkpt lat="44.60395" lon="3.28411">
        <ele>1045</ele>
        <time>2019-05-30T09:51:30.141Z</time>
      </trkpt>
      <trkpt lat="44.60399" lon="3.28408">
        <ele>1045</ele>
        <time>2019-05-30T09:51:35.140Z</time>
      </trkpt>
      <trkpt lat="44.60403" lon="3.28403">
        <ele>1048</ele>
        <time>2019-05-30T09:51:40.137Z</time>
      </trkpt>
      <trkpt lat="44.60406" lon="3.28399">
        <ele>1047</ele>
        <time>2019-05-30T09:51:44.147Z</time>
      </trkpt>
      <trkpt lat="44.60407" lon="3.28396">
        <ele>1047</ele>
        <time>2019-05-30T09:51:48.149Z</time>
      </trkpt>
      <trkpt lat="44.60409" lon="3.28395">
        <ele>1047</ele>
        <time>2019-05-30T09:51:53.143Z</time>
      </trkpt>
      <trkpt lat="44.60413" lon="3.28392">
        <ele>1047</ele>
        <time>2019-05-30T09:51:58.147Z</time>
      </trkpt>
      <trkpt lat="44.60421" lon="3.28387">
        <ele>1047</ele>
        <time>2019-05-30T09:52:07.154Z</time>
      </trkpt>
      <trkpt lat="44.6043" lon="3.28381">
        <ele>1047</ele>
        <time>2019-05-30T09:52:12.140Z</time>
      </trkpt>
      <trkpt lat="44.60435" lon="3.28376">
        <ele>1051</ele>
        <time>2019-05-30T09:52:17.151Z</time>
      </trkpt>
      <trkpt lat="44.60439" lon="3.28369">
        <ele>1051</ele>
        <time>2019-05-30T09:52:22.145Z</time>
      </trkpt>
      <trkpt lat="44.60444" lon="3.28362">
        <ele>1051</ele>
        <time>2019-05-30T09:52:27.139Z</time>
      </trkpt>
      <trkpt lat="44.60449" lon="3.28355">
        <ele>1051</ele>
        <time>2019-05-30T09:52:32.159Z</time>
      </trkpt>
      <trkpt lat="44.60452" lon="3.28347">
        <ele>1050</ele>
        <time>2019-05-30T09:52:37.158Z</time>
      </trkpt>
      <trkpt lat="44.60457" lon="3.2834">
        <ele>1050</ele>
        <time>2019-05-30T09:52:42.147Z</time>
      </trkpt>
      <trkpt lat="44.6046" lon="3.28332">
        <ele>1056</ele>
        <time>2019-05-30T09:52:47.140Z</time>
      </trkpt>
      <trkpt lat="44.60462" lon="3.28325">
        <ele>1056</ele>
        <time>2019-05-30T09:52:51.143Z</time>
      </trkpt>
      <trkpt lat="44.60464" lon="3.28319">
        <ele>1054</ele>
        <time>2019-05-30T09:52:55.188Z</time>
      </trkpt>
      <trkpt lat="44.60464" lon="3.28311">
        <ele>1054</ele>
        <time>2019-05-30T09:53:00.162Z</time>
      </trkpt>
      <trkpt lat="44.60466" lon="3.28303">
        <ele>1054</ele>
        <time>2019-05-30T09:53:05.143Z</time>
      </trkpt>
      <trkpt lat="44.60468" lon="3.28294">
        <ele>1054</ele>
        <time>2019-05-30T09:53:10.150Z</time>
      </trkpt>
      <trkpt lat="44.6047" lon="3.28285">
        <ele>1052</ele>
        <time>2019-05-30T09:53:15.138Z</time>
      </trkpt>
      <trkpt lat="44.60473" lon="3.28278">
        <ele>1052</ele>
        <time>2019-05-30T09:53:19.193Z</time>
      </trkpt>
      <trkpt lat="44.60476" lon="3.2827">
        <ele>1052</ele>
        <time>2019-05-30T09:53:24.135Z</time>
      </trkpt>
      <trkpt lat="44.60478" lon="3.28263">
        <ele>1049</ele>
        <time>2019-05-30T09:53:28.167Z</time>
      </trkpt>
      <trkpt lat="44.60483" lon="3.28256">
        <ele>1049</ele>
        <time>2019-05-30T09:53:33.175Z</time>
      </trkpt>
      <trkpt lat="44.60486" lon="3.2825">
        <ele>1053</ele>
        <time>2019-05-30T09:53:38.121Z</time>
      </trkpt>
      <trkpt lat="44.60487" lon="3.28244">
        <ele>1053</ele>
        <time>2019-05-30T09:53:43.137Z</time>
      </trkpt>
      <trkpt lat="44.60489" lon="3.28238">
        <ele>1053</ele>
        <time>2019-05-30T09:53:48.122Z</time>
      </trkpt>
      <trkpt lat="44.60493" lon="3.28231">
        <ele>1050</ele>
        <time>2019-05-30T09:53:52.139Z</time>
      </trkpt>
      <trkpt lat="44.60496" lon="3.28226">
        <ele>1050</ele>
        <time>2019-05-30T09:53:56.164Z</time>
      </trkpt>
      <trkpt lat="44.605" lon="3.28221">
        <ele>1050</ele>
        <time>2019-05-30T09:54:01.140Z</time>
      </trkpt>
      <trkpt lat="44.60503" lon="3.28216">
        <ele>1050</ele>
        <time>2019-05-30T09:54:05.160Z</time>
      </trkpt>
      <trkpt lat="44.60507" lon="3.28209">
        <ele>1050</ele>
        <time>2019-05-30T09:54:10.143Z</time>
      </trkpt>
      <trkpt lat="44.60512" lon="3.28202">
        <ele>1047</ele>
        <time>2019-05-30T09:54:15.139Z</time>
      </trkpt>
      <trkpt lat="44.60514" lon="3.28195">
        <ele>1052</ele>
        <time>2019-05-30T09:54:20.175Z</time>
      </trkpt>
      <trkpt lat="44.60517" lon="3.28189">
        <ele>1052</ele>
        <time>2019-05-30T09:54:25.195Z</time>
      </trkpt>
      <trkpt lat="44.6052" lon="3.28182">
        <ele>1052</ele>
        <time>2019-05-30T09:54:30.141Z</time>
      </trkpt>
      <trkpt lat="44.60524" lon="3.28175">
        <ele>1047</ele>
        <time>2019-05-30T09:54:35.134Z</time>
      </trkpt>
      <trkpt lat="44.60527" lon="3.2817">
        <ele>1047</ele>
        <time>2019-05-30T09:54:39.145Z</time>
      </trkpt>
      <trkpt lat="44.60529" lon="3.28164">
        <ele>1047</ele>
        <time>2019-05-30T09:54:43.179Z</time>
      </trkpt>
      <trkpt lat="44.60532" lon="3.28158">
        <ele>1047</ele>
        <time>2019-05-30T09:54:48.144Z</time>
      </trkpt>
      <trkpt lat="44.60535" lon="3.28152">
        <ele>1043</ele>
        <time>2019-05-30T09:54:53.158Z</time>
      </trkpt>
      <trkpt lat="44.60537" lon="3.28146">
        <ele>1043</ele>
        <time>2019-05-30T09:54:58.136Z</time>
      </trkpt>
      <trkpt lat="44.6054" lon="3.28139">
        <ele>1043</ele>
        <time>2019-05-30T09:55:03.154Z</time>
      </trkpt>
      <trkpt lat="44.60543" lon="3.28132">
        <ele>1049</ele>
        <time>2019-05-30T09:55:08.166Z</time>
      </trkpt>
      <trkpt lat="44.60546" lon="3.28126">
        <ele>1049</ele>
        <time>2019-05-30T09:55:13.133Z</time>
      </trkpt>
      <trkpt lat="44.60549" lon="3.28121">
        <ele>1045</ele>
        <time>2019-05-30T09:55:17.173Z</time>
      </trkpt>
      <trkpt lat="44.60552" lon="3.28114">
        <ele>1045</ele>
        <time>2019-05-30T09:55:22.138Z</time>
      </trkpt>
      <trkpt lat="44.60554" lon="3.28109">
        <ele>1045</ele>
        <time>2019-05-30T09:55:26.152Z</time>
      </trkpt>
      <trkpt lat="44.60559" lon="3.28102">
        <ele>1045</ele>
        <time>2019-05-30T09:55:31.141Z</time>
      </trkpt>
      <trkpt lat="44.60562" lon="3.28097">
        <ele>1041</ele>
        <time>2019-05-30T09:55:35.170Z</time>
      </trkpt>
      <trkpt lat="44.60565" lon="3.28091">
        <ele>1041</ele>
        <time>2019-05-30T09:55:40.142Z</time>
      </trkpt>
      <trkpt lat="44.60569" lon="3.28085">
        <ele>1041</ele>
        <time>2019-05-30T09:55:44.176Z</time>
      </trkpt>
      <trkpt lat="44.60573" lon="3.28078">
        <ele>1047</ele>
        <time>2019-05-30T09:55:49.175Z</time>
      </trkpt>
      <trkpt lat="44.60578" lon="3.28072">
        <ele>1047</ele>
        <time>2019-05-30T09:55:54.180Z</time>
      </trkpt>
      <trkpt lat="44.60581" lon="3.28065">
        <ele>1042</ele>
        <time>2019-05-30T09:55:59.139Z</time>
      </trkpt>
      <trkpt lat="44.60585" lon="3.28059">
        <ele>1042</ele>
        <time>2019-05-30T09:56:04.162Z</time>
      </trkpt>
      <trkpt lat="44.60588" lon="3.28052">
        <ele>1042</ele>
        <time>2019-05-30T09:56:09.142Z</time>
      </trkpt>
      <trkpt lat="44.60593" lon="3.28046">
        <ele>1042</ele>
        <time>2019-05-30T09:56:14.121Z</time>
      </trkpt>
      <trkpt lat="44.60597" lon="3.28041">
        <ele>1038</ele>
        <time>2019-05-30T09:56:19.155Z</time>
      </trkpt>
      <trkpt lat="44.60602" lon="3.28033">
        <ele>1043</ele>
        <time>2019-05-30T09:56:24.166Z</time>
      </trkpt>
      <trkpt lat="44.60605" lon="3.28028">
        <ele>1043</ele>
        <time>2019-05-30T09:56:28.151Z</time>
      </trkpt>
      <trkpt lat="44.60608" lon="3.2802">
        <ele>1043</ele>
        <time>2019-05-30T09:56:33.141Z</time>
      </trkpt>
      <trkpt lat="44.60611" lon="3.28013">
        <ele>1041</ele>
        <time>2019-05-30T09:56:38.152Z</time>
      </trkpt>
      <trkpt lat="44.60614" lon="3.28007">
        <ele>1041</ele>
        <time>2019-05-30T09:56:43.168Z</time>
      </trkpt>
      <trkpt lat="44.60618" lon="3.28001">
        <ele>1041</ele>
        <time>2019-05-30T09:56:48.170Z</time>
      </trkpt>
      <trkpt lat="44.60622" lon="3.27996">
        <ele>1041</ele>
        <time>2019-05-30T09:56:53.140Z</time>
      </trkpt>
      <trkpt lat="44.60624" lon="3.27988">
        <ele>1041</ele>
        <time>2019-05-30T09:56:58.147Z</time>
      </trkpt>
      <trkpt lat="44.60628" lon="3.27981">
        <ele>1043</ele>
        <time>2019-05-30T09:57:03.143Z</time>
      </trkpt>
      <trkpt lat="44.60632" lon="3.27975">
        <ele>1043</ele>
        <time>2019-05-30T09:57:08.140Z</time>
      </trkpt>
      <trkpt lat="44.60634" lon="3.2797">
        <ele>1043</ele>
        <time>2019-05-30T09:57:12.178Z</time>
      </trkpt>
      <trkpt lat="44.60636" lon="3.27963">
        <ele>1043</ele>
        <time>2019-05-30T09:57:17.140Z</time>
      </trkpt>
      <trkpt lat="44.60638" lon="3.27957">
        <ele>1039</ele>
        <time>2019-05-30T09:57:22.145Z</time>
      </trkpt>
      <trkpt lat="44.60639" lon="3.27952">
        <ele>1039</ele>
        <time>2019-05-30T09:57:26.159Z</time>
      </trkpt>
      <trkpt lat="44.60641" lon="3.27944">
        <ele>1039</ele>
        <time>2019-05-30T09:57:31.158Z</time>
      </trkpt>
      <trkpt lat="44.60645" lon="3.27937">
        <ele>1039</ele>
        <time>2019-05-30T09:57:36.162Z</time>
      </trkpt>
      <trkpt lat="44.6065" lon="3.2793">
        <ele>1035</ele>
        <time>2019-05-30T09:57:41.145Z</time>
      </trkpt>
      <trkpt lat="44.60653" lon="3.27922">
        <ele>1043</ele>
        <time>2019-05-30T09:57:46.171Z</time>
      </trkpt>
      <trkpt lat="44.60656" lon="3.27914">
        <ele>1043</ele>
        <time>2019-05-30T09:57:51.140Z</time>
      </trkpt>
      <trkpt lat="44.60657" lon="3.27905">
        <ele>1043</ele>
        <time>2019-05-30T09:57:56.184Z</time>
      </trkpt>
      <trkpt lat="44.60661" lon="3.27899">
        <ele>1040</ele>
        <time>2019-05-30T09:58:01.142Z</time>
      </trkpt>
      <trkpt lat="44.60663" lon="3.27891">
        <ele>1040</ele>
        <time>2019-05-30T09:58:06.149Z</time>
      </trkpt>
      <trkpt lat="44.60667" lon="3.27883">
        <ele>1040</ele>
        <time>2019-05-30T09:58:11.142Z</time>
      </trkpt>
      <trkpt lat="44.60671" lon="3.27877">
        <ele>1040</ele>
        <time>2019-05-30T09:58:16.142Z</time>
      </trkpt>
      <trkpt lat="44.60673" lon="3.27871">
        <ele>1036</ele>
        <time>2019-05-30T09:58:20.143Z</time>
      </trkpt>
      <trkpt lat="44.60676" lon="3.27862">
        <ele>1036</ele>
        <time>2019-05-30T09:58:25.141Z</time>
      </trkpt>
      <trkpt lat="44.60678" lon="3.27855">
        <ele>1036</ele>
        <time>2019-05-30T09:58:30.148Z</time>
      </trkpt>
      <trkpt lat="44.60681" lon="3.27847">
        <ele>1045</ele>
        <time>2019-05-30T09:58:35.151Z</time>
      </trkpt>
      <trkpt lat="44.60684" lon="3.27841">
        <ele>1040</ele>
        <time>2019-05-30T09:58:40.143Z</time>
      </trkpt>
      <trkpt lat="44.60687" lon="3.27833">
        <ele>1040</ele>
        <time>2019-05-30T09:58:45.141Z</time>
      </trkpt>
      <trkpt lat="44.6069" lon="3.27825">
        <ele>1040</ele>
        <time>2019-05-30T09:58:50.186Z</time>
      </trkpt>
      <trkpt lat="44.60693" lon="3.27818">
        <ele>1035</ele>
        <time>2019-05-30T09:58:55.178Z</time>
      </trkpt>
      <trkpt lat="44.60696" lon="3.27811">
        <ele>1035</ele>
        <time>2019-05-30T09:59:00.160Z</time>
      </trkpt>
      <trkpt lat="44.60698" lon="3.27803">
        <ele>1035</ele>
        <time>2019-05-30T09:59:05.150Z</time>
      </trkpt>
      <trkpt lat="44.60701" lon="3.27794">
        <ele>1035</ele>
        <time>2019-05-30T09:59:10.175Z</time>
      </trkpt>
      <trkpt lat="44.60703" lon="3.27786">
        <ele>1030</ele>
        <time>2019-05-30T09:59:15.137Z</time>
      </trkpt>
      <trkpt lat="44.60705" lon="3.2778">
        <ele>1030</ele>
        <time>2019-05-30T09:59:20.146Z</time>
      </trkpt>
      <trkpt lat="44.60709" lon="3.27774">
        <ele>1038</ele>
        <time>2019-05-30T09:59:24.179Z</time>
      </trkpt>
      <trkpt lat="44.60714" lon="3.27768">
        <ele>1038</ele>
        <time>2019-05-30T09:59:29.154Z</time>
      </trkpt>
      <trkpt lat="44.60718" lon="3.27763">
        <ele>1033</ele>
        <time>2019-05-30T09:59:33.162Z</time>
      </trkpt>
      <trkpt lat="44.60722" lon="3.27755">
        <ele>1033</ele>
        <time>2019-05-30T09:59:38.156Z</time>
      </trkpt>
      <trkpt lat="44.60727" lon="3.27748">
        <ele>1033</ele>
        <time>2019-05-30T09:59:43.171Z</time>
      </trkpt>
      <trkpt lat="44.6073" lon="3.27739">
        <ele>1033</ele>
        <time>2019-05-30T09:59:48.164Z</time>
      </trkpt>
      <trkpt lat="44.60734" lon="3.27732">
        <ele>1030</ele>
        <time>2019-05-30T09:59:53.137Z</time>
      </trkpt>
      <trkpt lat="44.60738" lon="3.27724">
        <ele>1035</ele>
        <time>2019-05-30T09:59:58.160Z</time>
      </trkpt>
      <trkpt lat="44.60741" lon="3.27716">
        <ele>1035</ele>
        <time>2019-05-30T10:00:03.143Z</time>
      </trkpt>
      <trkpt lat="44.60745" lon="3.27708">
        <ele>1031</ele>
        <time>2019-05-30T10:00:08.139Z</time>
      </trkpt>
      <trkpt lat="44.60749" lon="3.27702">
        <ele>1031</ele>
        <time>2019-05-30T10:00:13.145Z</time>
      </trkpt>
      <trkpt lat="44.60753" lon="3.27696">
        <ele>1031</ele>
        <time>2019-05-30T10:00:18.149Z</time>
      </trkpt>
      <trkpt lat="44.60758" lon="3.2769">
        <ele>1031</ele>
        <time>2019-05-30T10:00:23.143Z</time>
      </trkpt>
      <trkpt lat="44.60762" lon="3.27683">
        <ele>1031</ele>
        <time>2019-05-30T10:00:28.142Z</time>
      </trkpt>
      <trkpt lat="44.60763" lon="3.27678">
        <ele>1027</ele>
        <time>2019-05-30T10:00:32.149Z</time>
      </trkpt>
      <trkpt lat="44.60765" lon="3.27673">
        <ele>1033</ele>
        <time>2019-05-30T10:00:37.171Z</time>
      </trkpt>
      <trkpt lat="44.60768" lon="3.27669">
        <ele>1033</ele>
        <time>2019-05-30T10:00:42.143Z</time>
      </trkpt>
      <trkpt lat="44.60772" lon="3.27663">
        <ele>1033</ele>
        <time>2019-05-30T10:00:47.147Z</time>
      </trkpt>
      <trkpt lat="44.60777" lon="3.27657">
        <ele>1033</ele>
        <time>2019-05-30T10:00:52.143Z</time>
      </trkpt>
      <trkpt lat="44.60781" lon="3.27652">
        <ele>1029</ele>
        <time>2019-05-30T10:00:56.143Z</time>
      </trkpt>
      <trkpt lat="44.60786" lon="3.27644">
        <ele>1029</ele>
        <time>2019-05-30T10:01:01.139Z</time>
      </trkpt>
      <trkpt lat="44.6079" lon="3.27637">
        <ele>1029</ele>
        <time>2019-05-30T10:01:06.146Z</time>
      </trkpt>
      <trkpt lat="44.60795" lon="3.27632">
        <ele>1033</ele>
        <time>2019-05-30T10:01:10.169Z</time>
      </trkpt>
      <trkpt lat="44.608" lon="3.27626">
        <ele>1033</ele>
        <time>2019-05-30T10:01:15.177Z</time>
      </trkpt>
      <trkpt lat="44.60805" lon="3.27621">
        <ele>1028</ele>
        <time>2019-05-30T10:01:20.156Z</time>
      </trkpt>
      <trkpt lat="44.60811" lon="3.27615">
        <ele>1028</ele>
        <time>2019-05-30T10:01:25.147Z</time>
      </trkpt>
      <trkpt lat="44.60815" lon="3.27611">
        <ele>1028</ele>
        <time>2019-05-30T10:01:29.164Z</time>
      </trkpt>
      <trkpt lat="44.60819" lon="3.27604">
        <ele>1028</ele>
        <time>2019-05-30T10:01:34.144Z</time>
      </trkpt>
      <trkpt lat="44.60822" lon="3.27599">
        <ele>1031</ele>
        <time>2019-05-30T10:01:38.175Z</time>
      </trkpt>
      <trkpt lat="44.60826" lon="3.27593">
        <ele>1025</ele>
        <time>2019-05-30T10:01:43.132Z</time>
      </trkpt>
      <trkpt lat="44.6083" lon="3.27588">
        <ele>1025</ele>
        <time>2019-05-30T10:01:48.170Z</time>
      </trkpt>
      <trkpt lat="44.60834" lon="3.27583">
        <ele>1025</ele>
        <time>2019-05-30T10:01:53.139Z</time>
      </trkpt>
      <trkpt lat="44.60837" lon="3.27579">
        <ele>1025</ele>
        <time>2019-05-30T10:01:57.145Z</time>
      </trkpt>
      <trkpt lat="44.60842" lon="3.27575">
        <ele>1025</ele>
        <time>2019-05-30T10:02:02.138Z</time>
      </trkpt>
      <trkpt lat="44.60847" lon="3.2757">
        <ele>1025</ele>
        <time>2019-05-30T10:02:07.144Z</time>
      </trkpt>
      <trkpt lat="44.60852" lon="3.27566">
        <ele>1023</ele>
        <time>2019-05-30T10:02:12.142Z</time>
      </trkpt>
      <trkpt lat="44.60859" lon="3.27561">
        <ele>1023</ele>
        <time>2019-05-30T10:02:17.140Z</time>
      </trkpt>
      <trkpt lat="44.60865" lon="3.27556">
        <ele>1023</ele>
        <time>2019-05-30T10:02:22.170Z</time>
      </trkpt>
      <trkpt lat="44.60869" lon="3.27551">
        <ele>1023</ele>
        <time>2019-05-30T10:02:27.180Z</time>
      </trkpt>
      <trkpt lat="44.60874" lon="3.27545">
        <ele>1023</ele>
        <time>2019-05-30T10:02:32.161Z</time>
      </trkpt>
      <trkpt lat="44.60879" lon="3.27538">
        <ele>1024</ele>
        <time>2019-05-30T10:02:37.174Z</time>
      </trkpt>
      <trkpt lat="44.60885" lon="3.27533">
        <ele>1024</ele>
        <time>2019-05-30T10:02:42.143Z</time>
      </trkpt>
      <trkpt lat="44.6089" lon="3.27527">
        <ele>1024</ele>
        <time>2019-05-30T10:02:47.144Z</time>
      </trkpt>
      <trkpt lat="44.60894" lon="3.27521">
        <ele>1024</ele>
        <time>2019-05-30T10:02:52.144Z</time>
      </trkpt>
      <trkpt lat="44.60899" lon="3.27514">
        <ele>1024</ele>
        <time>2019-05-30T10:02:57.140Z</time>
      </trkpt>
      <trkpt lat="44.60903" lon="3.2751">
        <ele>1025</ele>
        <time>2019-05-30T10:03:01.151Z</time>
      </trkpt>
      <trkpt lat="44.60908" lon="3.27502">
        <ele>1025</ele>
        <time>2019-05-30T10:03:06.172Z</time>
      </trkpt>
      <trkpt lat="44.60914" lon="3.27495">
        <ele>1025</ele>
        <time>2019-05-30T10:03:11.156Z</time>
      </trkpt>
      <trkpt lat="44.60918" lon="3.27488">
        <ele>1025</ele>
        <time>2019-05-30T10:03:16.138Z</time>
      </trkpt>
      <trkpt lat="44.60923" lon="3.27482">
        <ele>1022</ele>
        <time>2019-05-30T10:03:21.166Z</time>
      </trkpt>
      <trkpt lat="44.60928" lon="3.27476">
        <ele>1022</ele>
        <time>2019-05-30T10:03:26.146Z</time>
      </trkpt>
      <trkpt lat="44.60932" lon="3.27469">
        <ele>1026</ele>
        <time>2019-05-30T10:03:31.142Z</time>
      </trkpt>
      <trkpt lat="44.60935" lon="3.27462">
        <ele>1026</ele>
        <time>2019-05-30T10:03:36.143Z</time>
      </trkpt>
      <trkpt lat="44.60939" lon="3.27455">
        <ele>1023</ele>
        <time>2019-05-30T10:03:41.147Z</time>
      </trkpt>
      <trkpt lat="44.60941" lon="3.27449">
        <ele>1023</ele>
        <time>2019-05-30T10:03:45.168Z</time>
      </trkpt>
      <trkpt lat="44.60944" lon="3.27442">
        <ele>1023</ele>
        <time>2019-05-30T10:03:50.120Z</time>
      </trkpt>
      <trkpt lat="44.60947" lon="3.27436">
        <ele>1023</ele>
        <time>2019-05-30T10:03:54.140Z</time>
      </trkpt>
      <trkpt lat="44.6095" lon="3.27428">
        <ele>1020</ele>
        <time>2019-05-30T10:03:59.158Z</time>
      </trkpt>
      <trkpt lat="44.60953" lon="3.27418">
        <ele>1020</ele>
        <time>2019-05-30T10:04:04.141Z</time>
      </trkpt>
      <trkpt lat="44.60955" lon="3.2741">
        <ele>1020</ele>
        <time>2019-05-30T10:04:09.166Z</time>
      </trkpt>
      <trkpt lat="44.60957" lon="3.27402">
        <ele>1019</ele>
        <time>2019-05-30T10:04:14.143Z</time>
      </trkpt>
      <trkpt lat="44.6096" lon="3.27394">
        <ele>1025</ele>
        <time>2019-05-30T10:04:19.139Z</time>
      </trkpt>
      <trkpt lat="44.60962" lon="3.27388">
        <ele>1025</ele>
        <time>2019-05-30T10:04:23.149Z</time>
      </trkpt>
      <trkpt lat="44.60964" lon="3.27379">
        <ele>1025</ele>
        <time>2019-05-30T10:04:28.143Z</time>
      </trkpt>
      <trkpt lat="44.60966" lon="3.27372">
        <ele>1024</ele>
        <time>2019-05-30T10:04:32.146Z</time>
      </trkpt>
      <trkpt lat="44.60968" lon="3.27364">
        <ele>1024</ele>
        <time>2019-05-30T10:04:37.119Z</time>
      </trkpt>
      <trkpt lat="44.6097" lon="3.27358">
        <ele>1024</ele>
        <time>2019-05-30T10:04:41.142Z</time>
      </trkpt>
      <trkpt lat="44.60971" lon="3.27351">
        <ele>1024</ele>
        <time>2019-05-30T10:04:46.136Z</time>
      </trkpt>
      <trkpt lat="44.60973" lon="3.27343">
        <ele>1021</ele>
        <time>2019-05-30T10:04:50.186Z</time>
      </trkpt>
      <trkpt lat="44.60974" lon="3.27334">
        <ele>1021</ele>
        <time>2019-05-30T10:04:55.144Z</time>
      </trkpt>
      <trkpt lat="44.60976" lon="3.27325">
        <ele>1021</ele>
        <time>2019-05-30T10:05:00.159Z</time>
      </trkpt>
      <trkpt lat="44.60979" lon="3.27316">
        <ele>1020</ele>
        <time>2019-05-30T10:05:05.159Z</time>
      </trkpt>
      <trkpt lat="44.60981" lon="3.27308">
        <ele>1020</ele>
        <time>2019-05-30T10:05:10.139Z</time>
      </trkpt>
      <trkpt lat="44.60983" lon="3.273">
        <ele>1020</ele>
        <time>2019-05-30T10:05:15.149Z</time>
      </trkpt>
      <trkpt lat="44.60984" lon="3.27293">
        <ele>1020</ele>
        <time>2019-05-30T10:05:20.143Z</time>
      </trkpt>
      <trkpt lat="44.60985" lon="3.27283">
        <ele>1019</ele>
        <time>2019-05-30T10:05:25.181Z</time>
      </trkpt>
      <trkpt lat="44.60987" lon="3.27274">
        <ele>1023</ele>
        <time>2019-05-30T10:05:30.149Z</time>
      </trkpt>
      <trkpt lat="44.60988" lon="3.27265">
        <ele>1023</ele>
        <time>2019-05-30T10:05:35.149Z</time>
      </trkpt>
      <trkpt lat="44.60989" lon="3.27259">
        <ele>1021</ele>
        <time>2019-05-30T10:05:39.167Z</time>
      </trkpt>
      <trkpt lat="44.60991" lon="3.2725">
        <ele>1021</ele>
        <time>2019-05-30T10:05:44.148Z</time>
      </trkpt>
      <trkpt lat="44.60994" lon="3.27242">
        <ele>1021</ele>
        <time>2019-05-30T10:05:49.147Z</time>
      </trkpt>
      <trkpt lat="44.60997" lon="3.27234">
        <ele>1018</ele>
        <time>2019-05-30T10:05:53.149Z</time>
      </trkpt>
      <trkpt lat="44.61" lon="3.27226">
        <ele>1018</ele>
        <time>2019-05-30T10:05:58.156Z</time>
      </trkpt>
      <trkpt lat="44.61003" lon="3.27219">
        <ele>1018</ele>
        <time>2019-05-30T10:06:02.146Z</time>
      </trkpt>
      <trkpt lat="44.61006" lon="3.27211">
        <ele>1018</ele>
        <time>2019-05-30T10:06:07.154Z</time>
      </trkpt>
      <trkpt lat="44.61009" lon="3.27205">
        <ele>1016</ele>
        <time>2019-05-30T10:06:12.151Z</time>
      </trkpt>
      <trkpt lat="44.61014" lon="3.27199">
        <ele>1016</ele>
        <time>2019-05-30T10:06:17.171Z</time>
      </trkpt>
      <trkpt lat="44.61017" lon="3.27192">
        <ele>1019</ele>
        <time>2019-05-30T10:06:22.149Z</time>
      </trkpt>
      <trkpt lat="44.61021" lon="3.27186">
        <ele>1019</ele>
        <time>2019-05-30T10:06:27.179Z</time>
      </trkpt>
      <trkpt lat="44.61025" lon="3.2718">
        <ele>1017</ele>
        <time>2019-05-30T10:06:32.150Z</time>
      </trkpt>
      <trkpt lat="44.61029" lon="3.27175">
        <ele>1017</ele>
        <time>2019-05-30T10:06:37.143Z</time>
      </trkpt>
      <trkpt lat="44.61034" lon="3.27169">
        <ele>1017</ele>
        <time>2019-05-30T10:06:42.147Z</time>
      </trkpt>
      <trkpt lat="44.61037" lon="3.27166">
        <ele>1017</ele>
        <time>2019-05-30T10:06:46.162Z</time>
      </trkpt>
      <trkpt lat="44.61043" lon="3.27161">
        <ele>1018</ele>
        <time>2019-05-30T10:06:51.168Z</time>
      </trkpt>
      <trkpt lat="44.61048" lon="3.27157">
        <ele>1018</ele>
        <time>2019-05-30T10:06:56.171Z</time>
      </trkpt>
      <trkpt lat="44.61053" lon="3.27155">
        <ele>1018</ele>
        <time>2019-05-30T10:07:01.136Z</time>
      </trkpt>
      <trkpt lat="44.61058" lon="3.27152">
        <ele>1016</ele>
        <time>2019-05-30T10:07:05.167Z</time>
      </trkpt>
      <trkpt lat="44.61064" lon="3.27148">
        <ele>1016</ele>
        <time>2019-05-30T10:07:10.156Z</time>
      </trkpt>
      <trkpt lat="44.61069" lon="3.27146">
        <ele>1016</ele>
        <time>2019-05-30T10:07:15.178Z</time>
      </trkpt>
      <trkpt lat="44.61074" lon="3.27142">
        <ele>1017</ele>
        <time>2019-05-30T10:07:20.146Z</time>
      </trkpt>
      <trkpt lat="44.6108" lon="3.27139">
        <ele>1017</ele>
        <time>2019-05-30T10:07:25.173Z</time>
      </trkpt>
      <trkpt lat="44.61086" lon="3.27135">
        <ele>1017</ele>
        <time>2019-05-30T10:07:30.172Z</time>
      </trkpt>
      <trkpt lat="44.61094" lon="3.27135">
        <ele>1017</ele>
        <time>2019-05-30T10:07:35.144Z</time>
      </trkpt>
      <trkpt lat="44.61098" lon="3.27134">
        <ele>1017</ele>
        <time>2019-05-30T10:07:39.143Z</time>
      </trkpt>
      <trkpt lat="44.61104" lon="3.27134">
        <ele>1017</ele>
        <time>2019-05-30T10:07:44.142Z</time>
      </trkpt>
      <trkpt lat="44.6111" lon="3.27133">
        <ele>1017</ele>
        <time>2019-05-30T10:07:48.145Z</time>
      </trkpt>
      <trkpt lat="44.61115" lon="3.27133">
        <ele>1017</ele>
        <time>2019-05-30T10:07:53.163Z</time>
      </trkpt>
      <trkpt lat="44.6112" lon="3.27133">
        <ele>1017</ele>
        <time>2019-05-30T10:07:58.147Z</time>
      </trkpt>
      <trkpt lat="44.61125" lon="3.27133">
        <ele>1016</ele>
        <time>2019-05-30T10:08:02.144Z</time>
      </trkpt>
      <trkpt lat="44.61132" lon="3.27133">
        <ele>1016</ele>
        <time>2019-05-30T10:08:07.145Z</time>
      </trkpt>
      <trkpt lat="44.61138" lon="3.27134">
        <ele>1016</ele>
        <time>2019-05-30T10:08:12.159Z</time>
      </trkpt>
      <trkpt lat="44.61143" lon="3.27135">
        <ele>1016</ele>
        <time>2019-05-30T10:08:17.143Z</time>
      </trkpt>
      <trkpt lat="44.61148" lon="3.27134">
        <ele>1016</ele>
        <time>2019-05-30T10:08:22.149Z</time>
      </trkpt>
      <trkpt lat="44.61153" lon="3.27132">
        <ele>1015</ele>
        <time>2019-05-30T10:08:27.175Z</time>
      </trkpt>
      <trkpt lat="44.61159" lon="3.27125">
        <ele>1013</ele>
        <time>2019-05-30T10:08:32.164Z</time>
      </trkpt>
      <trkpt lat="44.61165" lon="3.27117">
        <ele>1013</ele>
        <time>2019-05-30T10:08:37.174Z</time>
      </trkpt>
      <trkpt lat="44.61171" lon="3.27108">
        <ele>1013</ele>
        <time>2019-05-30T10:08:42.144Z</time>
      </trkpt>
      <trkpt lat="44.61176" lon="3.27101">
        <ele>1013</ele>
        <time>2019-05-30T10:08:47.146Z</time>
      </trkpt>
      <trkpt lat="44.61181" lon="3.27094">
        <ele>1011</ele>
        <time>2019-05-30T10:08:52.138Z</time>
      </trkpt>
      <trkpt lat="44.61185" lon="3.27089">
        <ele>1011</ele>
        <time>2019-05-30T10:08:56.145Z</time>
      </trkpt>
      <trkpt lat="44.6119" lon="3.27082">
        <ele>1011</ele>
        <time>2019-05-30T10:09:01.138Z</time>
      </trkpt>
      <trkpt lat="44.61193" lon="3.27077">
        <ele>1011</ele>
        <time>2019-05-30T10:09:05.170Z</time>
      </trkpt>
      <trkpt lat="44.61201" lon="3.27064">
        <ele>1011</ele>
        <time>2019-05-30T10:09:19.134Z</time>
      </trkpt>
      <trkpt lat="44.61204" lon="3.2706">
        <ele>1011</ele>
        <time>2019-05-30T10:09:24.163Z</time>
      </trkpt>
      <trkpt lat="44.61207" lon="3.27055">
        <ele>1011</ele>
        <time>2019-05-30T10:09:28.166Z</time>
      </trkpt>
      <trkpt lat="44.61211" lon="3.2705">
        <ele>1009</ele>
        <time>2019-05-30T10:09:33.157Z</time>
      </trkpt>
      <trkpt lat="44.61216" lon="3.27048">
        <ele>1009</ele>
        <time>2019-05-30T10:09:38.185Z</time>
      </trkpt>
      <trkpt lat="44.61222" lon="3.27043">
        <ele>1009</ele>
        <time>2019-05-30T10:09:43.127Z</time>
      </trkpt>
      <trkpt lat="44.61225" lon="3.27035">
        <ele>1009</ele>
        <time>2019-05-30T10:09:48.145Z</time>
      </trkpt>
      <trkpt lat="44.6123" lon="3.27029">
        <ele>1009</ele>
        <time>2019-05-30T10:09:53.145Z</time>
      </trkpt>
      <trkpt lat="44.61234" lon="3.27021">
        <ele>1009</ele>
        <time>2019-05-30T10:09:58.141Z</time>
      </trkpt>
      <trkpt lat="44.61237" lon="3.27013">
        <ele>1012</ele>
        <time>2019-05-30T10:10:03.142Z</time>
      </trkpt>
      <trkpt lat="44.61239" lon="3.27006">
        <ele>1012</ele>
        <time>2019-05-30T10:10:07.162Z</time>
      </trkpt>
      <trkpt lat="44.61242" lon="3.26998">
        <ele>1012</ele>
        <time>2019-05-30T10:10:12.158Z</time>
      </trkpt>
      <trkpt lat="44.61244" lon="3.2699">
        <ele>1012</ele>
        <time>2019-05-30T10:10:17.181Z</time>
      </trkpt>
      <trkpt lat="44.61247" lon="3.26982">
        <ele>1013</ele>
        <time>2019-05-30T10:10:22.145Z</time>
      </trkpt>
      <trkpt lat="44.61249" lon="3.26973">
        <ele>1013</ele>
        <time>2019-05-30T10:10:27.143Z</time>
      </trkpt>
      <trkpt lat="44.61252" lon="3.26964">
        <ele>1013</ele>
        <time>2019-05-30T10:10:32.152Z</time>
      </trkpt>
      <trkpt lat="44.61256" lon="3.26957">
        <ele>1013</ele>
        <time>2019-05-30T10:10:37.143Z</time>
      </trkpt>
      <trkpt lat="44.61259" lon="3.26949">
        <ele>1013</ele>
        <time>2019-05-30T10:10:42.144Z</time>
      </trkpt>
      <trkpt lat="44.61262" lon="3.26943">
        <ele>1013</ele>
        <time>2019-05-30T10:10:47.148Z</time>
      </trkpt>
      <trkpt lat="44.61265" lon="3.26938">
        <ele>1015</ele>
        <time>2019-05-30T10:10:51.172Z</time>
      </trkpt>
      <trkpt lat="44.6127" lon="3.26931">
        <ele>1015</ele>
        <time>2019-05-30T10:10:56.143Z</time>
      </trkpt>
      <trkpt lat="44.61272" lon="3.26926">
        <ele>1016</ele>
        <time>2019-05-30T10:11:00.189Z</time>
      </trkpt>
      <trkpt lat="44.61278" lon="3.2692">
        <ele>1016</ele>
        <time>2019-05-30T10:11:05.165Z</time>
      </trkpt>
      <trkpt lat="44.61283" lon="3.26915">
        <ele>1016</ele>
        <time>2019-05-30T10:11:10.141Z</time>
      </trkpt>
      <trkpt lat="44.61288" lon="3.26909">
        <ele>1016</ele>
        <time>2019-05-30T10:11:15.140Z</time>
      </trkpt>
      <trkpt lat="44.61293" lon="3.26901">
        <ele>1016</ele>
        <time>2019-05-30T10:11:20.133Z</time>
      </trkpt>
      <trkpt lat="44.61297" lon="3.26896">
        <ele>1016</ele>
        <time>2019-05-30T10:11:24.153Z</time>
      </trkpt>
      <trkpt lat="44.61302" lon="3.26889">
        <ele>1016</ele>
        <time>2019-05-30T10:11:29.150Z</time>
      </trkpt>
      <trkpt lat="44.61307" lon="3.26881">
        <ele>1016</ele>
        <time>2019-05-30T10:11:34.143Z</time>
      </trkpt>
      <trkpt lat="44.61312" lon="3.26875">
        <ele>1016</ele>
        <time>2019-05-30T10:11:38.146Z</time>
      </trkpt>
      <trkpt lat="44.61316" lon="3.26868">
        <ele>1018</ele>
        <time>2019-05-30T10:11:43.149Z</time>
      </trkpt>
      <trkpt lat="44.61321" lon="3.26861">
        <ele>1016</ele>
        <time>2019-05-30T10:11:48.136Z</time>
      </trkpt>
      <trkpt lat="44.61325" lon="3.26855">
        <ele>1016</ele>
        <time>2019-05-30T10:11:53.134Z</time>
      </trkpt>
      <trkpt lat="44.61328" lon="3.26849">
        <ele>1016</ele>
        <time>2019-05-30T10:11:57.149Z</time>
      </trkpt>
      <trkpt lat="44.61332" lon="3.26844">
        <ele>1019</ele>
        <time>2019-05-30T10:12:02.143Z</time>
      </trkpt>
      <trkpt lat="44.61334" lon="3.26837">
        <ele>1019</ele>
        <time>2019-05-30T10:12:07.139Z</time>
      </trkpt>
      <trkpt lat="44.61339" lon="3.26831">
        <ele>1019</ele>
        <time>2019-05-30T10:12:12.150Z</time>
      </trkpt>
      <trkpt lat="44.61344" lon="3.26823">
        <ele>1019</ele>
        <time>2019-05-30T10:12:17.140Z</time>
      </trkpt>
      <trkpt lat="44.61349" lon="3.26818">
        <ele>1020</ele>
        <time>2019-05-30T10:12:21.142Z</time>
      </trkpt>
      <trkpt lat="44.61355" lon="3.26812">
        <ele>1020</ele>
        <time>2019-05-30T10:12:26.144Z</time>
      </trkpt>
      <trkpt lat="44.61358" lon="3.26805">
        <ele>1020</ele>
        <time>2019-05-30T10:12:31.145Z</time>
      </trkpt>
      <trkpt lat="44.61361" lon="3.268">
        <ele>1020</ele>
        <time>2019-05-30T10:12:35.144Z</time>
      </trkpt>
      <trkpt lat="44.61366" lon="3.26793">
        <ele>1020</ele>
        <time>2019-05-30T10:12:40.142Z</time>
      </trkpt>
      <trkpt lat="44.61371" lon="3.26788">
        <ele>1021</ele>
        <time>2019-05-30T10:12:45.145Z</time>
      </trkpt>
      <trkpt lat="44.61376" lon="3.26781">
        <ele>1021</ele>
        <time>2019-05-30T10:12:50.157Z</time>
      </trkpt>
      <trkpt lat="44.61381" lon="3.26772">
        <ele>1021</ele>
        <time>2019-05-30T10:12:55.148Z</time>
      </trkpt>
      <trkpt lat="44.61384" lon="3.26764">
        <ele>1020</ele>
        <time>2019-05-30T10:13:00.130Z</time>
      </trkpt>
      <trkpt lat="44.61388" lon="3.26757">
        <ele>1020</ele>
        <time>2019-05-30T10:13:04.142Z</time>
      </trkpt>
      <trkpt lat="44.61392" lon="3.26751">
        <ele>1020</ele>
        <time>2019-05-30T10:13:09.142Z</time>
      </trkpt>
      <trkpt lat="44.61395" lon="3.26744">
        <ele>1020</ele>
        <time>2019-05-30T10:13:14.142Z</time>
      </trkpt>
      <trkpt lat="44.61396" lon="3.26739">
        <ele>1020</ele>
        <time>2019-05-30T10:13:18.142Z</time>
      </trkpt>
      <trkpt lat="44.61398" lon="3.26732">
        <ele>1019</ele>
        <time>2019-05-30T10:13:23.140Z</time>
      </trkpt>
      <trkpt lat="44.61399" lon="3.26724">
        <ele>1019</ele>
        <time>2019-05-30T10:13:28.184Z</time>
      </trkpt>
      <trkpt lat="44.61402" lon="3.26717">
        <ele>1019</ele>
        <time>2019-05-30T10:13:33.174Z</time>
      </trkpt>
      <trkpt lat="44.61407" lon="3.2671">
        <ele>1019</ele>
        <time>2019-05-30T10:13:38.144Z</time>
      </trkpt>
      <trkpt lat="44.61411" lon="3.26704">
        <ele>1019</ele>
        <time>2019-05-30T10:13:42.150Z</time>
      </trkpt>
      <trkpt lat="44.61416" lon="3.26697">
        <ele>1019</ele>
        <time>2019-05-30T10:13:47.140Z</time>
      </trkpt>
      <trkpt lat="44.61421" lon="3.2669">
        <ele>1019</ele>
        <time>2019-05-30T10:13:52.149Z</time>
      </trkpt>
      <trkpt lat="44.61426" lon="3.26684">
        <ele>1019</ele>
        <time>2019-05-30T10:13:57.148Z</time>
      </trkpt>
      <trkpt lat="44.6143" lon="3.26677">
        <ele>1018</ele>
        <time>2019-05-30T10:14:02.146Z</time>
      </trkpt>
      <trkpt lat="44.61433" lon="3.2667">
        <ele>1019</ele>
        <time>2019-05-30T10:14:07.140Z</time>
      </trkpt>
      <trkpt lat="44.61436" lon="3.26664">
        <ele>1019</ele>
        <time>2019-05-30T10:14:11.147Z</time>
      </trkpt>
      <trkpt lat="44.61439" lon="3.26657">
        <ele>1019</ele>
        <time>2019-05-30T10:14:16.138Z</time>
      </trkpt>
      <trkpt lat="44.61443" lon="3.2665">
        <ele>1019</ele>
        <time>2019-05-30T10:14:21.144Z</time>
      </trkpt>
      <trkpt lat="44.61446" lon="3.26644">
        <ele>1019</ele>
        <time>2019-05-30T10:14:25.144Z</time>
      </trkpt>
      <trkpt lat="44.6145" lon="3.26638">
        <ele>1019</ele>
        <time>2019-05-30T10:14:30.172Z</time>
      </trkpt>
      <trkpt lat="44.61454" lon="3.26632">
        <ele>1019</ele>
        <time>2019-05-30T10:14:35.144Z</time>
      </trkpt>
      <trkpt lat="44.61457" lon="3.26628">
        <ele>1019</ele>
        <time>2019-05-30T10:14:39.161Z</time>
      </trkpt>
      <trkpt lat="44.6146" lon="3.26622">
        <ele>1021</ele>
        <time>2019-05-30T10:14:44.144Z</time>
      </trkpt>
      <trkpt lat="44.61464" lon="3.26615">
        <ele>1021</ele>
        <time>2019-05-30T10:14:49.149Z</time>
      </trkpt>
      <trkpt lat="44.61468" lon="3.26608">
        <ele>1021</ele>
        <time>2019-05-30T10:14:54.141Z</time>
      </trkpt>
      <trkpt lat="44.61472" lon="3.26605">
        <ele>1021</ele>
        <time>2019-05-30T10:14:58.150Z</time>
      </trkpt>
      <trkpt lat="44.61476" lon="3.26599">
        <ele>1021</ele>
        <time>2019-05-30T10:15:03.141Z</time>
      </trkpt>
      <trkpt lat="44.6148" lon="3.26595">
        <ele>1021</ele>
        <time>2019-05-30T10:15:07.144Z</time>
      </trkpt>
      <trkpt lat="44.61485" lon="3.26589">
        <ele>1021</ele>
        <time>2019-05-30T10:15:12.122Z</time>
      </trkpt>
      <trkpt lat="44.6149" lon="3.26585">
        <ele>1023</ele>
        <time>2019-05-30T10:15:16.141Z</time>
      </trkpt>
      <trkpt lat="44.61494" lon="3.2658">
        <ele>1023</ele>
        <time>2019-05-30T10:15:20.176Z</time>
      </trkpt>
      <trkpt lat="44.61499" lon="3.26574">
        <ele>1023</ele>
        <time>2019-05-30T10:15:25.144Z</time>
      </trkpt>
      <trkpt lat="44.61503" lon="3.2657">
        <ele>1023</ele>
        <time>2019-05-30T10:15:29.179Z</time>
      </trkpt>
      <trkpt lat="44.61507" lon="3.26566">
        <ele>1022</ele>
        <time>2019-05-30T10:15:34.144Z</time>
      </trkpt>
      <trkpt lat="44.61511" lon="3.26562">
        <ele>1022</ele>
        <time>2019-05-30T10:15:38.177Z</time>
      </trkpt>
      <trkpt lat="44.61516" lon="3.26558">
        <ele>1022</ele>
        <time>2019-05-30T10:15:43.154Z</time>
      </trkpt>
      <trkpt lat="44.61521" lon="3.26553">
        <ele>1022</ele>
        <time>2019-05-30T10:15:48.142Z</time>
      </trkpt>
      <trkpt lat="44.61524" lon="3.26548">
        <ele>1022</ele>
        <time>2019-05-30T10:15:52.172Z</time>
      </trkpt>
      <trkpt lat="44.61529" lon="3.26544">
        <ele>1022</ele>
        <time>2019-05-30T10:15:57.139Z</time>
      </trkpt>
      <trkpt lat="44.61535" lon="3.2654">
        <ele>1019</ele>
        <time>2019-05-30T10:16:02.143Z</time>
      </trkpt>
      <trkpt lat="44.61541" lon="3.26535">
        <ele>1019</ele>
        <time>2019-05-30T10:16:07.141Z</time>
      </trkpt>
      <trkpt lat="44.61546" lon="3.26531">
        <ele>1020</ele>
        <time>2019-05-30T10:16:12.165Z</time>
      </trkpt>
      <trkpt lat="44.61552" lon="3.26527">
        <ele>1020</ele>
        <time>2019-05-30T10:16:17.142Z</time>
      </trkpt>
      <trkpt lat="44.61556" lon="3.26522">
        <ele>1020</ele>
        <time>2019-05-30T10:16:21.164Z</time>
      </trkpt>
      <trkpt lat="44.61561" lon="3.26517">
        <ele>1020</ele>
        <time>2019-05-30T10:16:26.167Z</time>
      </trkpt>
      <trkpt lat="44.61565" lon="3.26513">
        <ele>1017</ele>
        <time>2019-05-30T10:16:30.173Z</time>
      </trkpt>
      <trkpt lat="44.61571" lon="3.26508">
        <ele>1018</ele>
        <time>2019-05-30T10:16:35.144Z</time>
      </trkpt>
      <trkpt lat="44.61577" lon="3.26505">
        <ele>1018</ele>
        <time>2019-05-30T10:16:40.148Z</time>
      </trkpt>
      <trkpt lat="44.61582" lon="3.26502">
        <ele>1018</ele>
        <time>2019-05-30T10:16:45.140Z</time>
      </trkpt>
      <trkpt lat="44.61587" lon="3.265">
        <ele>1018</ele>
        <time>2019-05-30T10:16:49.143Z</time>
      </trkpt>
      <trkpt lat="44.61592" lon="3.26498">
        <ele>1018</ele>
        <time>2019-05-30T10:16:54.162Z</time>
      </trkpt>
      <trkpt lat="44.61598" lon="3.26496">
        <ele>1020</ele>
        <time>2019-05-30T10:16:59.141Z</time>
      </trkpt>
      <trkpt lat="44.61603" lon="3.2649">
        <ele>1020</ele>
        <time>2019-05-30T10:17:04.141Z</time>
      </trkpt>
      <trkpt lat="44.61608" lon="3.26487">
        <ele>1020</ele>
        <time>2019-05-30T10:17:08.148Z</time>
      </trkpt>
      <trkpt lat="44.61615" lon="3.26485">
        <ele>1016</ele>
        <time>2019-05-30T10:17:13.135Z</time>
      </trkpt>
      <trkpt lat="44.6162" lon="3.26483">
        <ele>1016</ele>
        <time>2019-05-30T10:17:18.149Z</time>
      </trkpt>
      <trkpt lat="44.61626" lon="3.2648">
        <ele>1017</ele>
        <time>2019-05-30T10:17:23.144Z</time>
      </trkpt>
      <trkpt lat="44.61633" lon="3.26477">
        <ele>1017</ele>
        <time>2019-05-30T10:17:28.141Z</time>
      </trkpt>
      <trkpt lat="44.61638" lon="3.26474">
        <ele>1017</ele>
        <time>2019-05-30T10:17:32.171Z</time>
      </trkpt>
      <trkpt lat="44.61644" lon="3.26471">
        <ele>1017</ele>
        <time>2019-05-30T10:17:37.122Z</time>
      </trkpt>
      <trkpt lat="44.61648" lon="3.26468">
        <ele>1017</ele>
        <time>2019-05-30T10:17:41.144Z</time>
      </trkpt>
      <trkpt lat="44.61654" lon="3.26465">
        <ele>1020</ele>
        <time>2019-05-30T10:17:46.140Z</time>
      </trkpt>
      <trkpt lat="44.61658" lon="3.26462">
        <ele>1020</ele>
        <time>2019-05-30T10:17:50.147Z</time>
      </trkpt>
      <trkpt lat="44.61664" lon="3.26459">
        <ele>1020</ele>
        <time>2019-05-30T10:17:55.144Z</time>
      </trkpt>
      <trkpt lat="44.6167" lon="3.26455">
        <ele>1016</ele>
        <time>2019-05-30T10:18:00.146Z</time>
      </trkpt>
      <trkpt lat="44.61675" lon="3.26451">
        <ele>1016</ele>
        <time>2019-05-30T10:18:05.142Z</time>
      </trkpt>
      <trkpt lat="44.6168" lon="3.26449">
        <ele>1016</ele>
        <time>2019-05-30T10:18:09.172Z</time>
      </trkpt>
      <trkpt lat="44.61685" lon="3.26444">
        <ele>1018</ele>
        <time>2019-05-30T10:18:14.140Z</time>
      </trkpt>
      <trkpt lat="44.6169" lon="3.26442">
        <ele>1018</ele>
        <time>2019-05-30T10:18:19.168Z</time>
      </trkpt>
      <trkpt lat="44.61696" lon="3.26439">
        <ele>1018</ele>
        <time>2019-05-30T10:18:24.141Z</time>
      </trkpt>
      <trkpt lat="44.61702" lon="3.26436">
        <ele>1018</ele>
        <time>2019-05-30T10:18:29.135Z</time>
      </trkpt>
      <trkpt lat="44.61709" lon="3.26433">
        <ele>1020</ele>
        <time>2019-05-30T10:18:34.146Z</time>
      </trkpt>
      <trkpt lat="44.61716" lon="3.26428">
        <ele>1017</ele>
        <time>2019-05-30T10:18:39.160Z</time>
      </trkpt>
      <trkpt lat="44.61721" lon="3.26424">
        <ele>1017</ele>
        <time>2019-05-30T10:18:44.142Z</time>
      </trkpt>
      <trkpt lat="44.61729" lon="3.26419">
        <ele>1017</ele>
        <time>2019-05-30T10:18:49.145Z</time>
      </trkpt>
      <trkpt lat="44.61734" lon="3.26417">
        <ele>1017</ele>
        <time>2019-05-30T10:18:53.152Z</time>
      </trkpt>
      <trkpt lat="44.6174" lon="3.26413">
        <ele>1018</ele>
        <time>2019-05-30T10:18:58.143Z</time>
      </trkpt>
      <trkpt lat="44.61746" lon="3.2641">
        <ele>1018</ele>
        <time>2019-05-30T10:19:03.140Z</time>
      </trkpt>
      <trkpt lat="44.6175" lon="3.26407">
        <ele>1018</ele>
        <time>2019-05-30T10:19:07.155Z</time>
      </trkpt>
      <trkpt lat="44.61756" lon="3.26403">
        <ele>1018</ele>
        <time>2019-05-30T10:19:12.172Z</time>
      </trkpt>
      <trkpt lat="44.61762" lon="3.264">
        <ele>1015</ele>
        <time>2019-05-30T10:19:17.151Z</time>
      </trkpt>
      <trkpt lat="44.61769" lon="3.26397">
        <ele>1016</ele>
        <time>2019-05-30T10:19:22.153Z</time>
      </trkpt>
      <trkpt lat="44.61776" lon="3.26393">
        <ele>1016</ele>
        <time>2019-05-30T10:19:27.151Z</time>
      </trkpt>
      <trkpt lat="44.61782" lon="3.26389">
        <ele>1016</ele>
        <time>2019-05-30T10:19:32.141Z</time>
      </trkpt>
      <trkpt lat="44.61786" lon="3.26387">
        <ele>1016</ele>
        <time>2019-05-30T10:19:36.142Z</time>
      </trkpt>
      <trkpt lat="44.61792" lon="3.26383">
        <ele>1016</ele>
        <time>2019-05-30T10:19:41.142Z</time>
      </trkpt>
      <trkpt lat="44.61797" lon="3.26379">
        <ele>1020</ele>
        <time>2019-05-30T10:19:46.169Z</time>
      </trkpt>
      <trkpt lat="44.61802" lon="3.26376">
        <ele>1020</ele>
        <time>2019-05-30T10:19:51.143Z</time>
      </trkpt>
      <trkpt lat="44.61808" lon="3.26375">
        <ele>1017</ele>
        <time>2019-05-30T10:19:56.142Z</time>
      </trkpt>
      <trkpt lat="44.61815" lon="3.26371">
        <ele>1017</ele>
        <time>2019-05-30T10:20:01.143Z</time>
      </trkpt>
      <trkpt lat="44.61821" lon="3.26367">
        <ele>1019</ele>
        <time>2019-05-30T10:20:06.144Z</time>
      </trkpt>
      <trkpt lat="44.61827" lon="3.26362">
        <ele>1019</ele>
        <time>2019-05-30T10:20:11.136Z</time>
      </trkpt>
      <trkpt lat="44.61831" lon="3.26359">
        <ele>1019</ele>
        <time>2019-05-30T10:20:15.143Z</time>
      </trkpt>
      <trkpt lat="44.61836" lon="3.26356">
        <ele>1019</ele>
        <time>2019-05-30T10:20:20.145Z</time>
      </trkpt>
      <trkpt lat="44.61842" lon="3.26353">
        <ele>1019</ele>
        <time>2019-05-30T10:20:25.182Z</time>
      </trkpt>
      <trkpt lat="44.61848" lon="3.26351">
        <ele>1021</ele>
        <time>2019-05-30T10:20:30.168Z</time>
      </trkpt>
      <trkpt lat="44.61854" lon="3.26352">
        <ele>1021</ele>
        <time>2019-05-30T10:20:34.172Z</time>
      </trkpt>
      <trkpt lat="44.61861" lon="3.26349">
        <ele>1021</ele>
        <time>2019-05-30T10:20:39.160Z</time>
      </trkpt>
      <trkpt lat="44.61867" lon="3.26348">
        <ele>1021</ele>
        <time>2019-05-30T10:20:44.172Z</time>
      </trkpt>
      <trkpt lat="44.61872" lon="3.26349">
        <ele>1021</ele>
        <time>2019-05-30T10:20:49.149Z</time>
      </trkpt>
      <trkpt lat="44.61876" lon="3.26348">
        <ele>1022</ele>
        <time>2019-05-30T10:20:53.162Z</time>
      </trkpt>
      <trkpt lat="44.61881" lon="3.26348">
        <ele>1022</ele>
        <time>2019-05-30T10:20:58.133Z</time>
      </trkpt>
      <trkpt lat="44.61886" lon="3.26349">
        <ele>1022</ele>
        <time>2019-05-30T10:21:02.145Z</time>
      </trkpt>
      <trkpt lat="44.61893" lon="3.2635">
        <ele>1022</ele>
        <time>2019-05-30T10:21:07.173Z</time>
      </trkpt>
      <trkpt lat="44.61898" lon="3.26352">
        <ele>1022</ele>
        <time>2019-05-30T10:21:12.144Z</time>
      </trkpt>
      <trkpt lat="44.61903" lon="3.2635">
        <ele>1024</ele>
        <time>2019-05-30T10:21:16.151Z</time>
      </trkpt>
      <trkpt lat="44.61908" lon="3.26343">
        <ele>1022</ele>
        <time>2019-05-30T10:21:21.139Z</time>
      </trkpt>
      <trkpt lat="44.6191" lon="3.26333">
        <ele>1022</ele>
        <time>2019-05-30T10:21:26.144Z</time>
      </trkpt>
      <trkpt lat="44.61911" lon="3.26325">
        <ele>1022</ele>
        <time>2019-05-30T10:21:30.142Z</time>
      </trkpt>
      <trkpt lat="44.61912" lon="3.26315">
        <ele>1021</ele>
        <time>2019-05-30T10:21:35.153Z</time>
      </trkpt>
      <trkpt lat="44.61912" lon="3.26305">
        <ele>1021</ele>
        <time>2019-05-30T10:21:40.142Z</time>
      </trkpt>
      <trkpt lat="44.61911" lon="3.26297">
        <ele>1021</ele>
        <time>2019-05-30T10:21:45.141Z</time>
      </trkpt>
      <trkpt lat="44.61911" lon="3.26291">
        <ele>1021</ele>
        <time>2019-05-30T10:21:49.172Z</time>
      </trkpt>
      <trkpt lat="44.61908" lon="3.26282">
        <ele>1021</ele>
        <time>2019-05-30T10:21:54.143Z</time>
      </trkpt>
      <trkpt lat="44.61907" lon="3.26273">
        <ele>1021</ele>
        <time>2019-05-30T10:21:59.163Z</time>
      </trkpt>
      <trkpt lat="44.61909" lon="3.26265">
        <ele>1021</ele>
        <time>2019-05-30T10:22:04.143Z</time>
      </trkpt>
      <trkpt lat="44.61912" lon="3.26257">
        <ele>1021</ele>
        <time>2019-05-30T10:22:09.177Z</time>
      </trkpt>
      <trkpt lat="44.61915" lon="3.26249">
        <ele>1021</ele>
        <time>2019-05-30T10:22:14.151Z</time>
      </trkpt>
      <trkpt lat="44.61918" lon="3.26241">
        <ele>1021</ele>
        <time>2019-05-30T10:22:19.135Z</time>
      </trkpt>
      <trkpt lat="44.61921" lon="3.26235">
        <ele>1019</ele>
        <time>2019-05-30T10:22:23.144Z</time>
      </trkpt>
      <trkpt lat="44.61924" lon="3.26227">
        <ele>1019</ele>
        <time>2019-05-30T10:22:28.141Z</time>
      </trkpt>
      <trkpt lat="44.61928" lon="3.2622">
        <ele>1019</ele>
        <time>2019-05-30T10:22:33.141Z</time>
      </trkpt>
      <trkpt lat="44.61933" lon="3.26211">
        <ele>1023</ele>
        <time>2019-05-30T10:22:38.153Z</time>
      </trkpt>
      <trkpt lat="44.61934" lon="3.26202">
        <ele>1022</ele>
        <time>2019-05-30T10:22:43.121Z</time>
      </trkpt>
      <trkpt lat="44.61936" lon="3.26197">
        <ele>1022</ele>
        <time>2019-05-30T10:22:47.138Z</time>
      </trkpt>
      <trkpt lat="44.61938" lon="3.2619">
        <ele>1022</ele>
        <time>2019-05-30T10:22:52.140Z</time>
      </trkpt>
      <trkpt lat="44.6194" lon="3.26184">
        <ele>1022</ele>
        <time>2019-05-30T10:22:56.161Z</time>
      </trkpt>
      <trkpt lat="44.61942" lon="3.26178">
        <ele>1020</ele>
        <time>2019-05-30T10:23:01.156Z</time>
      </trkpt>
      <trkpt lat="44.61944" lon="3.26171">
        <ele>1020</ele>
        <time>2019-05-30T10:23:06.162Z</time>
      </trkpt>
      <trkpt lat="44.61947" lon="3.26164">
        <ele>1020</ele>
        <time>2019-05-30T10:23:11.146Z</time>
      </trkpt>
      <trkpt lat="44.6195" lon="3.26156">
        <ele>1020</ele>
        <time>2019-05-30T10:23:16.145Z</time>
      </trkpt>
      <trkpt lat="44.61953" lon="3.26148">
        <ele>1019</ele>
        <time>2019-05-30T10:23:21.149Z</time>
      </trkpt>
      <trkpt lat="44.61957" lon="3.26141">
        <ele>1019</ele>
        <time>2019-05-30T10:23:26.146Z</time>
      </trkpt>
      <trkpt lat="44.61962" lon="3.26134">
        <ele>1021</ele>
        <time>2019-05-30T10:23:31.138Z</time>
      </trkpt>
      <trkpt lat="44.61967" lon="3.26128">
        <ele>1021</ele>
        <time>2019-05-30T10:23:36.143Z</time>
      </trkpt>
      <trkpt lat="44.61972" lon="3.26122">
        <ele>1018</ele>
        <time>2019-05-30T10:23:41.141Z</time>
      </trkpt>
      <trkpt lat="44.61976" lon="3.26117">
        <ele>1018</ele>
        <time>2019-05-30T10:23:45.153Z</time>
      </trkpt>
      <trkpt lat="44.61978" lon="3.26109">
        <ele>1018</ele>
        <time>2019-05-30T10:23:50.140Z</time>
      </trkpt>
      <trkpt lat="44.61985" lon="3.26101">
        <ele>1018</ele>
        <time>2019-05-30T10:23:55.145Z</time>
      </trkpt>
      <trkpt lat="44.61991" lon="3.26095">
        <ele>1017</ele>
        <time>2019-05-30T10:24:00.158Z</time>
      </trkpt>
      <trkpt lat="44.61996" lon="3.26089">
        <ele>1017</ele>
        <time>2019-05-30T10:24:05.173Z</time>
      </trkpt>
      <trkpt lat="44.62001" lon="3.26084">
        <ele>1017</ele>
        <time>2019-05-30T10:24:10.168Z</time>
      </trkpt>
      <trkpt lat="44.62006" lon="3.26078">
        <ele>1017</ele>
        <time>2019-05-30T10:24:15.141Z</time>
      </trkpt>
      <trkpt lat="44.62011" lon="3.26072">
        <ele>1017</ele>
        <time>2019-05-30T10:24:20.142Z</time>
      </trkpt>
      <trkpt lat="44.62017" lon="3.26065">
        <ele>1018</ele>
        <time>2019-05-30T10:24:25.136Z</time>
      </trkpt>
      <trkpt lat="44.62021" lon="3.2606">
        <ele>1018</ele>
        <time>2019-05-30T10:24:29.149Z</time>
      </trkpt>
      <trkpt lat="44.62024" lon="3.26055">
        <ele>1018</ele>
        <time>2019-05-30T10:24:34.133Z</time>
      </trkpt>
      <trkpt lat="44.62027" lon="3.26049">
        <ele>1018</ele>
        <time>2019-05-30T10:24:38.144Z</time>
      </trkpt>
      <trkpt lat="44.62031" lon="3.2604">
        <ele>1018</ele>
        <time>2019-05-30T10:24:43.143Z</time>
      </trkpt>
      <trkpt lat="44.62032" lon="3.26032">
        <ele>1018</ele>
        <time>2019-05-30T10:24:47.175Z</time>
      </trkpt>
      <trkpt lat="44.62032" lon="3.26025">
        <ele>1018</ele>
        <time>2019-05-30T10:24:52.135Z</time>
      </trkpt>
      <trkpt lat="44.62033" lon="3.26016">
        <ele>1018</ele>
        <time>2019-05-30T10:24:57.143Z</time>
      </trkpt>
      <trkpt lat="44.62033" lon="3.26006">
        <ele>1018</ele>
        <time>2019-05-30T10:25:02.144Z</time>
      </trkpt>
      <trkpt lat="44.62034" lon="3.25997">
        <ele>1018</ele>
        <time>2019-05-30T10:25:07.138Z</time>
      </trkpt>
      <trkpt lat="44.62034" lon="3.25987">
        <ele>1018</ele>
        <time>2019-05-30T10:25:12.142Z</time>
      </trkpt>
      <trkpt lat="44.62032" lon="3.25979">
        <ele>1020</ele>
        <time>2019-05-30T10:25:16.175Z</time>
      </trkpt>
      <trkpt lat="44.62031" lon="3.25973">
        <ele>1020</ele>
        <time>2019-05-30T10:25:20.153Z</time>
      </trkpt>
      <trkpt lat="44.6203" lon="3.25966">
        <ele>1020</ele>
        <time>2019-05-30T10:25:24.173Z</time>
      </trkpt>
      <trkpt lat="44.62028" lon="3.25957">
        <ele>1021</ele>
        <time>2019-05-30T10:25:29.153Z</time>
      </trkpt>
      <trkpt lat="44.62028" lon="3.25949">
        <ele>1021</ele>
        <time>2019-05-30T10:25:33.149Z</time>
      </trkpt>
      <trkpt lat="44.62026" lon="3.25941">
        <ele>1021</ele>
        <time>2019-05-30T10:25:38.183Z</time>
      </trkpt>
      <trkpt lat="44.62025" lon="3.25933">
        <ele>1021</ele>
        <time>2019-05-30T10:25:43.152Z</time>
      </trkpt>
      <trkpt lat="44.62025" lon="3.25924">
        <ele>1022</ele>
        <time>2019-05-30T10:25:48.144Z</time>
      </trkpt>
      <trkpt lat="44.62025" lon="3.25917">
        <ele>1022</ele>
        <time>2019-05-30T10:25:52.153Z</time>
      </trkpt>
      <trkpt lat="44.62025" lon="3.25908">
        <ele>1022</ele>
        <time>2019-05-30T10:25:57.143Z</time>
      </trkpt>
      <trkpt lat="44.62025" lon="3.259">
        <ele>1023</ele>
        <time>2019-05-30T10:26:01.141Z</time>
      </trkpt>
      <trkpt lat="44.62025" lon="3.25893">
        <ele>1023</ele>
        <time>2019-05-30T10:26:05.173Z</time>
      </trkpt>
      <trkpt lat="44.62025" lon="3.25885">
        <ele>1023</ele>
        <time>2019-05-30T10:26:10.145Z</time>
      </trkpt>
      <trkpt lat="44.62026" lon="3.25879">
        <ele>1023</ele>
        <time>2019-05-30T10:26:14.145Z</time>
      </trkpt>
      <trkpt lat="44.62028" lon="3.25871">
        <ele>1024</ele>
        <time>2019-05-30T10:26:19.161Z</time>
      </trkpt>
      <trkpt lat="44.6203" lon="3.25862">
        <ele>1024</ele>
        <time>2019-05-30T10:26:24.148Z</time>
      </trkpt>
      <trkpt lat="44.62031" lon="3.25855">
        <ele>1024</ele>
        <time>2019-05-30T10:26:28.180Z</time>
      </trkpt>
      <trkpt lat="44.62033" lon="3.25848">
        <ele>1024</ele>
        <time>2019-05-30T10:26:33.148Z</time>
      </trkpt>
      <trkpt lat="44.62036" lon="3.25842">
        <ele>1024</ele>
        <time>2019-05-30T10:26:37.182Z</time>
      </trkpt>
      <trkpt lat="44.62039" lon="3.25834">
        <ele>1024</ele>
        <time>2019-05-30T10:26:42.148Z</time>
      </trkpt>
      <trkpt lat="44.62041" lon="3.25827">
        <ele>1024</ele>
        <time>2019-05-30T10:26:47.143Z</time>
      </trkpt>
      <trkpt lat="44.62045" lon="3.25819">
        <ele>1028</ele>
        <time>2019-05-30T10:26:52.138Z</time>
      </trkpt>
      <trkpt lat="44.62047" lon="3.25813">
        <ele>1028</ele>
        <time>2019-05-30T10:26:56.141Z</time>
      </trkpt>
      <trkpt lat="44.6205" lon="3.25806">
        <ele>1028</ele>
        <time>2019-05-30T10:27:01.163Z</time>
      </trkpt>
      <trkpt lat="44.62053" lon="3.25798">
        <ele>1028</ele>
        <time>2019-05-30T10:27:06.142Z</time>
      </trkpt>
      <trkpt lat="44.62055" lon="3.25791">
        <ele>1028</ele>
        <time>2019-05-30T10:27:10.162Z</time>
      </trkpt>
      <trkpt lat="44.62057" lon="3.25784">
        <ele>1028</ele>
        <time>2019-05-30T10:27:14.174Z</time>
      </trkpt>
      <trkpt lat="44.62059" lon="3.25777">
        <ele>1028</ele>
        <time>2019-05-30T10:27:18.182Z</time>
      </trkpt>
      <trkpt lat="44.62061" lon="3.25768">
        <ele>1028</ele>
        <time>2019-05-30T10:27:23.161Z</time>
      </trkpt>
      <trkpt lat="44.62063" lon="3.2576">
        <ele>1027</ele>
        <time>2019-05-30T10:27:28.144Z</time>
      </trkpt>
      <trkpt lat="44.62063" lon="3.25754">
        <ele>1027</ele>
        <time>2019-05-30T10:27:32.153Z</time>
      </trkpt>
      <trkpt lat="44.62063" lon="3.25744">
        <ele>1027</ele>
        <time>2019-05-30T10:27:37.149Z</time>
      </trkpt>
      <trkpt lat="44.62063" lon="3.25737">
        <ele>1027</ele>
        <time>2019-05-30T10:27:42.144Z</time>
      </trkpt>
      <trkpt lat="44.62063" lon="3.2573">
        <ele>1027</ele>
        <time>2019-05-30T10:27:46.144Z</time>
      </trkpt>
      <trkpt lat="44.62064" lon="3.25724">
        <ele>1027</ele>
        <time>2019-05-30T10:27:51.145Z</time>
      </trkpt>
      <trkpt lat="44.62065" lon="3.25717">
        <ele>1027</ele>
        <time>2019-05-30T10:27:56.149Z</time>
      </trkpt>
      <trkpt lat="44.62068" lon="3.2571">
        <ele>1027</ele>
        <time>2019-05-30T10:28:01.150Z</time>
      </trkpt>
      <trkpt lat="44.62071" lon="3.25702">
        <ele>1028</ele>
        <time>2019-05-30T10:28:06.149Z</time>
      </trkpt>
      <trkpt lat="44.62075" lon="3.25696">
        <ele>1028</ele>
        <time>2019-05-30T10:28:11.144Z</time>
      </trkpt>
      <trkpt lat="44.62077" lon="3.25693">
        <ele>1028</ele>
        <time>2019-05-30T10:28:15.170Z</time>
      </trkpt>
      <trkpt lat="44.62083" lon="3.25688">
        <ele>1028</ele>
        <time>2019-05-30T10:28:20.143Z</time>
      </trkpt>
      <trkpt lat="44.62087" lon="3.25686">
        <ele>1028</ele>
        <time>2019-05-30T10:28:24.175Z</time>
      </trkpt>
      <trkpt lat="44.62091" lon="3.25682">
        <ele>1028</ele>
        <time>2019-05-30T10:28:29.156Z</time>
      </trkpt>
      <trkpt lat="44.62094" lon="3.25678">
        <ele>1026</ele>
        <time>2019-05-30T10:28:33.143Z</time>
      </trkpt>
      <trkpt lat="44.62098" lon="3.25672">
        <ele>1029</ele>
        <time>2019-05-30T10:28:38.146Z</time>
      </trkpt>
      <trkpt lat="44.62105" lon="3.25665">
        <ele>1029</ele>
        <time>2019-05-30T10:28:43.174Z</time>
      </trkpt>
      <trkpt lat="44.62111" lon="3.25656">
        <ele>1029</ele>
        <time>2019-05-30T10:28:48.143Z</time>
      </trkpt>
      <trkpt lat="44.62116" lon="3.25649">
        <ele>1028</ele>
        <time>2019-05-30T10:28:53.144Z</time>
      </trkpt>
      <trkpt lat="44.62123" lon="3.25639">
        <ele>1028</ele>
        <time>2019-05-30T10:28:58.146Z</time>
      </trkpt>
      <trkpt lat="44.62126" lon="3.25633">
        <ele>1031</ele>
        <time>2019-05-30T10:29:02.154Z</time>
      </trkpt>
      <trkpt lat="44.62131" lon="3.25626">
        <ele>1031</ele>
        <time>2019-05-30T10:29:07.144Z</time>
      </trkpt>
      <trkpt lat="44.62134" lon="3.2562">
        <ele>1030</ele>
        <time>2019-05-30T10:29:11.170Z</time>
      </trkpt>
      <trkpt lat="44.62137" lon="3.25612">
        <ele>1030</ele>
        <time>2019-05-30T10:29:16.152Z</time>
      </trkpt>
      <trkpt lat="44.62139" lon="3.25605">
        <ele>1030</ele>
        <time>2019-05-30T10:29:20.178Z</time>
      </trkpt>
      <trkpt lat="44.62143" lon="3.25598">
        <ele>1030</ele>
        <time>2019-05-30T10:29:25.144Z</time>
      </trkpt>
      <trkpt lat="44.62147" lon="3.25592">
        <ele>1028</ele>
        <time>2019-05-30T10:29:30.148Z</time>
      </trkpt>
      <trkpt lat="44.6215" lon="3.25586">
        <ele>1028</ele>
        <time>2019-05-30T10:29:34.147Z</time>
      </trkpt>
      <trkpt lat="44.62152" lon="3.25581">
        <ele>1028</ele>
        <time>2019-05-30T10:29:38.160Z</time>
      </trkpt>
      <trkpt lat="44.62156" lon="3.25574">
        <ele>1032</ele>
        <time>2019-05-30T10:29:43.152Z</time>
      </trkpt>
      <trkpt lat="44.6216" lon="3.25568">
        <ele>1030</ele>
        <time>2019-05-30T10:29:48.147Z</time>
      </trkpt>
      <trkpt lat="44.62164" lon="3.25563">
        <ele>1030</ele>
        <time>2019-05-30T10:29:53.149Z</time>
      </trkpt>
      <trkpt lat="44.62168" lon="3.25557">
        <ele>1030</ele>
        <time>2019-05-30T10:29:58.146Z</time>
      </trkpt>
      <trkpt lat="44.62171" lon="3.25552">
        <ele>1030</ele>
        <time>2019-05-30T10:30:03.173Z</time>
      </trkpt>
      <trkpt lat="44.62175" lon="3.25546">
        <ele>1030</ele>
        <time>2019-05-30T10:30:08.148Z</time>
      </trkpt>
      <trkpt lat="44.62179" lon="3.25541">
        <ele>1030</ele>
        <time>2019-05-30T10:30:13.144Z</time>
      </trkpt>
      <trkpt lat="44.62184" lon="3.25536">
        <ele>1033</ele>
        <time>2019-05-30T10:30:18.153Z</time>
      </trkpt>
      <trkpt lat="44.62187" lon="3.25531">
        <ele>1033</ele>
        <time>2019-05-30T10:30:22.154Z</time>
      </trkpt>
      <trkpt lat="44.62192" lon="3.25526">
        <ele>1033</ele>
        <time>2019-05-30T10:30:27.150Z</time>
      </trkpt>
      <trkpt lat="44.62197" lon="3.25521">
        <ele>1033</ele>
        <time>2019-05-30T10:30:32.147Z</time>
      </trkpt>
      <trkpt lat="44.62203" lon="3.25515">
        <ele>1033</ele>
        <time>2019-05-30T10:30:37.147Z</time>
      </trkpt>
      <trkpt lat="44.62207" lon="3.25507">
        <ele>1030</ele>
        <time>2019-05-30T10:30:42.149Z</time>
      </trkpt>
      <trkpt lat="44.62211" lon="3.25503">
        <ele>1032</ele>
        <time>2019-05-30T10:30:46.172Z</time>
      </trkpt>
      <trkpt lat="44.62215" lon="3.25497">
        <ele>1032</ele>
        <time>2019-05-30T10:30:51.152Z</time>
      </trkpt>
      <trkpt lat="44.62219" lon="3.25492">
        <ele>1032</ele>
        <time>2019-05-30T10:30:56.146Z</time>
      </trkpt>
      <trkpt lat="44.62223" lon="3.25485">
        <ele>1030</ele>
        <time>2019-05-30T10:31:01.145Z</time>
      </trkpt>
      <trkpt lat="44.62226" lon="3.25477">
        <ele>1030</ele>
        <time>2019-05-30T10:31:06.144Z</time>
      </trkpt>
      <trkpt lat="44.62229" lon="3.25471">
        <ele>1030</ele>
        <time>2019-05-30T10:31:10.173Z</time>
      </trkpt>
      <trkpt lat="44.62231" lon="3.25463">
        <ele>1030</ele>
        <time>2019-05-30T10:31:15.170Z</time>
      </trkpt>
      <trkpt lat="44.62231" lon="3.25454">
        <ele>1030</ele>
        <time>2019-05-30T10:31:20.145Z</time>
      </trkpt>
      <trkpt lat="44.6223" lon="3.25447">
        <ele>1030</ele>
        <time>2019-05-30T10:31:25.141Z</time>
      </trkpt>
      <trkpt lat="44.62228" lon="3.25444">
        <ele>1030</ele>
        <time>2019-05-30T10:31:29.144Z</time>
      </trkpt>
      <trkpt lat="44.62226" lon="3.25437">
        <ele>1030</ele>
        <time>2019-05-30T10:31:33.145Z</time>
      </trkpt>
      <trkpt lat="44.62224" lon="3.25432">
        <ele>1030</ele>
        <time>2019-05-30T10:31:38.153Z</time>
      </trkpt>
      <trkpt lat="44.62219" lon="3.25429">
        <ele>1031</ele>
        <time>2019-05-30T10:31:43.125Z</time>
      </trkpt>
      <trkpt lat="44.62218" lon="3.25428">
        <ele>1031</ele>
        <time>2019-05-30T10:31:47.149Z</time>
      </trkpt>
      <trkpt lat="44.62215" lon="3.25423">
        <ele>1031</ele>
        <time>2019-05-30T10:32:25.140Z</time>
      </trkpt>
      <trkpt lat="44.62212" lon="3.25417">
        <ele>1031</ele>
        <time>2019-05-30T10:32:29.150Z</time>
      </trkpt>
      <trkpt lat="44.6221" lon="3.25411">
        <ele>1031</ele>
        <time>2019-05-30T10:32:34.149Z</time>
      </trkpt>
      <trkpt lat="44.6221" lon="3.25412">
        <ele>1031</ele>
        <time>2019-05-30T10:32:43.152Z</time>
      </trkpt>
      <trkpt lat="44.62208" lon="3.25411">
        <ele>1029</ele>
        <time>2019-05-30T10:32:48.154Z</time>
      </trkpt>
      <trkpt lat="44.62206" lon="3.25407">
        <ele>1029</ele>
        <time>2019-05-30T10:33:12.147Z</time>
      </trkpt>
      <trkpt lat="44.62203" lon="3.25407">
        <ele>1029</ele>
        <time>2019-05-30T10:33:16.145Z</time>
      </trkpt>
      <trkpt lat="44.62202" lon="3.25405">
        <ele>1029</ele>
        <time>2019-05-30T10:33:21.146Z</time>
      </trkpt>
      <trkpt lat="44.62204" lon="3.25418">
        <ele>1029</ele>
        <time>2019-05-30T10:40:06.150Z</time>
      </trkpt>
      <trkpt lat="44.62205" lon="3.25413">
        <ele>1029</ele>
        <time>2019-05-30T10:40:11.152Z</time>
      </trkpt>
      <trkpt lat="44.62208" lon="3.25411">
        <ele>1029</ele>
        <time>2019-05-30T10:40:41.121Z</time>
      </trkpt>
      <trkpt lat="44.62205" lon="3.25402">
        <ele>1028</ele>
        <time>2019-05-30T10:40:46.150Z</time>
      </trkpt>
      <trkpt lat="44.62201" lon="3.25397">
        <ele>1028</ele>
        <time>2019-05-30T10:40:51.124Z</time>
      </trkpt>
      <trkpt lat="44.62196" lon="3.25395">
        <ele>1028</ele>
        <time>2019-05-30T10:41:01.122Z</time>
      </trkpt>
      <trkpt lat="44.62196" lon="3.25397">
        <ele>1028</ele>
        <time>2019-05-30T10:41:05.131Z</time>
      </trkpt>
      <trkpt lat="44.62199" lon="3.25401">
        <ele>1028</ele>
        <time>2019-05-30T10:41:10.125Z</time>
      </trkpt>
      <trkpt lat="44.62199" lon="3.25403">
        <ele>1029</ele>
        <time>2019-05-30T10:41:15.122Z</time>
      </trkpt>
      <trkpt lat="44.622" lon="3.25406">
        <ele>1029</ele>
        <time>2019-05-30T10:41:19.129Z</time>
      </trkpt>
    </trkseg>
  </trk>
</gpx>